     2              OBSERVATION DATA    GPS                 RINEX VERSION / TYPE
teqc 1997Sep10 19971010 23:15:55UTC                         PGM / RUN BY / DATE
                                                            COMMENT
Original Marker Name: COAC                                  COMMENT
Campaign Name: NGS Salton Trough 1991                       COMMENT
4-Character Station Name: COAC                              COMMENT
6-Character Antenna Code: TRMSST                            COMMENT
Vertical Measurement Point: BGP                             COMMENT
Vertical Offset to Rinex Ref. Point: 0.0597                 COMMENT
Radial Measurement Point: NGP                               COMMENT
Radial Offset to Rinex Ref. Point: 0.2334                   COMMENT
Antenna Height from Field Measurement: 1.2970 m             COMMENT
Original XYZ: -2292215.8173 -4825862.8001 3472184.2663      COMMENT
New XYZ position is based on association with SCEC monument COMMENT
E1D0I5P7+0012. Position of that monument is believed to be  COMMENT
valid to within 1 m horizontally; vertical accuracy         COMMENT
should be no worse than 3-times this value.                 COMMENT
                                                            COMMENT
Revised Rinex header created by UCSD GPS archive for        COMMENT
GSAC on 12-Apr-1999 (1999:102) 05:43:41 GMT                 COMMENT
For assistance contact dagnew@ucsd.edu or hjohnson@ucsd.edu COMMENT
                                                            COMMENT
COACH 2 DOT 1967                                            MARKER NAME
unknown NATIONAL GEODETIC SURVEY                            OBSERVER / AGENCY
486 TRIMBLE 4000 SST NP 4.30 / SP 4.20                      REC # / TYPE / VERS
17 TR 4000SST L1/L2 GEO                                     ANT # / TYPE
 -2292214.0000 -4825862.0000  3472186.0000                  APPROX POSITION XYZ
        1.2161        0.0000        0.0000                  ANTENNA: DELTA H/E/N
     1     1     0                                          WAVELENGTH FACT L1/2
     3    C1    L1    L2                                    # / TYPES OF OBSERV
     0                                                      INTERVAL
  1991     3    22    21    57   45.000000                  TIME OF FIRST OBS
  1991     3    23     3    33   60.000000                  TIME OF LAST OBS
     0                                                      # OF SATELLITES
                                                            END OF HEADER
 91  3 22 21 57 45.0000000  0  4G18G 2G11G19
  20379025.188          -0.40118        -0.08632
  24063033.281          -0.13915        -0.28631
  23549446.7344         -0.31455        -0.07871
  20878621.7734         -0.97156
 91  3 22 21 58  0.0000000  0  4G18G 2G11G19
  20378861.164        -865.423 8      -674.15622
  24051532.609      -60424.799 5    -47084.14921
  23540735.2274     -45778.23145    -35671.02961
  20875003.664      -19031.115 6
 91  3 22 21 58 15.0000000  0  4G18G 2G11G19
  20378715.063       -1634.725 8     -1273.62222
  24040036.609     -120827.638 5    -94151.02921
  23532038.047      -91486.019 6    -71287.32321
  20871379.484      -38042.055 6        -0.45432
 91  3 22 21 58 30.0000000  0  4G18G 2G11G19
  20378588.008       -2302.819 8     -1794.23622
  24028548.6724    -181203.36245   -141196.78761
  23523352.820     -137118.192 6   -106844.71021
  20867769.1954     -57028.61346    -14795.16962
 91  3 22 21 58 45.0000000  0  4G18G 2G11G19
  20378481.336       -2867.920 8     -2234.59322
  24017065.8674    -241550.47745   -188220.25561
  23514686.0164    -182673.01146   -142341.82261
  20864158.6174     -75989.27046    -29569.69362
 91  3 22 21 59  0.0000000  0  4G18G 2G11G19
  20378391.313       -3333.695 8     -2597.55522
  24005587.813     -301872.179 5   -235223.92021
  23506028.8054    -228153.39746   -177780.91461
  20860557.5784     -94927.30846    -44326.59862
 91  3 22 21 59 15.0000000  0  4G18G 2G11G19
  20378322.805       -3691.983 8     -2876.76022
  23994114.1884    -362160.31145   -282201.41561
  23497391.3204    -273551.08546   -213155.59061
  20856957.2034    -113834.86146    -59059.74762
 91  3 22 21 59 30.0000000  0  4G18G 2G11G19
  20378276.164       -3944.302 8     -3073.38422
  23982648.320     -422416.029 5   -329153.66021
  23488769.172     -318866.914 6   -248466.45721
  20853365.8834    -132713.52046    -73770.38462
 91  3 22 21 59 45.0000000  0  4G18G 2G11G19
  20378246.570       -4087.569 8
  23971191.3754    -482636.23545   -376078.22961
  23480159.820     -364097.604 6   -283710.98021
  20849779.4774    -151560.35046    -88456.21562
 91  3 22 22  0  0.0000000  0  4G18G 2G11G19
  20378239.969       -4128.628 8
  23959731.711     -542827.234 5   -422980.05221
  23471565.6174    -409249.54946   -318894.16461
  20846201.2504    -170381.85846   -103122.32162
 91  3 22 22  0 15.0000000  0  4G18G 2G11G19
  20378251.641       -4062.298 8
  23948285.789     -602984.193 5   -469855.34621
  23462991.6334    -454317.40446   -354011.79961
  20842622.0234    -189173.23046   -117764.94262
 91  3 22 22  0 30.0000000  0  4G18G 2G11G19
  20378285.914       -3885.225 8
  23936843.180     -663103.278 5   -516701.14121
  23454432.477     -499297.223 6   -389060.84621
  20839052.1804    -207930.84346   -132381.25562
 91  3 22 22  0 45.0000000  0  4G18G 2G11G19
  20378343.016       -3597.883 8
  23925404.898     -723184.839 5   -563517.70421
  23445889.359     -544189.291 6   -424041.51421
  20835491.1024    -226655.32246   -146971.74762
 91  3 22 22  1  0.0000000  0  4G18G 2G11G19
  20378418.266       -3202.841 8     -2495.72123
  23913980.781     -783231.450 5   -610307.03221
  23437361.2034    -588995.83746   -458955.54861
  20831933.2664    -245349.47246   -161538.62062
 91  3 22 22  1 15.0000000  0  4G18G 2G11G19
  20378513.672       -2694.807 8     -2099.87223
  23902561.2114    -843237.67545   -657064.90561
  23428853.586     -633711.093 6   -493798.43721
  20828381.4694    -264007.73246   -176077.51462
 91  3 22 22  1 29.9990000  0  4G18G 2G11G19
  20378629.448       -2079.694 8     -1620.58223
  23891155.089     -903204.778 5   -703792.25221
  23420362.7224    -678337.17946   -528571.84661
  20824842.3154    -282634.53446   -190591.90462
 91  3 22 22  1 44.9990000  0  4G18G 2G11G19
  20378766.308       -1356.698 8     -1057.22223
  23879750.4094    -963140.37945   -750495.06561
  23411883.2844    -722879.60446   -563280.08461
  20821297.7764    -301232.18646   -205083.58062
 91  3 22 22  1 59.9990000  0  4G18G 2G11G19
  20378927.378        -518.170 8      -403.84023
  23868352.909    -1023032.395 5   -797163.92121
  23403424.5194    -767327.04246   -597914.28661
  20817768.4804    -319791.42946   -219545.32362
 91  3 22 22  2 14.9990000  0  4G18G 2G11G19
  20379108.448         427.714 8       333.18823
  23856961.3704   -1082888.98945   -843805.15161
  23394982.675     -811687.326 6   -632480.58621
  20814239.8084    -338320.45946   -233983.52162
 91  3 22 22  2 29.9990000  0  4G18G 2G11G19
  20379306.597        1476.256 8      1150.21723
  23845575.4484   -1142714.93045   -890422.51761
  23386558.8624    -855964.98346   -666982.49961
  20810721.1754    -356824.17446   -248401.99862
 91  3 22 22  2 44.9990000  0  4G18G 2G11G19
  20379527.253        2634.374 8      2052.61923
  23834201.909    -1202502.860 6   -937010.25321
  23378152.730     -900152.577 6   -701414.24221
  20807204.0814    -375295.52546   -262795.25262
 91  3 22 22  2 59.9990000  0  4G18G 2G11G19
  20379769.144        3900.594 8      3039.26123
  23822827.9954   -1262254.02446   -983569.34161
  23369755.9724    -944251.11646   -735776.59561
  20803700.2764    -393736.09346   -277164.51962
 91  3 22 22  3 14.9990000  0  4G18G 2G11G19
  20380028.519        5269.920 8      4106.24523
  23811461.753    -1321973.266 5  -1030103.54521
  23361384.308     -988265.142 6   -770073.08521
  20800192.5264    -412150.60346   -291513.48462
 91  3 22 22  3 29.9990000  0  4G18G 2G11G19
  20380310.886        6749.437 8      5259.09323
  23800105.995    -1381653.377 5  -1076607.27821
  23353023.7224   -1032187.38346   -804298.05761
  20796694.9564    -430532.23146   -305836.82862
 91  3 22 22  3 44.9990000  0  4G18G 2G11G19
  20380612.995        8339.907 8      6498.39123
  23788759.0584   -1441293.47446  -1123079.81061
  23344685.003    -1076016.604 6   -838450.54521
  20793202.6204    -448880.08546   -320133.84562
 91  3 22 22  3 59.9990000  0  4G18G 2G11G19
  20380937.058       10038.787 8      7822.16822
  23777417.7534   -1500896.07145  -1169523.15061
  23336361.0034   -1119755.16546   -872532.40261
  20789721.4804    -467196.84546   -334406.64062
 91  3 22 22  4 14.9990000  0  4G18G 2G11G19
  20381280.792       11847.158 8      9231.26423
  23766080.909    -1560459.590 5  -1215936.01921
  23328056.0814   -1163401.51746   -906542.39261
  20786238.5034    -485481.31746   -348654.27262
 91  3 22 22  4 29.9990000  0  4G18G 2G11G19
  20381646.2304      13766.37248     10726.72662
  23754754.159    -1619982.699 5  -1262317.41321
  23319769.0344   -1206954.02946   -940479.25661
  20782766.2844    -503732.28346   -362875.79362
 91  3 22 22  4 44.9990000  0  4G18G 2G11G19
  20382032.925       15793.519 8     12306.29622
  23743434.183    -1679467.577 5  -1308669.03321
  23311496.003    -1250414.656 6   -974344.53621
  20779297.3474    -521952.07146   -377073.02262
 91  3 22 22  4 59.9990000  0  4G18G 2G11G19
  20382438.745       17929.051 8     13970.31922
  23732120.3084   -1738914.39745  -1354991.00061
  23303244.847    -1293783.220 6  -1008138.06221
  20775837.1054    -540140.99846   -391246.20662
 91  3 22 22  5 14.9990000  0  4G18G 2G11G19
  20382866.1834      20174.67548     15720.13162
  23720817.3394   -1798321.03645  -1401281.64861
  23295008.011    -1337057.407 6  -1041858.07021
  20772378.9334    -558296.88046   -405393.63562
 91  3 22 22  5 29.9990000  0  4G18G 2G11G19
  20383314.3154      22529.79348     17555.25562
  23709517.2534   -1857688.25945  -1447541.58061
  23286793.5894   -1380237.96446  -1075505.09761
  20768934.6984    -576420.94546   -419516.27862
 91  3 22 22  5 44.9990000  0  4G18G 2G11G19
  20383782.7614      24990.02348     19472.29262
  23698226.7454   -1917019.71245  -1493773.60561
  23278592.823    -1423328.283 6  -1109081.83321
  20765487.9254    -594516.96546   -433617.05762
 91  3 22 22  5 59.9990000  0  4G18G 2G11G19
  20384271.0734      27557.30548     21472.74062
  23686944.159    -1976313.438 5  -1539976.25921
  23270409.870    -1466326.067 6  -1142586.44721
  20762052.2374    -612582.92046   -447694.41962
 91  3 22 22  6 14.9990000  0  4G18G 2G11G19
  20384780.253       30233.573 8     23558.11722
  23675669.3314   -2035567.71446  -1586148.14361
  23262245.292    -1509229.398 6  -1176017.47221
  20758619.7614    -630617.31846   -461747.18562
 91  3 22 22  6 29.9990000  0  4G18G 2G11G19
  20385311.472       33021.562 8     25730.55222
  23664401.4874   -2094778.97246  -1632286.54061
  23254101.425    -1552034.447 6  -1209371.90521
  20755195.8624    -648616.72446   -475772.69062
 91  3 22 22  6 44.9990000  0  4G18G 2G11G19
  20385860.433       35916.220 8     27986.10922
  23653142.292    -2153952.856 6  -1678395.80821
  23245974.8624   -1594746.67946  -1242654.01161
  20751774.1984    -666586.93146   -489775.42962
 91  3 22 22  6 59.9990000  0  4G18G 2G11G19
  20386432.8474      38915.95548     30323.53262
  23641887.026    -2213090.278 6  -1724476.66121
  23237861.480    -1637366.888 6  -1275864.42721
  20748362.2764    -684529.21346   -503756.43062
 91  3 22 22  7 14.9990000  0  4G18G 2G11G19
  20387022.5894      42021.81548     32743.65062
  23630642.065    -2272189.696 6  -1770527.90721
  23229769.8474   -1679893.43046  -1309001.84661
  20744950.9334    -702442.12046   -517714.53062
 91  3 22 22  7 29.9990000  0  4G18G 2G11G19
  20387634.7924      45235.44948     35247.75362
  23619402.737    -2331250.002 6  -1816548.65121
  23221694.9564   -1722324.81146  -1342065.11861
  20741550.0034    -720324.64546   -531648.95562
 91  3 22 22  7 44.9990000  0  4G18G 2G11G19
  20388265.5584      48552.11348     37832.13662
  23608173.4874   -2390275.53646  -1862542.31361
  23213636.628    -1764665.353 6  -1375057.60521
  20738149.9404    -738181.27646   -545563.21362
 91  3 22 22  7 59.9990000  0  4G18G 2G11G19
  20388916.9724      51973.06048     40497.77862
  23596945.183    -2449264.745 6  -1908507.67321
  23205598.7454   -1806913.38546  -1407977.99961
  20734760.0584    -756010.64546   -559456.22162
 91  3 22 22  8 14.9990000  0  4G18G 2G11G19
  20389588.6754      55500.01948     43246.02662
  23585726.050    -2508215.720 5  -1954443.24721
  23197573.558    -1849066.595 6  -1440824.51621
  20731369.1124    -773811.02846   -573326.64662
 91  3 22 22  8 29.9990000  0  4G18G 2G11G19
  20390279.5584      59135.56548     46078.88762
  23574509.7764   -2567125.57945  -2000346.79261
  23189570.651    -1891122.202 6  -1473594.98621
  20727990.2454    -791579.88846   -587172.50761
 91  3 22 22  8 44.9990000  0  4G18G 2G11G19
  20390991.6594      62878.54448     48995.46363
  23563307.823    -2625995.563 5  -2046219.26221
  23181586.2224   -1933081.00646  -1506290.00761
  20724613.4644    -809318.37146   -600994.69062
 91  3 22 22  8 59.9990000  0  4G18G 2G11G19
  20391724.3474      66727.70948     51994.78563
  23552113.401    -2684826.643 5  -2092061.43521
  23173622.230    -1974943.755 6  -1538910.20421
  20721244.6904    -827027.56246   -614794.06062
 91  3 22 22  9 14.9990000  0  4G18G 2G11G19
  20392477.3234      70682.12848     55076.11863
  23540927.4174   -2743619.69045  -2137873.95761
  23165673.237    -2016711.067 6  -1571456.01621
  20717876.8624    -844708.23946   -628571.20362
 91  3 22 22  9 29.9990000  0  4G18G 2G11G19
  20393249.8784      74739.98948     58238.06063
  23529746.175    -2802376.376 5  -2183658.13421
  23157742.6594   -2058384.41646  -1603928.60761
  20714520.2454    -862362.39946   -642327.68562
 91  3 22 22  9 44.9990000  0  4G18G 2G11G19
  20394043.3864      78908.95448     61486.57463
  23518573.730    -2861088.652 5  -2229407.71021
  23149833.519    -2099955.753 6  -1636321.73021
  20711165.3624    -879982.23146   -656057.41662
 91  3 22 22  9 59.9990000  0  4G18G 2G11G19
  20394857.1364      83182.44948     64816.54163
  23507405.370    -2919762.914 5  -2275127.66421
  23141942.495    -2141431.051 6  -1668639.99421
  20707820.7924    -897574.32946   -669765.53862
 91  3 22 22 10 14.9990000  0  4G18G 2G11G19
  20395689.4954      87562.48448     68229.52463
  23496252.8704   -2978397.17845  -2320816.46861
  23134066.3554   -2182808.28846  -1700881.84661
  20704477.5654    -915136.94946   -683450.66862
 91  3 22 22 10 29.9990000  0  4G18G 2G11G19
  20396544.5264      92054.92148     71730.09563
  23485096.956    -3036985.337 5  -2366469.32021
  23126212.558    -2224081.129 6  -1733042.37821
  20701144.6594    -932663.99946   -697108.10462
 91  3 22 22 10 44.9990000  0  4G18G 2G11G19
  20397420.4014      96654.83348     75314.41563
  23473960.089    -3095531.754 5  -2412089.65521
  23118376.550    -2265253.847 6  -1765124.86321
  20697811.4564    -950160.03646   -710741.37162
 91  3 22 22 10 59.9990000  0  4G18G 2G11G19
  20398317.1594     101363.79048     78983.70363
  23462825.386    -3154034.976 5  -2457676.32421
  23110561.6834   -2306324.75046  -1797128.02861
  20694490.3314    -967623.54846   -724349.28962
 91  3 22 22 11 14.9990000  0  4G18G 2G11G19
  20399232.4484     106175.44448     82733.01263
  23451703.6204   -3212501.25346  -2503234.19861
  23102764.425    -2347299.805 6  -1829056.50121
  20691170.4644    -985061.01246   -737936.91662
 91  3 22 22 11 29.9990000  0  4G18G 2G11G19
  20400166.2374     111091.25748     86563.48263
  23440584.3154   -3270928.92346  -2548762.00961
  23094985.448    -2388177.295 6  -1860908.95521
  20687857.8154   -1002471.08846   -751503.19862
 91  3 22 22 11 44.9990000  0  4G18G 2G11G19
  20401122.6444     116113.45948     90476.85563
  23429476.8704   -3329315.50346  -2594257.79761
  23087224.956    -2428954.479 6  -1892683.24221
  20684549.0974   -1019851.31146   -765046.21862
 91  3 22 22 11 59.9990000  0  4G18G 2G11G19
  20402099.0584     121241.84648     94472.96863
  23418371.3394   -3387660.90746  -2639721.50661
  23079482.8004   -2469631.04646  -1924379.13561
  20681247.9254   -1037201.75446   -778566.03462
 91  3 22 22 12 14.9990000  0  4G18G 2G11G19
  20403095.0344     126474.94248     98550.67063
  23407273.776    -3445966.792 6  -2685154.43621
  23071762.940    -2510208.455 6  -1955997.75721
  20677953.0034   -1054524.15146   -792063.99762
 91  3 22 22 12 29.9990000  0  4G18G 2G11G19
  20404111.8154     131812.41148    102709.70763
  23396188.894    -3504232.688 6  -2730556.20421
  23064059.1364   -2550686.02346  -1987538.60161
  20674664.2534   -1071818.39146   -805540.01562
 91  3 22 22 12 44.9990000  0  4G18G 2G11G19
  20405147.6984     137257.37748    106952.50763
  23385105.855    -3562455.636 6  -2775924.51021
  23056379.5194   -2591060.58746  -2018999.16761
  20671375.7764   -1089081.37146   -818991.68062
 91  3 22 22 12 59.9990000  0  4G18G 2G11G19
  20406202.3234     142808.24048    111277.81863
  23374036.980    -3620637.324 6  -2821260.67221
  23048715.058    -2631333.658 6  -2050380.65021
  20668097.6124   -1106314.94346   -832420.42662
 91  3 22 22 13 14.9990000  0  4G18G 2G11G19
  20407278.7614     148464.41548    115685.19162
  23362973.792    -3678778.014 6  -2866564.88321
  23041069.1284   -2671505.43046  -2081683.20361
  20664822.9564   -1123519.58946   -845826.63362
 91  3 22 22 13 29.9990000  0  4G18G 2G11G19
  20408374.4484     154222.88148    120172.27562
  23351916.269    -3736880.097 5  -2911839.00921
  23033444.4564   -2711578.06146  -2112908.50161
  20661553.5194   -1140697.81746   -859212.25462
 91  3 22 22 13 44.9990000  0  4G18G 2G11G19
  20409491.5734     160089.96748    124743.99862
  23340869.206    -3794937.555 5  -2957078.37721
  23025837.5504   -2751545.30946  -2144051.68161
  20658289.8474   -1157843.82546   -872572.77162
 91  3 22 22 13 59.9990000  0  4G18G 2G11G19
  20410629.3394     166065.98448    129400.59862
  23329825.698    -3852949.758 5  -3002282.45121
  23018253.3154   -2791406.27646  -2175112.04761
  20655037.8864   -1174957.05146   -885907.74562
 91  3 22 22 14 14.9990000  0  4G18G 2G11G19
  20411787.1124     172157.90248    134147.51262
  23318799.2454   -3910909.66645  -3047445.81061
  23010690.6754   -2831153.84746  -2206084.06661
  20651786.4644   -1192030.59546   -899211.80062
 91  3 22 22 14 29.9990000  0  4G18G 2G11G19
  20412968.2614     178361.15548    138981.18262
  23307774.9094   -3968821.44245  -3092571.65161
  23003144.6054   -2870791.98746  -2236970.80961
  20648545.0194   -1209068.70846   -912488.24262
 91  3 22 22 14 44.9990000  0  4G18G 2G11G19
  20414170.1754     184676.75248    143902.39462
  23296762.6904   -4026683.55146  -3137658.80461
  22995623.605    -2910319.018 6  -2267770.96021
  20645307.9254   -1226069.85046   -925735.87962
 91  3 22 22 14 59.9990000  0  4G18G 2G11G19
  20415394.5504     191104.44648    148910.95562
  23285764.706    -4084496.419 6  -3182707.55921
  22988122.769    -2949735.138 6  -2298484.69521
  20642080.0034   -1243034.89346   -938955.38662
 91  3 22 22 15 14.9990000  0  4G18G 2G11G19
  20416638.4254     197637.90748    154001.93062
  23274773.394    -4142266.526 6  -3227723.00821
  22980642.0654   -2989046.62146  -2329116.90861
  20638857.0424   -1259970.18046   -952151.70762
 91  3 22 22 15 29.9990000  0  4G18G 2G11G19
  20417902.6594     204279.51948    159177.17463
  23263788.237    -4199990.847 6  -3272702.78321
  22973181.706    -3028250.254 6  -2359665.07921
  20635643.6054   -1276872.85046   -965322.60862
 91  3 22 22 15 44.9990000  0  4G18G 2G11G19
  20419184.9254     211027.21648    164435.08763
  23252812.034    -4257671.268 6  -3317648.36121
  22965742.6754   -3067347.90646  -2390130.66361
  20632429.8864   -1293744.88746   -978469.64462
 91  3 22 22 15 59.9990000  0  4G18G 2G11G19
  20420489.6904     217888.14148    169781.23062
  23241843.456    -4315300.886 6  -3362554.33721
  22958323.0504   -3106332.37946  -2420508.05261
  20629227.6204   -1310579.64446   -991587.62962
 91  3 22 22 16 14.9990000  0  4G18G 2G11G19
  20421816.3554     224855.86948    175210.59463
  23230887.644    -4372885.390 6  -3407425.16521
  22950923.9564   -3145209.00546  -2450801.41161
  20626028.7844   -1327382.75146  -1004680.95462
 91  3 22 22 16 29.9990000  0  4G18G 2G11G19
  20423162.3474     231931.82948    180724.29562
  23219933.8234   -4430423.49046  -3452259.85061
  22943547.1594   -3183976.43346  -2481009.69261
  20622841.5894   -1344153.11546  -1017748.76562
 91  3 22 22 16 44.9990000  0  4G18G 2G11G19
  20424529.2614     239113.49848    186320.36463
  23208996.456    -4487917.356 6  -3497060.05421
  22936191.5504   -3222636.73446  -2511134.48561
  20619652.8784   -1360893.17046  -1030792.95162
 91  3 22 22 16 59.9990000  0  4G18G 2G11G19
  20425917.1834     246404.52848    192001.65162
  23198065.480    -4545362.986 6  -3541822.69321
  22928854.675    -3261185.642 6  -2541172.47921
  20616473.2534   -1377598.92646  -1043810.41462
 91  3 22 22 17 14.9990000  0  4G18G 2G11G19
  20427324.9874     253802.39348    197766.18363
  23187142.3004   -4602763.00445  -3586549.79561
  22921540.800    -3299625.641 6  -2571125.60521
  20613299.5114   -1394273.26546  -1056803.40162
 91  3 22 22 17 29.9990000  0  4G18G 2G11G19
  20428753.4644     261308.17248    203614.80463
  23176228.6054   -4660116.08545  -3631240.31961
  22914244.5584   -3337955.18246  -2600992.67161
  20610135.8394   -1410914.95246  -1069770.94263
 91  3 22 22 17 44.9990000  0  4G18G 2G11G19
  20430203.1674     268925.65248    209550.46762
  23165320.784    -4717418.202 5  -3675891.12321
  22906974.8554   -3376170.19246  -2630770.48761
  20606972.6904   -1427520.08046  -1082709.98863
 91  3 22 22 17 59.9990000  0  4G18G 2G11G19
  20431674.2064     276653.54948    215572.16963
  23154424.5654   -4774670.50245  -3720503.12561
  22899724.9954   -3414271.51046  -2660459.71061
  20603821.7454   -1444089.61646  -1095621.30463
 91  3 22 22 18 14.9990000  0  4G18G 2G11G19
  20433166.1204     284492.93248    221680.74163
  23143541.823    -4831871.294 6  -3765074.96721
  22892494.847    -3452257.607 6  -2690059.15421
  20600673.4564   -1460622.49646  -1108504.06162
 91  3 22 22 18 29.9990000  0  4G18G 2G11G19
  20434678.4404     292443.39248    227875.86463
  23132663.995    -4889021.174 6  -3809607.14021
  22885288.355    -3490128.478 6  -2719568.80921
  20597535.8314   -1477119.01246  -1121358.47662
 91  3 22 22 18 44.9990000  0  4G18G 2G11G19
  20436212.5894     300507.86448    234159.83663
  23121802.2454   -4946116.98946  -3854097.18261
  22878105.440    -3527880.893 6  -2748986.16721
  20594403.3554   -1493576.22246  -1134182.26962
 91  3 22 22 18 59.9990000  0  4G18G 2G11G19
  20437767.2224     308676.36348    240524.86263
  23110947.378    -5003168.310 6  -3898552.55321
  22870943.769    -3565524.421 6  -2778318.67921
  20591280.1054   -1510003.87446  -1146983.02862
 91  3 22 22 19 14.9990000  0  4G18G 2G11G19
  20439343.6984     316956.81048    246977.11963
  23100100.7144   -5060167.24846  -3942967.10161
  22863800.245    -3603051.040 6  -2807560.08821
  20588157.8704   -1526394.19946  -1159754.70362
 91  3 22 22 19 29.9990000  0  4G18G 2G11G19
  20440940.1444     325345.73548    253513.90663
  23089262.1904   -5117116.87446  -3987343.22961
  22856680.847    -3640463.523 6  -2836712.56221
  20585046.4874   -1542750.64046  -1172499.97362
 91  3 22 22 19 44.9990000  0  4G18G 2G11G19
  20442554.7374     333841.93448    260134.28063
  23078430.3864   -5174018.45546  -4031681.92361
  22849583.034    -3677762.783 6  -2865776.81521
  20581938.7764   -1559074.12546  -1185219.56862
 91  3 22 22 19 59.9990000  0  4G18G 2G11G19
  20444193.3624     342445.20848    266838.09163
  23067613.550    -5230871.852 6  -4075983.08221
  22842506.800    -3714948.615 6  -2894752.68221
  20578841.5264   -1575364.72946  -1197913.53962
 91  3 22 22 20 14.9990000  0  4G18G 2G11G19
  20445851.1514     351151.01248    273621.79362
  23056805.3784   -5287681.39146  -4120250.08061
  22835452.487    -3752025.237 6  -2923643.44621
  20575745.8314   -1591626.87146  -1210585.33162
 91  3 22 22 20 29.9990000  0  4G18G 2G11G19
  20447527.2534     359964.68048    280489.54762
  23046003.6204   -5344441.42346  -4164478.47461
  22828417.464    -3788986.863 6  -2952444.60821
  20572659.9254   -1607855.09046  -1223230.69662
 91  3 22 22 20 44.9990000  0  4G18G 2G11G19
  20449226.5344     368894.31648    287447.66762
  23035212.870    -5401143.889 6  -4208662.03221
  22821407.292    -3825825.248 6  -2981149.74321
  20569576.6834   -1624041.64846  -1235843.59862
 91  3 22 22 20 59.9990000  0  4G18G 2G11G19
  20450947.3554     377935.58048    294492.76562
  23024431.620    -5457792.863 5  -4252803.88821
  22814420.901    -3862544.282 6  -3009761.87321
  20566504.1364   -1640190.78246  -1248427.33562
 91  3 22 22 21 14.9990000  0  4G18G 2G11G19
  20452688.8234     387083.75848    301621.17662
  23013659.675    -5514392.693 5  -4296907.44621
  22807454.394    -3899148.080 6  -3038284.20621
  20563436.8314   -1656306.46746  -1260985.00762
 91  3 22 22 21 29.9990000  0  4G18G 2G11G19
  20454448.9254     396339.25948    308833.21362
  23002901.714    -5570942.825 6  -4340972.28621
  22800508.300    -3935635.960 6  -3066716.21721
  20560378.1284   -1672388.39746  -1273516.37862
 91  3 22 22 21 44.9990000  0  4G18G 2G11G19
  20456229.9174     405695.29248    316123.59463
  22992145.339    -5627449.777 6  -4385003.49121
  22793588.495    -3972014.334 6  -3095062.89721
  20557322.0584   -1688443.31646  -1286026.69962
 91  3 22 22 21 59.9990000  0  4G18G 2G11G19
  20458027.3784     415151.11848    323491.73362
  22981403.433    -5683914.084 6  -4429001.45921
  22786686.0654   -4008283.47046  -3123324.46861
  20554272.5974   -1704471.67446  -1298516.32862
 91  3 22 22 22 14.9990000  0  4G18G 2G11G19
  20459849.5734     424714.12648    330943.38963
  22970667.214    -5740328.366 6  -4472960.45221
  22779806.183    -4044435.991 6  -3151495.16121
  20551226.3624   -1720466.46146  -1310979.79262
 91  3 22 22 22 29.9990000  0  4G18G 2G11G19
  20461690.3864     434386.85348    338480.54062
  22959940.8004   -5796689.57846  -4516878.09061
  22772951.1204   -4080468.61846  -3179572.43261
  20548190.8084   -1736424.68746  -1323414.76862
 91  3 22 22 22 44.9990000  0  4G18G 2G11G19
  20463550.0584     444161.25348    346096.91662
  22949224.2764   -5853005.77246  -4560760.65461
  22766114.175    -4116389.199 6  -3207562.38921
  20545158.6054   -1752354.41046  -1335827.53662
 91  3 22 22 22 59.9990000  0  4G18G 2G11G19
  20465429.4644     454040.01248    353794.61662
  22938515.5584   -5909274.05646  -4604605.87761
  22759301.2144   -4152194.69446  -3235462.67661
  20542138.6834   -1768252.81146  -1348215.89662
 91  3 22 22 23 14.9990000  0  4G18G 2G11G19
  20467330.8154     464026.85548    361576.53262
  22927816.3864   -5965490.34446  -4648410.60961
  22752511.026    -4187880.818 6  -3263269.94521
  20539114.4564   -1784115.97346  -1360576.80362
 91  3 22 22 23 29.9990000  0  4G18G 2G11G19
  20469250.3474     474118.07048    369439.77762
  22917130.589    -6021658.398 6  -4692177.74621
  22745738.9724   -4223451.31846  -3290987.12361
  20536103.4564   -1799947.86346  -1372913.33763
 91  3 22 22 23 44.9990000  0  4G18G 2G11G19
  20471190.7304     484311.14848    377382.39562
  22906451.6054   -6077780.27346  -4735908.89961
  22738994.3784   -4258907.98646  -3318615.59461
  20533094.1444   -1815750.49246  -1385227.06962
 91  3 22 22 23 59.9990000  0  4G18G 2G11G19
  20473149.4174     494613.50348    385410.16462
  22895782.4404   -6133848.37146  -4779598.15161
  22732269.792    -4294243.100 6  -3346149.35321
  20530095.9724   -1831516.54646  -1397512.30762
 91  3 22 22 24 14.9990000  0  4G18G 2G11G19
  20475130.620      505017.998 8    393517.52123
  22885119.6124   -6189869.62446  -4823250.88661
  22725566.894    -4329463.555 6  -3373593.77521
  20527101.4874   -1847252.97146  -1409774.45062
 91  3 22 22 24 29.9990000  0  4G18G 2G11G19
  20477130.6754     515529.08948    401707.94463
  22874467.1054   -6245839.50846  -4866863.61461
  22718886.1514   -4364564.45846  -3400945.03361
  20524113.6904   -1862955.15646  -1422009.92062
 91  3 22 22 24 44.9990000  0  4G18G 2G11G19
  20479150.4724     526144.07948    409979.32363
  22863824.1674   -6301760.40146  -4910438.15861
  22712230.4094   -4399548.10146  -3428204.92361
  20521129.8624   -1878625.48146  -1434220.56262
 91  3 22 22 24 59.9990000  0  4G18G 2G11G19
  20481191.534      536863.735 8    418332.26223
  22853192.315    -6357631.417 6  -4953973.85121
  22705594.3154   -4434413.45546  -3455372.64161
  20518158.6204   -1894263.22446  -1446405.81262
 91  3 22 22 25 14.9990000  0  4G18G 2G11G19
  20483250.4644     547692.20348    426769.99163
  22842573.628    -6413447.931 6  -4997467.06421
  22698983.7374   -4469155.84546  -3482444.54261
  20515186.4174   -1909864.15146  -1458562.37662
 91  3 22 22 25 29.9990000  0  4G18G 2G11G19
  20485330.894      558619.070 8    435284.38822
  22831963.3474   -6469220.37546  -5040925.92361
  22692394.0814   -4503785.23446  -3509428.39561
  20512222.2764   -1925438.45746  -1470698.20162
 91  3 22 22 25 44.9990000  0  4G18G 2G11G19
  20487429.6444     569652.87048    443882.11162
  22821356.331    -6524939.904 6  -5084343.57221
  22685828.026    -4538292.884 6  -3536317.39221
  20509264.9954   -1940977.76446  -1482806.75162
 91  3 22 22 25 59.9990000  0  4G18G 2G11G19
  20489549.9954     580791.47748    452561.50063
  22810761.394    -6580608.640 6  -5127721.63521
  22679283.651    -4572680.543 6  -3563112.87921
  20506315.0344   -1956483.98846  -1494889.52462
 91  3 22 22 26 14.9990000  0  4G18G 2G11G19
  20491689.128      592030.154 8    461318.86523
  22800180.339    -6636230.552 6  -5171063.21921
  22672762.2924   -4606952.23946  -3589818.00861
  20503369.4804   -1971961.26146  -1506949.73862
 91  3 22 22 26 29.9990000  0  4G18G 2G11G19
  20493846.808      603367.604 8    470153.19622
  22789604.3004   -6691806.87846  -5214369.26961
  22666263.151    -4641109.076 6  -3616433.65421
  20500434.9484   -1987410.96846  -1518988.47062
 91  3 22 22 26 44.9990000  0  4G18G 2G11G19
  20496023.495      614805.145 8    479065.51823
  22779038.2844   -6747336.53146  -5257638.95061
  22659783.3474   -4675149.68546  -3642958.71561
  20497494.9874   -2002831.99446  -1531004.85362
 91  3 22 22 26 59.9990000  0  4G18G 2G11G19
  20498220.269      626352.010 8    488063.02923
  22768482.1364   -6802809.77446  -5300864.67161
  22653328.808    -4709064.263 6  -3669385.58721
  20494569.7694   -2018214.90546  -1542991.53762
 91  3 22 22 27 14.9990000  0  4G18G 2G11G19
  20500436.058      638000.986 8    497140.10623
  22757934.5974   -6858233.58046  -5344051.87561
  22646898.253    -4742859.708 6  -3695719.61921
  20491644.7064   -2033566.67046  -1554953.94762
 91  3 22 22 27 29.9990000  0  4G18G 2G11G19
  20502671.745      649747.441 8    506293.14523
  22747393.409    -6913612.424 6  -5387204.04221
  22640487.370    -4776540.223 6  -3721964.09321
  20488731.0654   -2048891.80246  -1566895.61262
 91  3 22 22 27 44.9990000  0  4G18G 2G11G19
  20504927.073      661596.558 8    515526.17723
  22736866.800    -6968940.932 6  -5430316.98721
  22634102.714    -4810100.182 6  -3748114.63921
  20485820.6054   -2064184.93646  -1578812.34062
 91  3 22 22 27 59.9990000  0  4G18G 2G11G19
  20507202.776      673549.741 8    524840.30723
  22726345.847    -7024217.377 6  -5473389.37121
  22627741.323    -4843537.756 6  -3774169.81921
  20482918.7454   -2079444.45046  -1590702.87162
 91  3 22 22 28 14.9990000  0  4G18G 2G11G19
  20509496.386      685609.894 8    534237.78023
  22715838.2534   -7079438.64046  -5516418.75961
  22621401.730    -4876849.909 6  -3800127.26321
  20480019.3624   -2094667.35146  -1602564.87262
 91  3 22 22 28 29.9980000  0  4G18G 2G11G19
  20511809.982      697766.691 8    543710.57023
  22705341.1234   -7134610.47246  -5559409.60861
  22615085.5064   -4910043.52546  -3825992.34161
  20477129.6314   -2109862.04146  -1614404.89562
 91  3 22 22 28 44.9980000  0  4G18G 2G11G19
  20514143.928      710027.673 8    553264.53523
  22694849.256    -7189734.171 6  -5602362.97221
  22608790.818    -4943116.937 6  -3851763.75221
  20474241.8574   -2125024.72846  -1626219.97162
 91  3 22 22 28 59.9980000  0  4G18G 2G11G19
  20516496.092      722393.129 8    562899.90823
  22684370.147    -7244804.685 6  -5645274.89321
  22602520.475    -4976066.380 6  -3877438.56021
  20471367.8814   -2140153.04546  -1638008.27562
 91  3 22 22 29 14.9980000  0  4G18G 2G11G19
  20518868.100      734857.812 8    572612.60323
  22673902.006    -7299826.800 6  -5688149.09921
  22596274.7404   -5008896.50146  -3903020.39061
  20468490.4204   -2155251.79546  -1649773.53062
 91  3 22 22 29 29.9980000  0  4G18G 2G11G19
  20521259.201      747422.878 8    582403.51423
  22663439.4824   -7354799.24746  -5730984.61461
  22590050.264    -5041605.818 6  -3928508.09521
  20465623.2324   -2170319.84446  -1661514.86962
 91  3 22 22 29 44.9980000  0  4G18G 2G11G19
  20523670.662      760088.253 8    592272.58923
  22652986.662    -7409722.013 6  -5773781.39821
  22583848.295    -5074194.170 6  -3953901.53221
  20462761.0764   -2185357.16746  -1673232.25962
 91  3 22 22 29 59.9980000  0  4G18G 2G11G19
  20526097.420      772850.882 8    602217.45323
  22642545.193    -7464598.028 6  -5816541.77321
  22577671.897    -5106664.442 6  -3979202.96421
  20459907.1314   -2200366.94146  -1684928.19162
 91  3 22 22 30 14.9980000  0  4G18G 2G11G19
  20528545.881      785711.941 8    612239.00723
  22632112.1474   -7519425.59346  -5859264.37561
  22571514.279    -5139014.631 6  -4004410.83221
  20457054.8264   -2215347.41446  -1696601.28862
 91  3 22 22 30 29.9980000  0  4G18G 2G11G19
  20531012.857      798676.863 8    622341.49723
  22621689.115    -7574198.843 6  -5901944.67221
  22565381.529    -5171238.824 6  -4029520.51221
  20454211.7724   -2230292.75146  -1708247.00462
 91  3 22 22 30 44.9980000  0  4G18G 2G11G19
  20533499.529      811741.333 8    632521.55523
  22611275.678    -7628922.336 6  -5944586.19021
  22559272.975    -5203341.643 6  -4054535.61321
  20451371.5454   -2245207.66946  -1719869.01462
 91  3 22 22 30 59.9980000  0  4G18G 2G11G19
  20536003.936      824908.040 8    642781.27723
  22600872.787    -7683592.730 6  -5987186.32921
  22553187.373    -5235319.439 6  -4079453.29721
  20448543.6864   -2260088.97246  -1731464.83862
 91  3 22 22 31 14.9980000  0  4G18G 2G11G19
  20538528.615      838173.081 8    653117.62723
  22590478.850    -7738213.872 6  -6029748.09121
  22547124.748    -5267176.032 6  -4104276.53621
  20445713.2484   -2274940.70446  -1743037.61262
 91  3 22 22 31 29.9980000  0  4G18G 2G11G19
  20541073.162      851538.789 8    663532.41723
  22580094.232    -7792783.125 6  -6072269.42621
  22541086.147    -5298908.635 6  -4129003.16521
  20442896.7094   -2289760.16346  -1754585.23962
 91  3 22 22 31 44.9980000  0  4G18G 2G11G19
  20543635.029      865003.505 8    674024.35323
  22569719.842    -7847301.981 6  -6114751.48921
  22535070.0454   -5330518.62946  -4153634.25061
  20440079.3504   -2304548.81246  -1766108.85962
 91  3 22 22 31 59.9980000  0  4G18G 2G11G19
  20546216.881      878572.314 8    684597.40023
  22559352.904    -7901765.199 6  -6157190.18821
  22529079.936    -5362000.459 6  -4178165.46821
  20437273.4204   -2319301.46346  -1777604.42562
 91  3 22 22 32 14.9980000  0  4G18G 2G11G19
  20548818.787      892239.312 8    695246.96223
  22548998.318    -7956178.634 6  -6199590.11221
  22523110.162    -5393359.986 6  -4202601.39121
  20434470.3814   -2334024.19646  -1789076.68062
 91  3 22 22 32 29.9980000  0  4G18G 2G11G19
  20551437.693      906004.200 8    705972.79823
  22538653.7404   -8010542.21546  -6241951.18561
  22517165.936    -5424597.074 6  -4226941.90121
  20431678.3114   -2348717.00846  -1800525.62162
 91  3 22 22 32 44.9980000  0  4G18G 2G11G19
  20554075.490      919872.060 8    716778.87123
  22528318.9204   -8064850.24746  -6284268.98261
  22511248.201    -5455705.679 6  -4251182.29921
  20428885.4204   -2363374.00646  -1811946.65462
 91  3 22 22 32 59.9980000  0  4G18G 2G11G19
  20556733.170      933838.077 8    727661.42823
  22517995.1394   -8119108.21046  -6326547.76261
  22505350.920    -5486691.243 6  -4275326.82021
  20426107.8034   -2378000.81146  -1823344.16062
 91  3 22 22 33 14.9980000  0  4G18G 2G11G19
  20559410.912      947905.217 8    738622.78323
  22507680.764    -8173311.861 6  -6368784.22621
  22499478.8574   -5517549.36646  -4299372.04361
  20423326.0924   -2392593.14246  -1834714.80962
 91  3 22 22 33 29.9980000  0  4G18G 2G11G19
  20562107.186      962072.257 8    749661.98323
  22497376.3814   -8227462.72846  -6410979.56461
  22493630.7874   -5548281.49046  -4323319.08661
  20420557.4904   -2407152.83346  -1846060.01862
 91  3 22 22 33 44.9980000  0  4G18G 2G11G19
  20564823.107      976338.183 8    760778.23823
  22487078.0684   -8281561.40346  -6453134.22161
  22487806.2174   -5578888.05346  -4347168.28461
  20417790.8114   -2421680.54946  -1857380.31062
 91  3 22 22 33 59.9980000  0  4G18G 2G11G19
  20567554.397      990702.609 8    771971.24623
  22476793.584    -8335608.272 6  -6495248.52821
  22482007.1934   -5609369.32646  -4370919.86161
  20415033.5454   -2436176.59146  -1868675.92662
 91  3 22 22 34 14.9980000  0  4G18G 2G11G19
  20570307.357     1005166.512 8    783241.76523
  22466519.1474   -8389602.27246  -6537321.62261
  22476230.3574   -5639724.16846  -4394572.91961
  20412279.0534   -2450640.03346  -1879946.13262
 91  3 22 22 34 29.9980000  0  4G18G 2G11G19
  20573078.186     1019729.098 8    794589.17723
  22456255.7564   -8443544.24246  -6579354.17361
  22470478.037    -5669953.248 6  -4418127.99321
  20409535.4364   -2465071.75346  -1891191.62262
 91  3 22 22 34 44.9980000  0  4G18G 2G11G19
  20575868.4594    1034388.80348    806012.27062
  22446001.9824   -8497434.45346  -6621346.39061
  22464750.4124   -5700056.77946  -4441585.22361
  20406793.3504   -2479472.13746  -1902412.69862
 91  3 22 22 34 59.9980000  0  4G18G 2G11G19
  20578678.162     1049151.946 8    817515.96122
  22435759.5294   -8551267.30346  -6663293.92261
  22459045.9904   -5730029.04246  -4464940.16861
  20404061.6234   -2493835.77846  -1913605.14262
 91  3 22 22 35 14.9980000  0  4G18G 2G11G19
  20581505.3574    1064020.75347    829101.98662
  22425523.7794   -8605039.64746  -6705194.30461
  22453369.1154   -5759866.81246  -4488190.32261
  20401335.7174   -2508159.57946  -1924766.53862
 91  3 22 22 35 29.9980000  0  4G18G 2G11G19
  20584357.4594    1078999.40248    840773.60262
  22415303.3184   -8658747.50746  -6747044.43961
  22447716.2954   -5789565.95146  -4511332.44361
  20398621.2094   -2522439.33546  -1935893.62462
 91  3 22 22 35 44.9980000  0  4G18G 2G11G19
  20587227.0374    1094075.99148    852521.53662
  22405094.2724   -8712402.01646  -6788853.00261
  22442088.7954   -5819137.58446  -4534375.21561
  20395906.1314   -2536686.54146  -1946995.34162
 91  3 22 22 35 59.9980000  0  4G18G 2G11G19
  20590116.3034    1109255.35948    864349.55362
  22394894.5224   -8765998.45546  -6830616.31561
  22436486.8734   -5848576.76646  -4557314.77461
  20393203.2254   -2550896.39446  -1958067.95262
 91  3 22 22 36 14.9980000  0  4G18G 2G11G19
  20593022.2324    1124539.11747    876258.91662
  22384705.857    -8819535.090 6  -6872333.03821
  22430910.1704   -5877881.54746  -4580149.60861
  20390504.3114   -2565067.09746  -1969110.05762
 91  3 22 22 36 29.9980000  0  4G18G 2G11G19
  20595949.326     1139925.553 7    888248.29022
  22374528.7484   -8873013.35646  -6914004.27261
  22425357.7094   -5907053.28446  -4602880.77161
  20387817.3264   -2579200.08346  -1980122.77062
 91  3 22 22 36 44.9980000  0  4G18G 2G11G19
  20598897.8264    1155408.66747    900312.99862
  22364364.3814   -8926438.93146  -6955634.46261
  22419834.115    -5936097.608 6  -4625512.66121
  20385132.3504   -2593301.23246  -1991110.68062
 91  3 22 22 36 59.9980000  0  4G18G 2G11G19
  20601861.7254    1170988.65847    912453.19462
  22354206.1234   -8979811.32746  -6997223.21061
  22414329.0144   -5965013.84846  -4648044.73361
  20382455.5294   -2607370.05546  -2002073.40162
 91  3 22 22 37 14.9980000  0  4G18G 2G11G19
  20604847.5684    1186666.51948    924669.64862
  22344061.178    -9033129.614 6  -7038769.79021
  22408849.154    -5993801.040 6  -4670476.25921
  20379784.9594   -2621405.61246  -2013010.20262
 91  3 22 22 37 29.9980000  0  4G18G 2G11G19
  20607848.5924    1202442.23547    936962.35662
  22333924.897    -9086393.088 6  -7080273.65321
  22403396.4434   -6022458.36046  -4692806.58061
  20377122.4284   -2635407.32546  -2023920.62462
 91  3 22 22 37 44.9980000  0  4G18G 2G11G19
  20610870.4364    1218316.59248    949331.92362
  22323799.459    -9139600.885 6  -7121734.14121
  22397969.8424   -6050984.87546  -4715034.97361
  20374461.8504   -2649374.57246  -2034804.18962
 91  3 22 22 37 59.9980000  0  5G18G 2G11G19G16
  20613910.5294    1234297.33948    961784.39062
  22313684.272    -9192745.311 6  -7163145.23921
  22392567.584    -6079372.843 6  -4737155.41621
  20371810.1314   -2663299.61446  -2045654.87562
  23723269.4284         -0.19053
 91  3 22 22 38 14.9980000  0  5G18G 2G11G19G16
  20616968.9514    1250376.92148    974313.87862
  22303584.1544   -9245833.34946  -7204512.40461
  22387189.2014   -6107628.94046  -4759173.09361
  20369169.9594   -2677189.30846  -2056478.01962
  23717029.4364     -32768.27643
 91  3 22 22 38 29.9980000  0  5G18G 2G11G19G16
  20620049.4124    1266556.36548    986921.17862
  22293491.982    -9298863.642 6  -7245834.56121
  22381839.295    -6135751.779 6  -4781086.94321
  20366533.5684   -2691042.38246  -2067272.62562
  23710820.5924     -65415.88343
 91  3 22 22 38 44.9980000  0  5G18G 2G11G19G16
  20623147.8344    1282836.82148    999607.19262
  22283410.865    -9351835.176 6  -7287110.94221
  22376511.240    -6163740.304 6  -4802896.13821
  20363903.3264   -2704857.94446  -2078038.00062
  23704632.2564     -97942.22943
 91  3 22 22 38 59.9980000  0  5G18G 2G11G19G16
  20626265.561     1299218.446 8   1012372.03423
  22273346.037    -9404747.645 6  -7328341.30221
  22371210.670    -6191594.066 6  -4824600.31121
  20361285.4514   -2718635.79646  -2088773.99762
  23698470.6154    -130346.99043
 91  3 22 22 39 14.9980000  0  5G18G 2G11G19G16
  20629400.3894    1315695.57648   1025211.29663
  22263285.256    -9457606.263 6  -7369529.70321
  22365936.436    -6219318.225 6  -4846203.49821
  20358667.5924   -2732381.24746  -2099484.73762
  23692313.9434    -162635.14142
 91  3 22 22 39 29.9980000  0  5G18G 2G11G19G16
  20632554.1314    1332271.94848   1038127.89563
  22253234.982    -9510406.605 6  -7410672.68321
  22360686.139    -6246908.255 6  -4867702.18121
  20356058.7404   -2746089.74246  -2110166.68962
  23686195.9674    -194802.50043        -0.08471
 91  3 22 22 39 44.9980000  0  5G18G 2G11G19G16
  20635729.2174    1348949.30048   1051123.17263
  22243199.178    -9563147.306 6  -7451769.20721
  22355461.053    -6274362.603 6  -4889095.13121
  20353455.3264   -2759759.87746  -2120818.74462
  23680097.600     -226847.497 3    -24970.18321
 91  3 22 22 39 59.9980000  0  5G18G 2G11G19G16
  20638921.6234    1365729.47748   1064198.57563
  22233176.475    -9615826.242 6  -7492817.58321
  22350264.404    -6301678.932 6  -4910380.52921
  20350863.9044   -2773389.46946  -2131439.21262
  23674026.772     -258768.112 4    -49843.35721
 91  3 22 22 40 14.9980000  0  5G18G 2G11G19G16
  20642132.7404    1382602.52048   1077346.34263
  22223160.498    -9668452.579 6  -7533824.98421
  22345087.826    -6328866.555 6  -4931565.64421
  20348274.7174   -2786987.98646  -2142035.46262
  23667976.475     -290573.561 4    -74626.82621
 91  3 22 22 40 29.9980000  0  5G18G 2G11G19G16
  20645362.0144    1399573.32148   1090570.28463
  22213156.240    -9721021.820 6  -7574787.88721
  22339940.748    -6355920.778 6  -4952646.80521
  20345696.8814   -2800551.03146  -2152604.06862
  23661950.631     -322259.207 4    -99316.94321
 91  3 22 22 40 44.9980000  0  5G18G 2G11G19G16
  20648610.5454    1416644.56348   1103872.49363
  22203165.209    -9773530.898 6  -7615703.90721
  22334818.5374   -6382838.38946  -4973621.51661
  20343120.8654   -2814075.52546  -2163142.64362
  23655938.639     -353822.093 4   -123911.34721
 91  3 22 22 40 59.9980000  0  5G18G 2G11G19G16
  20651877.1394    1433806.93148   1117245.70563
  22193182.326    -9825988.784 6  -7656580.04921
  22329721.006    -6409628.369 6  -4994496.78021
  20340555.1234   -2827570.32846  -2173658.08162
  23649959.545     -385271.278 4   -148417.23521
 91  3 22 22 41 14.9980000  0  5G18G 2G11G19G16
  20655160.8264    1451067.04148   1130695.08263
  22183211.4674   -9878388.59046  -7697410.91161
  22324647.9284   -6436283.73446  -5015267.15661
  20337990.2874   -2841028.68746  -2184145.11562
  23643993.982     -416599.775 4   -172828.99621
 91  3 22 22 41 29.9980000  0  5G18G 2G11G19G16
  20658462.7254    1468421.72648   1144218.15463
  22173249.295    -9930733.161 6  -7738198.75321
  22319600.436    -6462807.225 6  -5035934.75821
  20335441.2324   -2854453.43646  -2194605.96162
  23638053.9434    -447810.32844   -197148.88861
 91  3 22 22 41 44.9980000  0  5G18G 2G11G19G16
  20661785.3034    1485873.58048   1157816.93863
  22163299.576    -9983019.910 6  -7778941.53721
  22314579.701    -6489196.042 6  -5056497.42621
  20332889.6864   -2867842.17446  -2205038.74462
  23632142.7174    -478900.67345   -221375.13361
 91  3 22 22 41 59.9980000  0  5G18G 2G11G19G16
  20665124.0534    1503429.71748   1171496.98063
  22153363.357   -10035241.131 6  -7819633.25821
  22309586.482    -6515442.424 6  -5076949.11121
  20330351.2724   -2881187.18746  -2215437.46062
  23626247.029     -509862.828 5   -245501.46421
 91  3 22 22 42 14.9980000  0  5G18G 2G11G19G16
  20668483.0844    1521076.55448   1185247.70263
  22143436.100   -10087410.425 6  -7860284.51221
  22304616.1074   -6541559.85646  -5097300.31761
  20327815.6474   -2894501.99746  -2225812.63562
  23620376.2324    -540710.22545   -269538.40161
 91  3 22 22 42 29.9980000  0  5G18G 2G11G19G16
  20671860.5064    1538822.33248   1199075.51463
  22133518.568   -10139519.136 6  -7900888.56321
  22299671.264    -6567539.690 6  -5117544.30221
  20325292.1784   -2907778.02246  -2236157.59462
  23614533.9984    -571434.53745   -293479.39861
 91  3 22 22 42 44.9980000  0  5G18G 2G11G19G16
  20675255.0764    1556670.59048   1212983.18162
  22123614.725   -10191563.412 6  -7941442.40921
  22294754.240    -6593378.057 6  -5137678.04221
  20322771.9824   -2921011.39346  -2246469.31162
  23608707.5454    -602031.92445   -317321.52161
 91  3 22 22 42 59.9980000  0  5G18G 2G11G19G16
  20678670.967     1574608.590 8   1226960.76923
  22113721.9674  -10243555.79046  -7981955.83161
  22289861.7014   -6619087.40146  -5157711.27761
  20320260.006    -2934214.864 6  -2256757.73822
  23602904.4044    -632515.00645   -341074.60161
 91  3 22 22 43 14.9980000  0  5G18G 2G11G19G16
  20682102.6074    1592642.32847   1241012.91362
  22103837.123   -10295490.380 6  -8022424.28921
  22284995.7724   -6644661.67947  -5177639.30661
  20317753.0224   -2947382.36446  -2267018.18362
  23597130.2644    -662877.87645   -364734.07661
 91  3 22 22 43 29.9980000  0  5G18G 2G11G19G16
  20685553.264     1610776.686 7   1255143.44522
  22093968.2014  -10347361.92646  -8062843.62161
  22280155.631    -6670095.454 6  -5197457.87921
  20315258.4124   -2960508.66946  -2277246.53562
  23591375.7564    -693114.85745   -388295.54361
 91  3 22 22 43 44.9980000  0  5G18G 2G11G19G16
  20689021.256     1629005.217 7   1269347.16322
  22084109.412   -10399176.587 6  -8103218.90921
  22275341.7644   -6695394.85446  -5217172.00761
  20312764.826    -2973599.891 6  -2287447.72922
  23585643.6314    -723232.86345
 91  3 22 22 43 59.9980000  0  5G18G 2G11G19G16
  20692508.8734    1647326.94647
  22074258.561   -10450935.512 6
  22270553.631    -6720560.834 6
  20310282.975    -2986656.938 6
  23579935.1704    -753233.29445
 91  3 22 22 44 14.9980000  0  5G18G 2G11G19G16
  20696015.5454    1665744.20647
  22064421.443   -10502636.330 6
  22265794.787    -6745590.834 6
  20307804.068    -2999676.675 6
  23574253.5844    -783115.43745
 91  3 22 22 44 29.9980000  0  5G18G 2G11G19G16
  20699539.3114    1684253.80246
  22054597.592   -10554281.296 5
  22261056.998    -6770487.333 6
  20305335.584    -3012662.452 5
  23568595.1314    -812879.80144
 91  3 22 22 44 44.9980000  0  5G18G 2G11G19G16
  20703079.342     1702862.214 6
  22044783.287   -10605862.076 6
  22256346.857    -6795242.180 6
  20302871.256    -3025608.097 5
  23562953.3184    -842513.36044
 91  3 22 22 44 59.9980000  0  5G18G 2G11G19G16
  20706640.920     1721571.398 6
  22034978.467   -10657378.325 5
  22251662.2874   -6819854.49846
  20300417.451    -3038511.109 5
  23557341.5374    -872020.27844
 91  3 22 22 45 14.9980000  0  5G18G 2G11G19G16
  20710221.6624    1740380.03846        -0.43171
  22025185.428   -10708830.851 5
  22247005.0224   -6844325.13746
  20297967.4284   -3051372.53945
  23551748.5684    -901400.97744
 91  3 22 22 45 29.9980000  0  5G18G 2G11G19G16
  20713816.9594    1759283.05746     14728.90761
  22015406.834   -10760224.359 5
  22242375.4904   -6868658.56646
  20295529.951    -3064196.931 5        -0.33431
  23546180.3184    -930660.25944
 91  3 22 22 45 44.9980000  0  5G18G 2G11G19G16
  20717431.8814    1778280.05646     29531.71561
  22005638.686   -10811559.308 5
  22237771.4674   -6892855.40946
  20293093.7174   -3076985.09846     -9965.11261
  23540632.7874    -959798.29743
 91  3 22 22 45 59.9980000  0  5G18G 2G11G19G16
  20721065.1234    1797370.20546     44407.09261
  21995880.490   -10862835.633 6
  22233192.5144   -6916915.57546
  20290670.4124   -3089736.99746    -19901.66061
  23535114.9674    -988815.26244
 91  3 22 22 46 14.9980000  0  5G18G 2G11G19G16
  20724714.553     1816550.892 6     59353.02421
  21986133.951   -10914056.241 6
  22228638.592    -6940841.782 6        -0.30831
  20288246.3654   -3102455.27746    -29811.99661
  23529613.8344   -1017714.27244
 91  3 22 22 46 29.9980000  0  5G18G 2G11G19G16
  20728382.8424    1835822.42546     74369.80061
  21976397.7874  -10965220.62146        -0.17371
  22224112.936    -6964633.301 6    -18539.03121
  20285835.6074   -3115139.36246    -39695.63161
  23524140.3264   -1046494.81144
 91  3 22 22 46 44.9980000  0  5G18G 2G11G19G16
  20732069.061     1855187.289 7     89459.28921
  21966670.7094  -11016325.69346    -39822.08961
  22219609.670    -6988287.040 6    -36970.38621
  20283427.420    -3127786.201 6    -49550.26121
  23518686.7174   -1075153.90944
 91  3 22 22 46 59.9980000  0  5G18G 2G11G19G16
  20735771.959     1874646.695 7    104622.45121
  21956958.7644  -11067370.46946    -79597.02661
  22215136.4904   -7011802.06046    -55293.66661
  20281029.4674   -3140395.02746    -59375.27861
  23513250.7954   -1103690.25844
 91  3 22 22 47 14.9980000  0  5G18G 2G11G19G16
  20739492.436     1894200.123 7    119858.85221
  21947254.9044  -11118354.73546   -119324.83261
  22210688.147    -7035178.159 6    -73508.71221
  20278638.084    -3152965.730 6    -69170.59221
  23507847.1704   -1132103.93444
 91  3 22 22 47 29.9980000  0  5G18G 2G11G19G16
  20743232.193     1913850.864 7    135171.10021
  21937566.4124  -11169275.37546   -159003.03761
  22206265.600    -7058412.013 6    -91612.88321
  20276252.7094   -3165495.05446    -78933.65661
  23502464.1314   -1160391.58344
 91  3 22 22 47 44.9980000  0  5G18G 2G11G19G16
  20746987.7174    1933594.11247    150555.41661
  21927888.225   -11220136.606 6   -198634.96721
  22201871.295    -7081507.638 6   -109609.36821
  20273873.8654   -3177987.10846    -88667.69061
  23497102.1234   -1188557.75344
 91  3 22 22 47 59.9980000  0  5G18G 2G11G19G16
  20750762.451     1953429.916 7    166011.87021
  21918221.2724  -11270938.36246   -238220.54861
  22197502.717    -7104464.943 6   -127498.05921
  20271506.912    -3190442.184 6    -98372.90221
  23491763.8894   -1216602.18344
 91  3 22 22 48 14.9980000  0  5G18G 2G11G19G16
  20754555.232     1973358.242 7    181540.41821
  21908566.436   -11321679.902 6   -277759.19421
  22193159.443    -7127283.382 6   -145278.53021
  20269140.045    -3202859.450 6   -108048.64221
  23486454.0924   -1244524.43644
 91  3 22 22 48 29.9980000  0  5G18G 2G11G19G16
  20758366.240     1993381.641 7    197143.04421
  21898920.092   -11372359.186 6   -317249.34621
  22188846.2324   -7149960.59746   -162948.96761
  20266788.217    -3215236.539 6   -117693.07321
  23481159.1154   -1272322.20844
 91  3 22 22 48 44.9980000  0  5G18G 2G11G19G16
  20762194.506     2013501.621 7    212820.93421
  21889286.8654  -11422973.89846   -356689.17961
  22184556.779    -7172494.260 6   -180507.55421
  20264438.5064   -3227571.44246   -127304.64561
  23475893.9364   -1299993.20944
 91  3 22 22 48 59.9980000  0  6G18G 2G11G19G16G 6
  20766041.975     2033719.140 7    228574.81921
  21879669.623   -11473522.680 6   -396077.65121
  22180295.2564   -7194883.04246   -197953.24061
  20262102.193    -3239862.718 6   -136882.22521
  23470655.7484   -1327536.22944
  23731274.0764         -0.57754
 91  3 22 22 49 14.9980000  0  6G18G 2G11G19G16G 6
  20769906.326     2054025.120 7    244397.64221
  21870059.045   -11524014.817 6   -435421.97021
  22176061.459    -7217136.238 6   -215293.27221
  20259767.311    -3252119.715 6   -146433.07321
  23465437.279    -1354960.529 4
  23722234.8574     -47518.04244
 91  3 22 22 49 29.9980000  0  6G18G 2G11G19G16G 6
  20773788.061     2074417.871 7    260288.07821
  21860463.779   -11574451.688 6   -474723.23421
  22171851.6704   -7239255.12146   -232528.63661
  20257442.2174   -3264343.61546   -155958.15561
  23460242.0684   -1382267.70944
  23713190.6074     -95045.05845
 91  3 22 22 49 44.9980000  0  6G18G 2G11G19G16G 6
  20777685.4124    2094903.94147    276251.21061
  21850876.311   -11624826.393 6   -513976.04721
  22167670.022    -7261232.653 6   -249653.88521
  20255121.9364   -3276527.69646   -165452.21061
  23455068.529    -1409450.887 4        -0.25531
  23704142.8264    -142575.02444
 91  3 22 22 49 59.9980000  0  6G18G 2G11G19G16G 6
  20781601.0064    2115484.42947    292287.92361
  21841303.084   -11675138.207 6   -553179.89621
  22163513.717    -7283068.086 6   -266668.40821
  20252812.9754   -3288671.44446   -174914.84261
  23449919.357    -1436509.187 4    -21084.54021
  23695098.6784    -190107.28245
 91  3 22 22 50 14.9980000  0  6G18G 2G11G19G16G 6
  20785534.529     2136158.569 7    308397.60521
  21831741.1474  -11725386.48846   -592334.20561
  22159387.256    -7304760.527 6   -283571.49521
  20250509.5764   -3300774.06646   -184345.41561
  23444796.592    -1463442.153 4    -42071.13421
  23686054.5374    -237641.10845
 91  3 22 22 50 29.9980000  0  6G18G 2G11G19G16G 6
  20789486.8734    2156928.10447    324581.62961
  21822190.811   -11775569.931 6   -631437.99721
  22155285.654    -7326308.897 6   -300362.33021
  20248215.2564   -3312834.27046   -193742.94261
  23439692.131    -1490248.389 4    -62958.99621
  23677009.3814    -285175.38345
 91  3 22 22 50 44.9980000  0  6G18G 2G11G19G16G 6
  20793457.4754    2177789.52847    340837.25361
  21812654.936   -11825691.769 6   -670493.79921
  22151213.084    -7347716.343 6   -317043.34921
  20245925.498    -3324855.332 6   -203109.95921
  23434620.9594   -1516931.21444    -83750.64961
  23667961.779     -332713.644 4
 91  3 22 22 50 59.9980000  0  6G18G 2G11G19G16G 6
  20797444.6784    2198737.58647    357160.38661
  21803125.4514  -11875756.51546   -709505.09161
  22147163.420    -7368987.231 6   -333617.96021
  20243647.7874   -3336841.60846   -212449.87461
  23429557.717    -1543495.504 4   -104449.94021
  23658915.959     -380260.387 4
 91  3 22 22 51 14.9980000  0  6G18G 2G11G19G16G 6
  20801445.9434    2219778.02747    373555.49961
  21793608.881   -11925758.844 6   -748467.75621
  22143143.670    -7390116.234 7   -350082.00721
  20241373.1074   -3348787.74546   -221758.51461
  23424529.857    -1569935.568 4   -125052.47821
  23649863.162     -427810.373 4        -0.38131
 91  3 22 22 51 29.9980000  0  6G18G 2G11G19G16G 6
  20805471.1004    2240918.53047    390028.58961
  21784108.4434  -11975690.39346   -787375.27061
  22139151.232    -7411094.914 7   -366428.92821
  20239113.7644   -3360685.40046   -231029.37962
  23419523.3574   -1596242.95844   -145551.58661
  23640811.209     -475355.305 3    -37048.05221
 91  3 22 22 51 44.9980000  0  6G18G 2G11G19G16G 6
  20809511.2174    2262147.13247    406570.31661
  21774617.6934  -12025562.83046   -826236.73261
  22135186.1784   -7431934.92047   -382667.79961
  20236851.0924   -3372546.26546   -240271.57762
  23414539.154    -1622429.756 4   -165956.79021
  23631767.990     -522907.016 3    -74101.00721
 91  3 22 22 51 59.9980000  0  6G18G 2G11G19G16G 6
  20813566.4674    2283467.76447    423183.75761
  21765141.9204  -12075372.17046   -865049.02261
  22131246.8574   -7452632.41246   -398795.61761
  20234603.4044   -3384366.55646   -249482.16462
  23409581.3424   -1648491.98244   -186264.89361
  23622718.1934    -570461.84443   -111156.43861
 91  3 22 22 52 14.9980000  0  6G18G 2G11G19G16G 6
  20817642.1934    2304879.92947    439868.52361
  21755672.9984  -12125118.38246   -903812.11861
  22127336.9514   -7473187.17246   -414812.22261
  20232360.3574   -3396146.16446   -258661.04062
  23404641.7174   -1674429.57044   -206475.88761
  23613677.6864    -618019.79843   -148214.34861
 91  3 22 22 52 29.9980000  0  6G18G 2G11G19G16G 6
  20821734.3344    2326384.23647    456625.08361
  21746218.264   -12174800.753 6   -942525.48121
  22123450.4124   -7493598.39146   -430716.98261
  20230128.162    -3407884.271 6   -267807.59322
  23399734.248    -1700241.777 4   -226589.21721
  23604620.5454    -665580.18943   -185274.11261
 91  3 22 22 52 44.9980000  0  6G18G 2G11G19G16G 6
  20825840.897     2347976.720 7    473450.34921
  21736775.467   -12224423.530 6   -981192.40121
  22119596.045    -7513870.148 7   -446513.06921
  20227898.9514   -3419584.99446   -276925.01062
  23394840.654    -1725932.978 4   -246608.20921
  23595561.678     -713147.298 3   -222339.13321
 91  3 22 22 52 59.9980000  0  6G18G 2G11G19G16G 6
  20829969.4984    2369658.62247    490345.29561
  21727344.8034  -12273984.60846  -1019811.25561
  22115763.631    -7534000.433 7   -462198.91921
  20225685.0064   -3431246.50546   -286011.87962
  23389978.326    -1751501.113 5   -266531.35421
  23586511.5144    -760719.17043   -259407.84561
 91  3 22 22 53 14.9970000  0  6G18G 2G11G19G16G 6
  20834110.860     2391429.176 7    507309.32122
  21717923.189   -12323479.783 6  -1058378.75221
  22111960.564    -7553986.878 7   -477772.68021
  20223468.064    -3442866.946 6   -295066.73722
  23385133.657    -1776943.753 5   -286356.70621
  23577455.220     -808291.885 3   -296477.27121
 91  3 22 22 53 29.9970000  0  6G18G 2G11G19G16G 6
  20838271.829     2413293.270 7    524346.22822
  21708517.845   -12372913.222 6  -1096898.15021
  22108184.478    -7573829.835 7   -493234.64921
  20221267.3764   -3454445.46146   -304088.93362
  23380321.446    -1802261.585 5   -306084.78321
  23568403.4394    -855869.53544   -333550.49261
 91  3 22 22 53 44.9970000  0  6G18G 2G11G19G16G 6
  20842450.1964    2435246.00547    541452.22862
  21699123.149   -12422285.192 6  -1135369.64221
  22104433.360    -7593531.385 7   -508586.41821
  20219070.3454   -3465984.83346   -313080.61862
  23375525.251    -1827456.611 5   -325717.18421
  23559349.2594    -903452.54044   -370627.92061
 91  3 22 22 53 59.9970000  0  6G18G 2G11G19G16G 6
  20846646.5014    2457290.08447    558629.38762
  21689740.040   -12471592.317 6  -1173790.61521
  22100713.1424   -7613088.09646   -523825.32361
  20216885.4314   -3477481.68346   -322039.17462
  23370751.3924   -1852525.44745   -345251.24861
  23550293.290     -951037.557 5   -407706.88321
 91  3 22 22 54 14.9970000  0  6G18G 2G11G19G16G 6
  20850857.5954    2479423.78947    575876.38962
  21680368.735   -12520836.488 6  -1212162.52521
  22097019.376    -7632501.765 7   -538952.78221
  20214700.657    -3488937.872 6   -330966.04322
  23366006.5014   -1877470.16945   -364688.62261
  23541236.8534    -998626.52944   -444788.95861
 91  3 22 22 54 29.9970000  0  6G18G 2G11G19G16G 6
  20855086.579     2501651.283 7    593196.47422
  21671009.767   -12570013.554 6  -1250482.15021
  22093351.665    -7651768.253 7   -553965.54421
  20212531.4934   -3500349.37346   -339858.09562
  23361280.5324   -1902286.59245   -384025.99261
  23532182.1574   -1046215.49845   -481871.04161
 91  3 22 22 54 44.9970000  0  6G18G 2G11G19G16G 6
  20859333.017     2523966.513 7    610584.92022
  21661664.079   -12619128.653 6  -1288753.48621
  22089712.8844   -7670892.96447   -568867.83361
  20210366.337    -3511721.417 6   -348719.39822
  23356579.4784   -1926980.35745   -403267.82461
  23523126.189    -1093809.908 5   -518957.33221
 91  3 22 22 54 59.9970000  0  6G18G 2G11G19G16G 6
  20863597.235     2546370.515 7    628042.54122
  21652330.3924  -12668180.71946  -1326975.72061
  22086100.743    -7689874.618 6   -583658.65521
  20208211.798    -3523052.898 6   -357549.09922
  23351905.1734   -1951550.24745   -422413.11361
  23514067.345    -1141408.718 4   -556047.09121
 91  3 22 22 55 14.9970000  0  6G18G 2G11G19G16G 6
  20867875.915     2568864.135 7    645569.99022
  21643008.649   -12717168.831 6  -1365148.10921
  22082517.915    -7708712.137 6   -598337.16721
  20206061.0174   -3534342.45746   -366346.12362
  23347254.3604   -1975995.13345   -441461.01461
  23505008.7434   -1189011.02744   -593139.56061
 91  3 22 22 55 29.9970000  0  6G18G 2G11G19G16G 6
  20872175.2824    2591443.81347    663164.50962
  21633697.267   -12766095.652 6  -1403272.73221
  22078958.954    -7727408.009 6   -612905.29621
  20203921.9314   -3545592.81146   -375112.59962
  23342628.0484   -2000317.79345   -460413.64661
  23495945.6734   -1236619.42644   -630236.77961
 91  3 22 22 55 44.9970000  0  6G18G 2G11G19G16G 6
  20876487.2514    2614110.49447    680826.81262
  21624398.251   -12814960.692 6  -1441349.22021
  22075428.165    -7745961.845 6   -627362.74821
  20201787.5874   -3556803.64746   -383848.28262
  23338025.3454   -2024517.77045   -479270.69061
  23486887.8374   -1284233.63544   -667338.51061
 91  3 22 22 55 59.9970000  0  6G18G 2G11G19G16G 6
  20880817.267     2636866.901 7    698559.03322
  21615112.6104  -12863760.76646  -1479375.08861
  22071924.384    -7764370.468 6   -641707.04921
  20199664.0244   -3567971.86046   -392550.75962
  23333440.0564   -2048592.06745   -498029.84361
  23477829.931    -1331850.534 4   -704442.37521
 91  3 22 22 56 14.9970000  0  6G18G 2G11G19G16G 6
  20885165.993     2659712.648 7    716360.86822
  21605836.274   -12912495.977 6  -1517350.40921
  22068447.939    -7782634.089 6   -655938.36021
  20197544.517    -3579097.521 6   -401220.08522
  23328887.743    -2072540.581 5   -516690.93221
  23468766.720    -1379470.466 4   -741548.56321
 91  3 22 22 56 29.9970000  0  6G18G 2G11G19G16G 6
  20889528.5794    2682640.71547    734226.85462
  21596574.0714  -12961173.09846  -1555280.47661
  22064998.1814   -7800759.44646   -670061.92861
  20195437.9934   -3590187.33346   -409861.46162
  23324352.4074   -2096370.59345   -535259.73061
  23459703.298    -1427100.393 4   -778662.54321
 91  3 22 22 56 44.9970000  0  6G18G 2G11G19G16G 6
  20893908.923     2705664.043 7    752167.06822
  21587326.493   -13009778.878 6  -1593154.93621
  22061577.845    -7818733.247 6   -684067.41121
  20193333.2514   -3601228.17746   -418464.68562
  23319837.368    -2120068.810 5   -553725.80821
  23450638.1894   -1474727.11044   -815774.03861
 91  3 22 22 56 59.9970000  0  6G18G 2G11G19G16G 6
  20898309.337     2728778.168 8    770178.02022
  21578089.3604  -13058317.41746  -1630977.02361
  22058187.376    -7836559.477 6   -697957.90221
  20191242.509    -3612224.064 6   -427032.88222
  23315355.0874   -2143639.18145   -572092.27461
  23441575.2594   -1522354.75544   -852886.28061
 91  3 22 22 57 14.9970000  0  6G18G 2G11G19G16G 6
  20902723.751     2751981.153 7    788258.21822
  21568864.993   -13106790.508 6  -1668748.09221
  22054825.220    -7854239.869 6   -711734.75121
  20189157.196    -3623176.597 6   -435567.29622
  23310891.290    -2167083.269 5   -590360.34021
  23432513.931    -1569984.993 4   -890000.52621
 91  3 22 22 57 29.9970000  0  6G18G 2G11G19G16G 6
  20907155.392     2775272.258 7    806407.07822
  21559652.407   -13155198.739 6  -1706468.62521
  22051484.595    -7871774.852 6   -725398.29021
  20187082.3294   -3634086.26446   -444068.30662
  23306454.0874   -2190401.89345   -608530.61961
  23423446.196    -1617618.577 4   -927117.39621
 91  3 22 22 57 44.9970000  0  6G18G 2G11G19G16G 6
  20911605.329     2798655.730 7    824627.92322
  21550454.290   -13203537.249 6  -1744134.84121
  22048177.181    -7889159.870 6   -738944.97621
  20185015.6654   -3644948.45946   -452532.31762
  23302041.3994   -2213590.67445   -626599.75661
  23414381.5324   -1665250.99744   -964233.33761
 91  3 22 22 57 59.9970000  0  6G18G 2G11G19G16G 6
  20916073.446     2822130.748 7    842920.09822
  21541268.571   -13251806.796 6  -1781747.30921
  22044896.814    -7906395.565 6   -752375.30321
  20182960.5404   -3655763.90246   -460959.89662
  23297656.204    -2236650.345 5   -644568.26321
  23405316.9464   -1712882.92744  -1001348.86361
 91  3 22 22 58 14.9970000  0  6G18G 2G11G19G16G 6
  20920556.517     2845698.115 7    861284.23922
  21532096.735   -13300006.707 6  -1819305.52121
  22041646.485    -7923481.254 6   -765688.73721
  20180906.8214   -3666531.85846   -469350.47762
  23293294.056    -2259580.065 5   -662435.52521
  23396252.7824   -1760513.88044  -1038463.66361
 91  3 22 22 58 29.9970000  0  6G18G 2G11G19G16G 6
  20925059.149     2869355.118 7    879718.22422
  21522936.368   -13348138.977 6  -1856811.02321
  22038422.829    -7940418.958 7   -778886.86821
  20178867.9074   -3677254.29546   -477705.58562
  23288953.728    -2282381.801 5   -680203.04021
  23387189.9154   -1808145.98644  -1075579.38161
 91  3 22 22 58 44.9970000  0  6G18G 2G11G19G16G 6
  20929578.181     2893104.018 7    898223.81022
  21513790.931   -13396200.948 6  -1894261.74521
  22035229.907    -7957205.953 7   -791967.56521
  20176835.4464   -3687928.48146   -486023.09462
  23284636.5484   -2305053.27645   -697869.06561
  23378123.884    -1855776.475 3  -1112693.84021
 91  3 22 22 58 59.9970000  0  6G18G 2G11G19G16G 6
  20934113.579     2916943.193 7    916799.74222
  21504657.353   -13444194.445 6  -1931659.11321
  22032061.5644   -7973843.97147   -804932.16661
  20174814.0644   -3698556.12246   -494304.34062
  23280347.923    -2327596.163 5   -715434.85121
  23369062.1104   -1903407.26044  -1149808.53961
 91  3 22 22 59 14.9970000  0  6G18G 2G11G19G16G 6
  20938667.087     2940878.374 7    935450.48322
  21495536.134   -13492113.088 6  -1968998.15221
  22028924.7124   -7990326.62847   -817775.71061
  20172801.8064   -3709130.85146   -502544.34862
  23276082.782    -2350004.355 5   -732895.73221
  23359998.439    -1951032.132 3  -1186918.65221
 91  3 22 22 59 29.9970000  0  6G18G 2G11G19G16G 6
  20943240.860     2964906.949 7    954174.01021
  21486436.0794  -13539959.20946  -2006280.69161
  22025817.9544   -8006656.49547   -830500.18661
  20170799.4464   -3719654.98946   -510744.93962
  23271846.095    -2372280.234 5   -750253.49121
  23350939.0014   -1998653.55544  -1224025.99361
 91  3 22 22 59 44.9970000  0  6G18G 2G11G19G16G 6
  20947833.3684    2989028.36047    972969.87261
  21477345.7354  -13587733.46346  -2043507.22761
  22022740.642    -8022834.132 7   -843106.05921
  20168802.9074   -3730129.47946   -518906.84062
  23267630.4154   -2394424.58344   -767508.75361
  23341876.353    -2046272.266 4  -1261131.27821
 91  3 22 22 59 59.9970000  0  6G18G 2G11G19G16G 6
  20952439.243     3013237.447 7    991834.04421
  21468264.5244  -13635440.62046
  22019688.189    -8038864.128 7   -855596.88321
  20166822.4624   -3740558.70746   -527033.47362
  23263441.5094   -2416442.03244   -784665.11961
  23332811.587    -2093893.076 4
 91  3 22 23  0 14.9970000  0  6G18G 2G11G19G16G 6
  20957063.212     3037535.183 7   1010767.30021
  21459199.2674  -13683079.62046
  22016666.907    -8054745.483 7   -867971.88421
  20164843.0404   -3750941.58246   -535123.99062
  23259273.634    -2438331.616 5   -801721.84421
  23323754.446    -2141514.997 4
 91  3 22 23  0 29.9970000  0  6G18G 2G11G19G16G 6
  20961702.954     3061919.803 7   1029768.25821
  21450146.0564  -13730651.71646
  22013671.939    -8070479.456 7   -880232.05021
  20162881.9854   -3761279.47546   -543179.45362
  23255135.4704   -2460094.60145   -818679.95161
  23314685.712    -2189139.358 5
 91  3 22 23  0 44.9970000  0  6G18G 2G11G19G16G 6
  20966360.337     3086396.006 7   1048840.57722
  21441106.892   -13778151.549 6  -2191884.36021
  22010706.462    -8086060.766 7   -892373.25321
  20160917.6894   -3771567.11346   -551195.76162
  23251016.5244   -2481725.91244   -835535.45161
  23305627.993    -2236761.024 5  -1409563.26121
 91  3 22 23  0 59.9970000  0  6G18G 2G11G19G16G 6
  20971035.306     3110962.825 7   1067983.50822
  21432081.196   -13825580.473 6  -2228841.82721
  22007771.1424   -8101490.52247   -904396.37361
  20158973.4854   -3781805.52646   -559173.70862
  23246926.306    -2503226.913 4   -852289.39621
  23296561.681    -2284381.260 5  -1446669.77421
 91  3 22 23  1 14.9970000  0  6G18G 2G11G19G16G 6
  20975725.595     3135615.203 7   1087193.10722
  21423067.118   -13872943.387 6  -2265747.85322
  22004865.1964   -8116773.59247   -916305.18961
  20157029.9544   -3791999.58946   -567117.09762
  23242864.6184   -2524602.18545   -868945.38461
  23287497.1264   -2332005.09645  -1483779.05061
 91  3 22 23  1 29.9970000  0  6G18G 2G11G19G16G 6
  20980435.751     3160352.329 7   1106468.74322
  21414068.587   -13920240.167 6  -2302602.34221
  22001984.0794   -8131909.96847   -928099.69961
  20155100.8294   -3802149.28346   -575025.91662
  23238812.2904   -2545852.29044   -885503.83761
  23278438.0244   -2379632.47545  -1520891.14061
 91  3 22 23  1 44.9970000  0  6G18G 2G11G19G16G 6
  20985157.845     3185177.531 7   1125813.00422
  21405080.978   -13967467.771 6  -2339402.93921
  21999130.0794   -8146896.63547   -939777.55761
  20153177.454    -3812251.478 6   -582897.72822
  23234801.126    -2566973.935 5   -901962.19321
  23269372.3214   -2427260.42845  -1558003.61861
 91  3 22 23  1 59.9970000  0  6G18G 2G11G19G16G 6
  20989901.095     3210091.467 7   1145226.40922
  21396106.454   -14014624.912 7  -2376148.62621
  21996307.689    -8161732.240 7   -951337.70321
  20151264.8844   -3822304.78146   -590731.44362
  23230804.579    -2587966.093 5   -918319.66621
  23260314.454    -2474887.674 5  -1595115.59121
 91  3 22 23  2 14.9970000  0  6G18G 2G11G19G16G 6
  20994658.040     3235095.677 7   1164710.15322
  21387145.189   -14061709.927 6  -2412838.10821
  21993513.7204   -8176415.23747   -962778.93861
  20149360.8764   -3832307.81946   -598525.98462
  23226829.353    -2608827.009 5   -934574.86921
  23251247.8064   -2522512.87645  -1632225.94561
 91  3 22 23  2 29.9970000  0  6G18G 2G11G19G16G 6
  20999433.009     3260187.065 7   1184261.83122
  21378201.689   -14108725.756 6  -2449473.67721
  21990747.9854   -8190948.62347   -974103.58761
  20147468.6184   -3842263.33146   -606283.49462
  23222889.384    -2629559.657 5   -950730.10721
  23242186.970    -2570138.803 5  -1669336.87521
 91  3 22 23  2 44.9970000  0  6G18G 2G11G19G16G 6
  21004224.595     3285369.268 7   1203884.27322
  21369265.5404  -14155668.50146  -2486052.29261
  21988010.5714   -8205328.38647   -985308.53561
  20145579.7434   -3852167.33846   -614000.87462
  23218967.3374   -2650160.26545   -966782.47161
  23233128.056    -2617761.679 5  -1706445.42321
 91  3 22 23  2 59.9970000  0  6G18G 2G11G19G16G 6
  21009032.556     3310644.563 7   1223579.26022
  21360347.8684  -14202535.50646  -2522571.89061
  21985304.7204   -8219551.77747   -996391.64061
  20143706.329    -3862017.122 6   -621676.00122
  23215073.0714   -2670626.24145   -982729.93061
  23224060.9624   -2665378.98345  -1743549.60961
 91  3 22 23  3 14.9970000  0  6G18G 2G11G19G16G 6
  21013860.579     3336009.414 7   1243344.02722
  21351444.681   -14249329.981 6  -2559034.97521
  21982627.0644   -8233622.29347  -1007355.61361
  20141841.462    -3871815.987 6   -629311.45222
  23211203.524    -2690960.789 5   -998575.00821
  23215000.4544   -2712993.91345  -1780651.97361
 91  3 22 23  3 29.9970000  0  6G18G 2G11G19G16G 6
  21018703.728     3361460.905 7   1263176.30422
  21342551.501   -14296054.396 6  -2595443.47121
  21979977.2984   -8247542.37947  -1018202.37961
  20139989.110    -3881566.304 6   -636909.07822
  23207358.4544   -2711166.66645  -1014319.80361
  23205938.9624   -2760609.15145  -1817754.57561
 91  3 22 23  3 44.9970000  0  6G18G 2G11G19G16G 6
  21023564.2984    3386997.46147   1283074.85962
  21333674.282   -14342710.351 6  -2631798.62421
  21977357.439    -8261313.570 7  -1028933.12521
  20138138.860    -3891269.626 6   -644470.08522
  23203537.9784   -2731245.70645  -1029965.75961
  23196878.1654   -2808226.49545  -1854858.81061
 91  3 22 23  3 59.9970000  0  6G18G 2G11G19G16G 6
  21028441.485     3412623.361 7   1303043.03722
  21324808.040   -14389293.130 6  -2668096.75221
  21974766.306    -8274931.135 7  -1039544.16221
  20136307.4704   -3900921.03546   -651990.63662
  23199740.032    -2751193.158 5  -1045509.19821
  23187818.548    -2855841.007 4  -1891960.87021
 91  3 22 23  4 14.9970000  0  6G18G 2G11G19G16G 6
  21033333.3454    3438338.01747   1323080.37262
  21315957.9624  -14435803.12346  -2704338.18461
  21972203.439    -8288395.579 7  -1050035.88621
  20134475.235    -3910520.900 6   -659471.02922
  23195972.2594   -2771009.22745  -1060950.23961
  23178755.6034   -2903453.36244  -1929061.22161
 91  3 22 23  4 29.9970000  0  6G18G 2G11G19G16G 6
  21038243.470     3464141.870 7   1343187.21222
  21307122.360   -14482240.050 7  -2740522.65822
  21969670.681    -8301706.339 7  -1060407.85421
  20132661.939    -3920068.921 6   -666911.02122
  23192222.157    -2790694.007 5  -1076288.98521
  23169695.4074   -2951062.98744  -1966159.44461
 91  3 22 23  4 44.9970000  0  6G18G 2G11G19G16G 6
  21043170.0794    3490030.44747   1363360.06962
  21298299.4624  -14528607.63447  -2776653.11962
  21967168.564    -8314867.280 7  -1070663.08221
  20130851.259    -3929569.087 6   -674313.72922
  23188502.4784   -2810251.33445  -1091528.40961
  23160631.134    -2998674.056 4  -2003258.79721
 91  3 22 23  4 59.9970000  0  6G18G 2G11G19G16G 6
  21048112.8604    3516003.60647   1383598.83262
  21289487.7824  -14574905.66546  -2812729.38362
  21964691.1034   -8327878.26647  -1080801.45561
  20129055.603    -3939020.978 6   -681678.82022
  23184805.1654   -2829680.89245  -1106668.31261
  23151576.157    -3046286.311 4  -2040359.07721
 91  3 22 23  5 14.9970000  0  6G18G 2G11G19G16G 6
  21053073.7354    3542066.90947   1403907.84062
  21280691.0014  -14621128.65046  -2848747.17462
  21962244.040    -8340733.763 7  -1090818.67421
  20127265.728    -3948418.974 6   -689001.91422
  23181134.478    -2848977.012 5  -1121704.20521
  23142518.118    -3093894.109 4  -2077455.86721
 91  3 22 23  5 29.9970000  0  6G18G 2G11G19G16G 6
  21058050.3764    3568221.45147   1424287.93662
  21271911.3764  -14667275.17847  -2884705.38362
  21959828.165    -8353432.506 7  -1100713.73921
  20125488.782    -3957762.020 6   -696282.19322
  23177488.9154   -2868139.01345  -1136635.60861
  23133460.368    -3141496.541 4  -2114548.50021
 91  3 22 23  5 44.9970000  0  6G18G 2G11G19G16G 6
  21063045.9464    3594469.11647   1444740.59862
  21263145.5874  -14713343.01547  -2920602.26962
  21957442.6344   -8365972.20247  -1110484.88561
  20123718.978    -3967047.659 6   -703517.73922
  23173865.501    -2887164.524 5  -1151460.63421
  23124405.470    -3189091.189 4  -2151635.05621
 91  3 22 23  5 59.9970000  0  6G18G 2G11G19G16G 6
  21068055.7354    3620797.82447   1465256.41162
  21254391.1104  -14759343.86446  -2956446.96862
  21955085.3924   -8378364.51046  -1120141.17761
  20121961.7124   -3976287.35646   -710717.48962
  23170270.048    -2906065.184 5  -1166188.37521
  23115342.439    -3236689.769 4  -2188724.67821
 91  3 22 23  6 14.9970000  0  6G18G 2G11G19G16G 6
  21073080.7594    3647210.19547   1485837.41862
  21245650.5484  -14805274.83146  -2992237.20562
  21952754.696    -8390606.699 6  -1129680.50121
  20120212.064    -3985478.150 6   -717879.13522
  23166699.345    -2924838.387 5  -1180816.81821
  23106287.767    -3284289.577 5  -2225815.24821
 91  3 22 23  6 29.9970000  0  6G18G 2G11G19G16G 6
  21078123.7824    3673711.75347   1506487.91462
  21236924.5484  -14851130.22246  -3027968.55562
  21950452.001    -8402692.990 6  -1139098.34521
  20118477.5014   -3994614.45046   -724998.31562
  23163146.634    -2943478.316 5  -1195341.43521
  23097225.954    -3331884.902 5  -2262902.32821
 91  3 22 23  6 44.9970000  0  6G18G 2G11G19G16G 6
  21083182.6894    3700299.46747   1527205.54962
  21228213.3764  -14896913.17746  -3063643.46762
  21948181.517    -8414626.636 6  -1148397.25221
  20116745.689    -4003699.310 6   -732077.41122
  23159626.6264   -2961988.34245  -1209764.82661
  23088170.048    -3379478.907 5  -2299988.37221
 91  3 22 23  6 59.9970000  0  6G18G 2G11G19G16G 6
  21088260.4074    3726974.65947   1547991.34862
  21219511.8924  -14942621.41346  -3099260.15562
  21945941.220    -8426405.343 6  -1157575.41021
  20115028.564    -4012730.278 6   -739114.50822
  23156129.4704   -2980366.35345  -1224085.29261
  23079113.962    -3427069.440 5  -2337071.74921
 91  3 22 23  7 14.9970000  0  6G18G 2G11G19G16G 6
  21093352.3294    3753734.29547   1568842.94662
  21210829.564   -14988258.093 6  -3134821.09221
  21943729.196    -8438032.282 6  -1166635.32021
  20113316.1894   -4021710.29046   -746111.91162
  23152656.048    -2998615.466 5  -1238305.37621
  23070057.4624   -3474659.68545  -2374154.84861
 91  3 22 23  7 29.9970000  0  6G18G 2G11G19G16G 6
  21098460.939     3780574.942 7   1589757.66122
  21202156.5954  -15033826.58646  -3170328.89061
  21941546.5014   -8449510.92047  -1175579.67561
  20111620.0324   -4030642.86546   -753072.35462
  23149208.189    -3016739.389 5  -1252427.85021
  23061000.376    -3522253.069 5  -2411240.43221
 91  3 22 23  7 44.9970000  0  6G18G 2G11G19G16G 6
  21103582.095     3807498.038 7   1610736.62422
  21193500.485   -15079324.580 7  -3205781.75721
  21939388.806    -8460838.963 7  -1184406.67321
  20109928.6734   -4039525.65146   -759993.99962
  23145787.626    -3034735.658 5  -1266450.92421
  23051942.149    -3569847.314 5  -2448326.70521
 91  3 22 23  7 59.9970000  0  6G18G 2G11G19G16G 6
  21108723.5484    3834506.39047   1631782.02362
  21184855.1424  -15124749.60747  -3241177.76061
  21937262.7674   -8472013.81247  -1193114.30861
  20108247.5324   -4048356.23046   -766874.96662
  23142384.0794   -3052601.81245  -1280372.57061
  23042889.2044   -3617440.19345  -2485411.87161
 91  3 22 23  8 14.9970000  0  6G18G 2G11G19G16G 6
  21113878.204     3861594.179 7   1652889.31222
  21176224.5954  -15170106.40947  -3276520.60061
  21935163.5794   -8483040.30847  -1201706.34461
  20106575.7824   -4057139.28746   -773718.90062
  23139006.4544   -3070342.79845  -1294196.72461
  23033832.814    -3665036.287 5  -2522499.56921
 91  3 22 23  8 29.9970000  0  6G18G 2G11G19G16G 6
  21119046.267     3888764.271 7   1674060.73422
  21167606.8294  -15215392.56047  -3311808.38861
  21933094.9624   -8493916.03247  -1210180.89561
  20104914.3924   -4065872.31046   -780523.84862
  23135653.899    -3087956.460 5  -1307921.65821
  23024774.3924   -3712633.25245  -2559587.95861
 91  3 22 23  8 44.9970000  0  6G18G 2G11G19G16G 6
  21124233.212     3916015.466 7   1695295.35222
  21159003.3994  -15260609.05947  -3347041.90261
  21931052.1494   -8504641.93746  -1218538.70961
  20103260.3214   -4074556.14146   -787290.46562
  23132333.2824   -3105443.67145  -1321548.02561
  23015711.657    -3760232.128 5  -2596677.82221
 91  3 22 23  8 59.9970000  0  6G18G 2G11G19G16G 6
  21129435.907     3943351.453 7   1716596.03722
  21150411.3534  -15305751.69947  -3382217.85961
  21929039.6734   -8515214.01846  -1226776.66361
  20101622.7514   -4083186.68346   -794015.56262
  23129027.0014   -3122800.42845  -1335072.75961
  23006656.6424   -3807828.88145  -2633766.03261
 91  3 22 23  9 14.9970000  0  6G18G 2G11G19G16G 6
  21134651.642     3970771.048 7   1737961.87122
  21141836.0094  -15350821.83847  -3417337.32761
  21927057.0954   -8525633.59347  -1234895.78161
  20099988.2204   -4091765.23646   -800700.13862
  23125747.009    -3140028.256 5  -1348497.04021
  22997597.7044   -3855424.76345  -2670853.56661
 91  3 22 23  9 29.9970000  0  6G18G 2G11G19G16G 6
  21139885.556     3998271.767 7   1759390.92422
  21133271.5484  -15395820.72847  -3452401.26761
  21925105.5014   -8535902.09746  -1242897.18661
  20098364.8764   -4100293.08846   -807345.21962
  23122494.6494   -3157128.56445  -1361821.94261
  22988539.720    -3903021.253 5  -2707941.59121
 91  3 22 23  9 44.9970000  0  6G18G 2G11G19G16G 6
  21145134.228     4025847.810 7   1780878.66622
  21124719.7044  -15440754.71147  -3487414.63761
  21923177.7284   -8546025.83846  -1250785.78961
  20096749.1964   -4108776.49246   -813955.66562
  23119260.3454   -3174107.85345  -1375052.55861
  22979480.9464   -3950624.81145  -2745035.12561
 91  3 22 23  9 59.9970000  0  6G18G 2G11G19G16G 6
  21150398.4074    4053505.01047   1802429.64262
  21116183.899   -15485617.261 7  -3522372.36121
  21921280.6894   -8555998.29646  -1258556.50761
  20095145.6574   -4117208.59346   -820526.13262
  23116054.9394   -3190959.45745  -1388183.67261
  22970427.993    -3998228.628 5  -2782128.85321
 91  3 22 23 10 14.9970000  0  6G18G 2G11G19G16G 6
  21155676.3684    4081240.97547   1824041.99462
  21107659.3214  -15530410.94247  -3557276.40561
  21919411.6344   -8565821.93646  -1266211.26861
  20093549.7434   -4125591.85246   -827058.54162
  23112871.5094   -3207686.16645  -1401217.47561
  22961366.829    -4045835.427 5  -2819224.92021
 91  3 22 23 10 29.9970000  0  6G18G 2G11G19G16G 6
  21160967.3064    4109052.56347   1845713.26762
  21099146.907   -15575138.749 6  -3592129.13521
  21917568.696    -8575499.935 6  -1273752.53821
  20091967.9314   -4133929.30246   -833555.25762
  23109711.2984   -3224290.75345  -1414156.11361
  22952302.345    -4093448.143 5  -2856325.58621
 91  3 22 23 10 44.9970000  0  6G18G 2G11G19G16G 6
  21166274.642     4136940.767 7   1867444.25022
  21090650.829   -15619798.718 6  -3626928.99922
  21915754.2354   -8585030.43646  -1281178.87761
  20090386.9624   -4142219.18246   -840014.90562
  23106578.064    -3240771.617 5  -1426998.32121
  22943244.3844   -4141065.12645  -2893429.57861
 91  3 22 23 10 59.9970000  0  6G18G 2G11G19G16G 6
  21171594.7354    4164908.43247   1889237.14761
  21082167.032   -15664387.918 6  -3661673.72322
  21913972.0484   -8594410.58746  -1288488.05461
  20088818.9074   -4150458.25046   -846434.95862
  23103461.665    -3257126.046 5  -1439742.03921
  22934180.9624   -4188683.39345  -2930534.55761
 91  3 22 23 11 14.9970000  0  6G18G 2G11G19G16G 6
  21176933.6654    4192951.05547   1911088.45062
  21073691.431   -15708910.564 6  -3696366.58722
  21912215.470    -8603644.572 6  -1295683.35321
  20087257.8844   -4158650.86546   -852818.81562
  23100374.8214   -3273358.35945  -1452390.57961
  22925120.751    -4236307.211 5  -2967643.91221
 91  3 22 23 11 29.9970000  0  6G18G 2G11G19G16G 6
  21182285.3604    4221075.79647   1933003.73761
  21065235.220   -15753359.839 6  -3731002.28022
  21910483.571    -8612725.555 6  -1302759.41721
  20085712.2984   -4166790.08546   -859161.06762
  23097308.9784   -3289461.86745  -1464938.79161
  22916057.4784   -4283929.94844  -3004752.39261
 91  3 22 23 11 44.9970000  0  6G18G 2G11G19G16G 6
  21187651.5794    4249275.77047   1954977.64861
  21056789.235   -15797741.775 6  -3765585.50022
  21908785.798    -8621659.778 6  -1309721.13121
  20084169.9544   -4174881.76646   -865466.27362
  23094269.1894   -3305442.70645  -1477391.36261
  22906995.3374   -4331557.42544  -3041864.55861
 91  3 22 23 11 59.9970000  0  6G18G 2G11G19G16G 6
  21193031.0014    4277552.79147   1977011.59761
  21048355.595   -15842054.192 6  -3800114.55322
  21907112.228    -8630445.009 6  -1316566.75521
  20082642.1184   -4182923.67146   -871732.69362
  23091250.6424   -3321298.61645  -1489746.62561
  22897931.282    -4379187.687 4  -3078978.93221
 91  3 22 23 12 14.9970000  0  6G18G 2G11G19G16G 6
  21198428.3214    4305904.94147   1999104.08561
  21039934.892   -15886299.345 6  -3834591.19022
  21905470.048    -8639083.437 6  -1323297.98021
  20081118.3374   -4190917.84846   -877961.92562
  23088260.399    -3337032.034 5  -1502006.43621
  22888863.142    -4426822.716 4  -3116096.98621
 91  3 22 23 12 29.9970000  0  6G18G 2G11G19G16G 6
  21203838.4934    4334335.88647   2021257.97461
  21031529.235   -15930472.652 6  -3869011.84822
  21903853.376    -8647570.685 6  -1329911.40021
  20079610.2354   -4198860.05746   -884150.66662
  23085292.314    -3352638.834 5  -1514167.58121
  22879797.009    -4474458.369 4  -3153215.53821
 91  3 22 23 12 44.9970000  0  6G18G 2G11G19G16G 6
  21209263.4234    4362844.65247   2043472.49661
  21023137.4154  -15974575.11746  -3903377.30962
  21902265.860    -8655907.780 6  -1336407.81421
  20078107.3294   -4206751.13746   -890299.55362
  23082343.3604   -3368119.83945  -1526230.68061
  22870736.4934   -4522095.53944  -3190335.28461
 91  3 22 23 12 59.9970000  0  6G18G 2G11G19G16G 6
  21214701.0094    4391424.86347   2065742.69261
  21014757.1964  -16018612.83547  -3937692.31162
  21900708.228    -8664100.777 6  -1342791.94721
  20076616.2984   -4214597.05746   -896413.26362
  23079418.2674   -3383481.16045  -1538200.55661
  22861669.478    -4569740.217 4  -3227460.86221
 91  3 22 23 13 14.9970000  0  6G18G 2G11G19G16G 6
  21220157.1264    4420079.64547   2088070.99961
  21006391.4934  -16062582.58347  -3971954.35062
  21899179.134    -8672146.579 6  -1349061.38921
  20075127.4464   -4222394.28246   -902489.02862
  23076519.8374   -3398719.73845  -1550074.76161
  22852599.626    -4617389.326 4  -3264589.86721
 91  3 22 23 13 29.9970000  0  6G18G 2G11G19G16G 6
  21225622.4314    4448810.66547   2110458.70561
  20998034.5954  -16106482.60047  -4006162.06062
  21897676.2984   -8680043.38047  -1355214.71361
  20073654.5564   -4230141.10046   -908525.50962
  23073646.962    -3413833.682 5  -1561851.87821
  22843532.6654   -4665040.98844  -3301720.88261
 91  3 22 23 13 44.9970000  0  6G18G 2G11G19G16G 6
  21231105.9704    4477614.96447   2132903.51661
  20989693.3764  -16150315.14347  -4040317.19562
  21896201.134    -8687793.704 7
  20072187.4704   -4237839.98446
  23070791.7674   -3428826.08445  -1573534.25761
  22834464.696    -4712697.797 4  -3338855.96421
 91  3 22 23 13 59.9970000  0  6G18G 2G11G19G16G 6
  21236599.478     4506494.710 7   2155407.11021
  20981367.2674  -16194077.35747  -4074417.52762
  21894754.634    -8695394.635 7
  20070735.0794   -4245487.90346   -920484.06662
  23067959.8214   -3443694.00945  -1585119.63861
  22825394.907    -4760356.850 4  -3375992.68821
 91  3 22 23 14 14.9970000  0  6G18G 2G11G19G16G 6
  21242108.548     4535449.924 7   2177969.51921
  20973052.9394  -16237769.63947  -4108463.36462
  21893338.892    -8702846.583 7
  20069287.6964   -4253085.14946   -926404.00162
  23065156.196    -3458437.777 5  -1596608.32821
  22816320.556    -4808018.465 4  -3413131.48721
 91  3 22 23 14 29.9970000  0  6G18G 2G11G19G16G 6
  21247633.5714    4564476.92647   2200587.86262
  20964749.2124  -16281395.20447  -4142457.20962
  21891946.556    -8710152.961 7
  20067851.7904   -4260635.06046   -932287.05562
  23062371.7594   -3473060.58445  -1608002.72661
  22807255.5564   -4855686.05145  -3450274.92461
 91  3 22 23 14 44.9970000  0  6G18G 2G11G19G16G 6
  21253170.6424    4593579.91247   2223265.42362
  20956463.064   -16324949.564 7  -4176395.57322
  21890581.384    -8717309.522 6        -0.15131
  20066428.0244   -4268133.15246   -938129.72762
  23059612.189    -3487558.534 5  -1619299.82621
  22798182.962    -4903355.174 5  -3487419.53221
 91  3 22 23 14 59.9970000  0  6G18G 2G11G19G16G 6
  21258723.2904    4622753.82747   2245998.24662
  20948187.657   -16368437.418 7  -4210282.11121
  21889247.173    -8724320.852 6     -5463.50921
  20065009.3294   -4275583.89646   -943935.50862
  23056879.587    -3501936.240 5  -1630503.25221
  22789111.079    -4951030.466 5  -3524568.99321
 91  3 22 23 15 14.9970000  0  6G18G 2G11G19G16G 6
  21264287.7124    4651998.83447   2268786.46562
  20939925.3294  -16411858.21247  -4244116.39661
  21887943.993    -8731186.503 6    -10813.35221
  20063598.9704   -4282986.57746   -949703.83762
  23054167.0174   -3516193.19945  -1641612.57561
  22780037.282    -4998711.382 5  -3561722.80921
 91  3 22 23 15 29.9970000  0  6G18G 2G11G19G16G 6
  21269866.5174    4681311.74747   2291627.60762
  20931672.376   -16455215.285 7  -4277901.02821
  21886664.157    -8737909.578 6    -16052.10021
  20062201.0404   -4290344.28146   -955437.12262
  23051471.657    -3530332.572 5  -1652630.34021
  22770961.4314   -5046401.22145  -3598883.58161
 91  3 22 23 15 44.9970000  0  6G18G 2G11G19G16G 6
  21275455.5714    4710693.59246   2314522.45262
  20923436.603   -16498507.151 7  -4311634.84421
  21885409.876    -8744488.734 6    -21178.69521
  20060804.9784   -4297655.41946   -961134.11462
  23048807.7124   -3544353.13145  -1663555.45061
  22761884.962    -5094098.374 5  -3636050.05621
 91  3 22 23 15 59.9970000  0  6G18G 2G11G19G16G 6
  21281062.4234    4740150.10647   2337475.48862
  20915212.337   -16541727.887 7  -4345313.23421
  21884186.3064   -8750918.30246    -26188.73761
  20059427.8214   -4304914.25146   -966790.35462
  23046162.0324   -3558249.36145  -1674383.70661
  22752805.267    -5141797.304 5  -3673217.90221
 91  3 22 23 16 14.9970000  0  6G18G 2G11G19G16G 6
  21286686.5174    4769684.28147   2360489.03162
  20907001.407   -16584874.339 7  -4378933.74621
  21882996.181    -8757195.154 6    -31079.77721
  20058055.0324   -4312117.53946   -972403.30762
  23043544.5644   -3572018.32045  -1685112.79561
  22743730.204    -5189494.692 5  -3710384.58021
 91  3 22 23 16 29.9970000  0  6G18G 2G11G19G16G 6
  21292316.7984    4799287.51447   2383556.38662
  20898803.2514  -16627954.57147  -4412502.66462
  21881825.6104   -8763327.39146    -35858.13561
  20056697.1034   -4319273.07446   -977979.05662
  23040949.9784   -3585667.97845  -1695748.92461
  22734655.126    -5237198.516 5  -3747556.25521
 91  3 22 23 16 44.9970000  0  6G18G 2G11G19G16G 6
  21297963.595     4828961.943 7   2406679.21822
  20890615.579   -16670966.208 6  -4446018.14222
  21880688.118    -8769312.848 7    -40522.11021
  20055341.9544   -4326378.69346   -983515.90762
  23038372.564    -3599196.069 5  -1706290.32121
  22725574.001    -5284906.642 5  -3784731.29921
 91  3 22 23 16 59.9970000  0  6G18G 2G11G19G16G 6
  21303625.8604    4858708.99147   2429858.64162
  20882445.5174  -16713907.80047  -4479479.03262
  21879577.149    -8775149.812 7    -45070.38421
  20054000.3534   -4333432.56446   -989012.43862
  23035820.6424   -3612601.16645  -1716735.87861
  22716494.118    -5332617.466 5  -3821908.43221
 91  3 22 23 17 14.9960000  0  6G18G 2G11G19G16G 6
  21309300.0204    4888529.77247   2453095.51562
  20874289.856   -16756773.437 6  -4512880.74822
  21878497.574    -8780835.013 7    -49500.39421
  20052667.6064   -4340431.05946   -994465.81962
  23033293.996    -3625879.569 5  -1727082.72921
  22707417.590    -5380324.721 5  -3859082.79421
 91  3 22 23 17 29.9960000  0  6G18G 2G11G19G16G 6
  21314987.1684    4918427.35446   2476392.23462
  20866144.0744  -16799568.91146  -4546227.78062
  21877443.1764   -8786369.38147    -53812.87961
  20051346.8164   -4347375.34846   -999876.95862
  23030788.965    -3639033.136 5  -1737332.28221
  22698337.4414   -5428035.00545  -3896259.50661
 91  3 22 23 17 44.9960000  0  6G18G 2G11G19G16G 6
  21320692.2464    4948388.56547   2499738.52962
  20858011.598   -16842302.106 6  -4579526.29622
  21876417.699    -8791763.510 7    -58016.08821
  20050031.0744   -4354275.76046  -1005253.91262
  23028308.4734   -3652072.10545  -1747492.57561
  22689257.0354   -5475755.87245  -3933444.46561
 91  3 22 23 17 59.9960000  0  6G18G 2G11G19G16G 6
  21326405.543     4978421.860 6   2523140.99022
  20849895.410   -16884964.944 7  -4612769.98822
  21875418.941    -8797009.285 7    -62103.68921
  20048732.6524   -4361123.98146  -1010590.19362
  23025853.9734   -3664988.38945  -1757557.20761
  22680174.434    -5523479.239 5  -3970631.40221
 91  3 22 23 18 14.9960000  0  6G18G 2G11G19G16G 6
  21332135.348     5008527.461 6   2546599.79221
  20841789.535   -16927556.352 7  -4645958.01522
  21874449.902    -8802105.851 7    -66075.02921
  20047434.809    -4367918.986 6  -1015885.00822
  23023415.738    -3677781.427 5  -1767525.82021
  22671094.465    -5571204.197 5  -4007819.56121
 91  3 22 23 18 29.9960000  0  6G18G 2G11G19G16G 6
  21337878.152     5038701.101 6   2570111.60621
  20833696.504   -16970080.340 7  -4679093.49922
  21873503.5594   -8807057.22947    -69933.23661
  20046155.1454   -4374664.67146  -1021141.39462
  23021002.621    -3690455.030 5  -1777401.37321
  22662009.8874   -5618934.82745  -4045012.14661
 91  3 22 23 18 44.9960000  0  6G18G 2G11G19G16G 6
  21343630.582     5068939.008 6   2593673.50821
  20825615.6524  -17012540.81147  -4712179.49562
  21872588.2774   -8811867.37647    -73681.39561
  20044879.0984   -4381364.58146  -1026362.10862
  23018613.824    -3703013.185 5  -1787186.97221
  22652927.106    -5666674.757 5  -4082211.96021
 91  3 22 23 18 59.9960000  0  6G18G 2G11G19G16G 6
  21349399.371     5099246.993 7   2617290.00721
  20817551.926   -17054931.588 7  -4745211.18522
  21871702.5514   -8816530.20347    -77314.76361
  20043617.5514   -4388012.61646  -1031542.39662
  23016246.051    -3715449.996 5  -1796878.00521
  22643840.5354   -5714417.88545  -4119414.28361
 91  3 22 23 19 14.9960000  0  6G18G 2G11G19G16G 6
  21355178.5434    5129625.60147   2640961.53961
  20809498.176   -17097251.557 7  -4778187.69622
  21870842.5124   -8821044.78847    -80832.61461
  20042357.6994   -4394607.78346  -1036681.49362
  23013903.379    -3727764.367 5  -1806473.63321
  22634757.5904   -5762163.25745  -4156618.35161
 91  3 22 23 19 29.9960000  0  6G18G 2G11G19G16G 6
  21360971.770     5160076.224 7   2664689.18421
  20801457.574   -17139499.237 7  -4811107.88122
  21870012.441    -8825409.663 7    -84233.80321
  20041114.1764   -4401148.57246  -1041778.22062
  23011590.285    -3739955.111 5  -1815972.91921
  22625667.856    -5809909.395 5  -4193823.00621
 91  3 22 23 19 44.9960000  0  6G18G 2G11G19G16G 6
  21366781.981     5190594.690 7   2688469.69421
  20793430.3954  -17181678.44747  -4843974.71662
  21869211.6764   -8829628.65247    -87521.32761
  20039877.5514   -4407638.46046  -1046835.27762
  23009287.6994   -3752025.98945  -1825378.83161
  22616583.2934   -5857659.98445  -4231031.13561
 91  3 22 23 19 59.9960000  0  6G18G 2G11G19G16G 6
  21372601.449     5221185.499 6   2712306.57621
  20785419.801   -17223784.871 7  -4876784.83122
  21868434.8714   -8833697.63647    -90691.96161
  20038657.613    -4414073.104 6  -1051849.29722
  23007017.2624   -3763973.15045  -1834688.33161
  22607497.1604   -5905410.78345  -4268239.42361
 91  3 22 23 20 14.9960000  0  6G18G 2G11G19G16G 6
  21378438.4494    5251848.16747   2736199.44761
  20777419.395   -17265818.382 7  -4909538.13122
  21867690.1604   -8837616.48447    -93745.60361
  20037439.9884   -4420452.30846  -1056820.10362
  23004765.301    -3775796.418 5  -1843901.28921
  22598405.824    -5953161.700 5  -4305447.80021
 91  3 22 23 20 29.9960000  0  6G18G 2G11G19G16G 6
  21384287.543     5282580.081 7   2760146.27721
  20769434.0904  -17307781.14847  -4942236.30862
  21866973.5354   -8841387.50747    -96684.06661
  20036236.3954   -4426778.12046  -1061749.30562
  23002536.8714   -3787498.07445  -1853019.47961
  22589322.098    -6000914.877 5  -4342657.95121
 91  3 22 23 20 44.9960000  0  6G18G 2G11G19G16G 6
  21390148.637     5313379.505 7   2784145.70021
  20761463.059   -17349674.984 7  -4974880.77522
  21866281.8874   -8845012.69147    -99508.88261
  20035043.7934   -4433052.36846  -1066638.33162
  23000332.9574   -3799079.92844  -1862044.31761
  22580234.5904   -6048672.23545  -4379871.35961
 91  3 22 23 20 59.9960000  0  6G18G 2G11G19G16G 6
  21396021.7464    5344249.82646   2808200.37461
  20753504.4104  -17391496.06947  -5007468.54662
  21865621.2624   -8848488.20547   -102217.07161
  20033861.6844   -4439270.96646  -1071484.00562
  22998150.465    -3810538.268 4  -1870972.90821
  22571143.566    -6096429.796 5  -4417084.92021
 91  3 22 23 21 14.9960000  0  6G18G 2G11G19G16G 6
  21401909.621     5375186.785 6   2832306.97621
  20745559.231   -17433248.687 7  -5040002.97022
  21864987.9344   -8851818.35347   -104811.99361
  20032685.6524   -4445438.18946  -1076289.63762
  22995996.606    -3821877.652 5  -1879808.83421
  22562059.1064   -6144191.84245  -4454301.97961
 91  3 22 23 21 29.9960000  0  6G18G 2G11G19G16G 6
  21407807.1374    5406190.68146   2856465.73261
  20737627.582   -17474931.911 7  -5072483.31922
  21864381.5984   -8855002.31147   -107293.00061
  20031523.9814   -4451553.05446  -1081054.47162
  22993859.3404   -3833097.33245  -1888551.46461
  22552966.1684   -6191957.51045  -4491521.87561
 91  3 22 23 21 44.9960000  0  6G18G 2G11G19G16G 6
  21413722.6994    5437263.39846   2880678.11461
  20729707.277   -17516543.330 7  -5104907.72222
  21863804.7854   -8858037.72847   -109658.25661
  20030367.5434   -4457612.96546  -1085776.48562
  22991745.5124   -3844194.97045  -1897199.00961
  22543876.582    -6239724.305 5  -4528742.63921
 91  3 22 23 21 59.9960000  0  6G18G 2G11G19G16G 6
  21419648.5824    5468412.94546   2904950.36561
  20721804.5354  -17558075.07147  -5137270.03562
  21863257.1294   -8860917.06947   -111901.90461
  20029229.0044   -4463610.21946  -1090449.67862
  22989659.2234   -3855163.21845  -1905745.71661
  22534785.0354   -6287484.58545  -4565958.32061
 91  3 22 23 22 14.9960000  0  6G18G 2G11G19G16G 6
  21425589.6374    5499627.80546   2929273.51761
  20713913.426   -17599538.263 7  -5169578.93022
  21862735.4414   -8863651.48947   -114032.61861
  20028095.7384   -4469555.62146  -1095082.46362
  22987592.5274   -3866012.92545  -1914200.06461
  22525695.777    -6335249.391 5  -4603177.53921
 91  3 22 23 22 29.9960000  0  6G18G 2G11G19G16G 6
  21431542.4344    5530907.67046   2953647.31761
  20706037.543   -17640933.173 7  -5201834.62422
  21862241.6844   -8866241.27747   -116050.64161
  20026977.0904   -4475449.44246  -1099675.05262
  22985553.426    -3876744.384 5  -1922562.29221
  22516611.5824   -6383018.95745  -4640400.45361
 91  3 22 23 22 44.9960000  0  6G18G 2G11G19G16G 6
  21437508.1764    5562258.48846   2978076.39961
  20698173.2704  -17682253.38647  -5234032.10862
  21861778.9264   -8868680.05347   -117950.99261
  20025865.6214   -4481285.19646  -1104222.39162
  22983534.2774   -3887351.61445  -1930827.71361
  22507517.4884   -6430786.82945  -4677622.06561
 91  3 22 23 22 59.9960000  0  6G18G 2G11G19G16G 6
  21443489.3874    5593683.44046   3002563.25761
  20690327.6214  -17723495.41747  -5266168.67062
  21861343.5354   -8870964.56647   -119731.13061
  20024767.9654   -4487059.44446  -1108721.80662
  22981544.0354   -3897831.76145  -1938994.09761
  22498430.2384   -6478549.69245  -4714839.75461
 91  3 22 23 23 14.9960000  0  6G18G 2G11G19G16G 6
  21449479.5124    5625175.67046   3027102.53961
  20682491.246   -17764666.130 7  -5298249.66422
  21860938.0204   -8873101.66947   -121396.40861
  20023677.0594   -4492778.68546  -1113178.35562
  22979569.3164   -3908191.31445  -1947066.51461
  22489337.871    -6526314.090 5  -4752058.65021
 91  3 22 23 23 29.9960000  0  6G18G 2G11G19G16G 6
  21455487.9654    5656737.36046   3051695.94661
  20674671.121   -17805762.788 7  -5330272.95522
  21860557.8244   -8875088.99947   -122944.98461
  20022602.1914   -4498440.53146  -1117590.18962
  22977623.035    -3918427.667 5  -1955042.91721
  22480253.473    -6574077.763 5  -4789276.98921
 91  3 22 23 23 44.9960000  0  6G18G 2G11G19G16G 6
  21461505.2624    5688371.43046   3076345.74061
  20666863.363   -17846782.357 6  -5362236.16822
  21860210.6994   -8876923.37047   -124374.36861
  20021532.5354   -4504041.48846  -1121954.56962
  22975697.277    -3928538.018 5  -1962921.15821
  22471163.5664   -6621837.27645  -4826492.06961
 91  3 22 23 23 59.9960000  0  6G18G 2G11G19G16G 6
  21467541.457     5720075.183 6   3101049.84521
  20659072.949   -17887726.900 7  -5394140.92722
  21859889.5274   -8878607.06447   -125686.34561
  20020481.2934   -4509583.77346  -1126273.23862
  22973798.160    -3938524.754 5  -1970703.11721
  22462074.684    -6669594.851 5  -4863705.66521
 91  3 22 23 24 14.9960000  0  6G18G 2G11G19G16G 6
  21473584.559     5751843.937 6   3125804.59821
  20651295.090   -17928601.406 7  -5425991.11022
  21859596.8164   -8880145.16547   -126884.86761
  20019433.7544   -4515072.04146  -1130549.80663
  22971920.613    -3948392.777 5  -1978392.52121
  22452987.6914   -6717355.38446  -4900921.54261
 91  3 22 23 24 29.9960000  0  6G18G 2G11G19G16G 6
  21479645.1214    5783686.75246   3150617.06161
  20643532.551   -17969396.540 7  -5457779.44122
  21859332.6134   -8881528.27047   -127962.60661
  20018404.3404   -4520496.93346  -1134777.00162
  22970069.5354   -3958132.96345  -1985982.31361
  22443897.840    -6765109.469 5  -4938132.41021
 91  3 22 23 24 44.9960000  0  6G18G 2G11G19G16G 6
  21485714.3324    5815592.88746   3175478.85761
  20635781.449   -18010121.996 7  -5489513.48022
  21859097.7154   -8882766.21147   -128927.23661
  20017379.5274   -4525868.10346  -1138962.33262
  22968234.809    -3967755.137 5  -1993480.17521
  22434812.1134   -6812866.88946  -4975345.84861
 91  3 22 23 24 59.9960000  0  6G18G 2G11G19G16G 6
  21491798.0354    5847568.43446   3200394.74661
  20628046.559   -18050772.221 7  -5521188.89422
  21858890.6844   -8883853.63247   -129774.58061
  20016370.7774   -4531179.87446  -1143101.37662
  22966429.691    -3977253.943 5  -2000881.89521
  22425725.7704   -6860622.00546  -5012557.52361
 91  3 22 23 25 14.9960000  0  6G18G 2G11G19G16G 6
  21497899.1454    5879613.78046   3225365.02462
  20620326.9264  -18091346.19247  -5552804.89062
  21858711.5044   -8884789.64547   -130503.94361
  20015368.3714   -4536431.05946  -1147193.21162
  22964643.7074   -3986628.76945  -2008186.98161
  22416634.6064   -6908373.87046  -5049766.64061
 91  3 22 23 25 29.9960000  0  6G18G 2G11G19G16G 6
  21504007.0044    5911721.00946   3250383.51861
  20612617.512   -18131851.690 7  -5584367.53022
  21858559.8164   -8885582.07046   -131121.41961
  20014385.5274   -4541629.34046  -1151243.82462
  22962883.332    -3995887.154 5  -2015401.35721
  22407548.5514   -6956130.18246  -5086979.23061
 91  3 22 23 25 44.9960000  0  6G18G 2G11G19G16G 6
  21510130.6684    5943890.67346   3275450.66761
  20604922.3484  -18172287.99147  -5615876.25362
  21858439.0744   -8886230.44946   -131626.65461
  20013402.6134   -4546773.97646  -1155252.62962
  22961147.7154   -4005028.79345  -2022524.76961
  22398461.3634   -7003890.19546  -5124194.73261
 91  3 22 23 25 59.9960000  0  6G18G 2G11G19G16G 6
  21516266.7154    5976136.09846   3300576.84461
  20597243.973   -18212641.283 7  -5647320.29722
  21858342.6604   -8886721.00346   -132008.90561
  20012438.363    -4551851.023 6  -1159208.77922
  22959432.434    -4014039.778 5  -2029546.34921
  22389376.2154   -7051640.21446  -5161402.39861
 91  3 22 23 26 14.9960000  0  6G18G 2G11G19G16G 6
  21522415.684     6008445.619 6   3325752.96721
  20589579.926   -18252923.137 7  -5678708.67623
  21858275.7074   -8887065.47246   -132277.32961
  20011479.8324   -4556872.10646  -1163121.31362
  22957734.7314   -4022931.97045  -2036475.36661
  22380283.3714   -7099391.80546  -5198611.32461
 91  3 22 23 26 29.9960000  0  6G18G 2G11G19G16G 6
  21528577.1134    6040821.45046   3350980.76861
  20581927.238   -18293130.623 7  -5710039.10623
  21858241.4964   -8887261.00446
  20010538.4654   -4561834.19046  -1166987.87662
  22956069.8714   -4031702.92644  -2043309.92161
  22371199.168    -7147141.973 6  -5235819.09421
 91  3 22 23 26 44.9960000  0  6G18G 2G11G19G16G 6
  21534749.2854    6073265.91846   3376262.04161
  20574288.113   -18333261.891 7  -5741310.14923
  21858234.9884   -8887305.84147
  20009602.5744   -4566735.16546  -1170806.82562
  22954422.441    -4040350.590 5  -2050048.38421
  22362113.7464   -7194888.75246  -5273024.28661
 91  3 22 23 26 59.9960000  0  6G18G 2G11G19G16G 6
  21540937.8164    6105776.14346   3401594.55361
  20566667.613   -18373319.042 7  -5772523.43723
  21858254.3094   -8887202.17647
  20008682.0984   -4571577.01846  -1174579.70362
  22952801.824    -4048877.372 5  -2056692.66221
  22353026.5514   -7242634.15146  -5310228.36361
 91  3 22 23 27 14.9960000  0  6G18G 2G11G19G16G 6
  21547136.996     6138354.093 6   3426979.84221
  20559060.957   -18413300.261 7  -5803677.55922
  21858300.8634   -8886948.15047
  20007773.0824   -4576357.87446  -1178305.04962
  22951204.965    -4057281.170 5  -2063241.12721
  22343942.3324   -7290376.33946  -5347429.98561
 91  3 22 23 27 29.9960000  0  6G18G 2G11G19G16G 6
  21553350.1454    6171004.19946   3452421.35061
  20551467.613   -18453200.247 7  -5834768.38522
  21858379.324    -8886538.838 7
  20006880.8714   -4581072.52946  -1181978.81262
  22949624.043    -4065557.294 5  -2069690.07621
  22334860.9104   -7338110.14446  -5384625.01961
 91  3 22 23 27 44.9960000  0  6G18G 2G11G19G16G 6
  21559574.1604    6203717.31346   3477911.96261
  20543887.481   -18493028.380 7  -5865803.22122
  21858487.4344   -8885983.82247   -131434.54661
  20005988.0824   -4585730.07846  -1185608.08062
  22948072.332    -4073715.369 5  -2076047.05821
  22325776.5984   -7385845.01846  -5421820.89861
 91  3 22 23 27 59.9960000  0  6G18G 2G11G19G16G 6
  21565812.129     6236496.863 6   3503454.33721
  20536321.387   -18532780.706 7  -5896778.99222
  21858619.4344   -8885279.30147   -130885.57661
  20005116.2074   -4590326.67946  -1189189.85262
  22946543.6764   -4081751.41145  -2082308.95961
  22316690.809    -7433576.978 5  -5459014.54021
 91  3 22 23 28 14.9960000  0  6G18G 2G11G19G16G 6
  21572060.824     6269337.063 6   3529043.97221
  20528771.8094  -18572463.05447  -5927700.23162
  21858781.121    -8884431.047 7   -130224.61422
  20004249.637    -4594867.898 6  -1192728.47022
  22945036.621    -4089671.368 5  -2088480.39621
  22307611.5664   -7481311.71846  -5496210.31061
 91  3 22 23 28 29.9960000  0  6G18G 2G11G19G16G 6
  21578323.1764    6302246.60746   3554687.63861
  20521235.5594  -18612066.17147  -5958559.73562
  21858969.5824   -8883429.84047   -129444.46762
  20003399.1764   -4599344.53346  -1196216.76562
  22943552.9814   -4097466.34145  -2094554.43161
  22298524.074    -7529039.944 5  -5533401.03821
 91  3 22 23 28 44.9960000  0  6G18G 2G11G19G16G 6
  21584597.4344    6335212.45046   3580375.16961
  20513711.863   -18651603.115 7  -5989367.66922
  21859188.6214   -8882288.86547   -128555.40761
  20002555.8404   -4603769.41346  -1199664.72562
  22942093.715    -4105149.562 5  -2100541.40621
  22289441.9184   -7576774.67245  -5570596.80861
 91  3 22 23 28 59.9960000  0  6G18G 2G11G19G16G 6
  21590882.215     6368237.728 6   3606109.00821
  20506198.8164  -18691069.98347  -6020120.99862
  21859433.793    -8881004.577 7   -127554.67821
  20001729.2464   -4608138.52846  -1203069.23662
  22940650.5664   -4112717.48345  -2106438.54261
  22280355.8324   -7624512.02245  -5607794.59861
 91  3 22 23 29 14.9960000  0  6G18G 2G11G19G16G 6
  21597180.824     6401324.649 6   3631890.87621
  20498705.1454  -18730464.76847  -6050818.16562
  21859706.215    -8879575.115 7   -126440.82521
  20000904.981    -4612449.742 6  -1206428.63622
  22939231.504    -4120167.992 5  -2112244.17921
  22271273.277    -7672249.985 5  -5644992.91921
 91  3 22 23 29 29.9960000  0  6G18G 2G11G19G16G 6
  21603486.910     6434470.693 6   3657718.82221
  20491222.207   -18769789.626 7  -6081460.83822
  21860004.809    -8878002.620 7   -125215.51521
  20000098.0274   -4616705.01546  -1209744.44362
  22937833.816    -4127503.432 5  -2117960.17221
  22262190.7074   -7719990.63445  -5682193.32461
 91  3 22 23 29 44.9960000  0  6G18G 2G11G19G16G 6
  21609807.5124    6467682.95746   3683598.35961
  20483753.840   -18809037.301 7  -6112043.36522
  21860331.3564   -8876279.76447   -123873.04561
  19999297.6844   -4620896.92146  -1213010.87162
  22936464.3714   -4134716.48245  -2123580.78361
  22253102.6524   -7767726.37845  -5719389.90361
 91  3 22 23 29 59.9960000  0  6G18G 2G11G19G16G 6
  21616138.145     6500957.073 6   3709526.10021
  20476297.4574  -18848211.72147  -6142568.82162
  21860690.613    -8874410.763 7   -122416.69521
  19998512.910    -4625029.485 6  -1216231.05922
  22935113.8404   -4141811.50745  -2129109.43861
  22244021.4024   -7815461.51445  -5756585.99961
 91  3 22 23 30 14.9960000  0  6G18G 2G11G19G16G 6
  21622484.3794    6534293.55946   3735502.44061
  20468857.238   -18887312.445 7  -6173036.84822
  21861070.9654   -8872395.38846   -120846.28561
  19997733.1214   -4629102.18246  -1219404.59662
  22933788.059    -4148788.274 5  -2134545.92021
  22234936.051    -7863195.525 5  -5793781.23321
 91  3 22 23 30 29.9960000  0  6G18G 2G11G19G16G 6
  21628836.6604    6567694.02546   3761528.63961
  20461430.949   -18926337.169 7  -6203445.65222
  21861482.598    -8870231.544 6   -119160.18921
  19996974.4814   -4633112.77346  -1222529.74362
  22932485.840    -4155644.853 5  -2139888.75021
  22225858.043    -7910926.158 5  -5830973.81421
 91  3 22 23 30 44.9960000  0  6G18G 2G11G19G16G 6
  21635206.762     6601154.872 6   3787601.88221
  20454017.2154  -18965289.24947  -6233797.85562
  21861921.785    -8867922.672 6   -117361.07721
  19996220.8634   -4637064.51546  -1225609.02362
  22931205.871    -4162384.418 5  -2145140.45421
  22216773.098    -7958656.662 5  -5868166.33921
 91  3 22 23 30 59.9960000  0  6G18G 2G11G19G16G 6
  21641584.762     6634675.918 6   3813722.04021
  20446618.8634  -19004168.62147  -6264093.40062
  21862387.973    -8865468.847 6   -115449.02821
  19995481.0594   -4640957.05346  -1228642.17662
  22929940.332    -4169006.919 5  -2150300.88821
  22207691.3484   -8006386.84345  -5905358.58961
 91  3 22 23 31 14.9960000  0  6G18G 2G11G19G16G 6
  21647976.535     6668261.189 6   3839892.24021
  20439235.4104  -19042971.15547  -6294329.07462
  21862882.340    -8862865.992 6   -113420.85521
  19994752.7234   -4644786.06346  -1231625.82462
  22928700.5744   -4175508.60445  -2155367.18561
  22198604.785    -8054112.530 5  -5942547.31921
 91  3 22 23 31 29.9960000  0  6G18G 2G11G19G16G 6
  21654378.332     6701912.827 6   3866114.15921
  20431867.5434  -19081694.67547  -6324503.17862
  21863408.004    -8860111.931 6   -111274.84521
  19994039.7544   -4648549.22046  -1234558.16162
  22927488.2624   -4181887.47145  -2160337.80061
  22189523.504    -8101831.490 5  -5979730.84221
 91  3 22 23 31 44.9960000  0  5G18G 2G11G19G 6
  21660796.559     6735626.574 6   3892384.47721
  20424512.2234  -19120342.63947  -6354618.40763
  21863963.770    -8857210.517 6   -109014.02621
  19993330.2074   -4652250.07946  -1237441.95462
  22180448.941    -8149547.293 5  -6016911.89221
 91  3 22 23 31 59.9960000  0  6G18G 2G11G19G16G 6
  21667221.8094    6769398.51046   3918700.12661
  20417171.1764  -19158918.81947  -6384677.69962
  21864540.113    -8854165.569 6   -106641.36622
  19992639.1994   -4655892.46946  -1240280.18362
  22925130.9264         -0.62955
  22171363.6214   -8197263.61745  -6054093.34761
 91  3 22 23 32 14.9960000  0  6G18G 2G11G19G16G 6
  21673659.6374    6803228.38846   3945060.92061
  20409844.3794  -19197423.55147  -6414681.32862
  21865146.129    -8850977.499 6   -104157.17421
  19991954.902    -4659476.441 6  -1243072.89922
  22923986.895       -6030.933 5
  22162287.090    -8244980.736 5  -6091275.41421
 91  3 22 23 32 29.9960000  0  6G18G 2G11G19G16G 6
  21680107.1914    6837117.48646   3971467.85161
  20402532.2704  -19235854.80947  -6444627.69662
  21865780.613    -8847644.481 6   -101560.04021
  19991287.4494   -4662999.98446  -1245818.52662
  22922856.457      -11944.815 5        -0.03531
  22153204.3404   -8292696.64044  -6128456.56161
 91  3 22 23 32 44.9960000  0  6G18G 2G11G19G16G 6
  21686569.8954    6871066.99946   3997921.87861
  20395231.051   -19274211.721 7  -6474516.12822
  21866442.777    -8844165.768 6    -98849.38222
  19990626.7234   -4666461.86946  -1248516.09762
  22921753.3094     -17741.47445     -4516.94861
  22144127.324    -8340410.253 5  -6165635.89421
 91  3 22 23 32 59.9960000  0  6G18G 2G11G19G16G 6
  21693038.7234    6905080.60646   4024425.83461
  20387948.816   -19312490.234 7  -6504343.46822
  21867133.887    -8840537.528 6    -96022.20422
  19989982.0354   -4669858.06446  -1251162.49362
  22920671.332      -23417.265 5     -8939.70621
  22135046.4414   -8388117.62945  -6202810.36461
 91  3 22 23 33 14.9960000  0  6G18G 2G11G19G16G 6
  21699527.051     6939151.672 6   4050974.57421
  20380677.488   -19350696.341 7  -6534114.39122
  21867851.723    -8836765.870 7    -93083.26721
  19989343.7544   -4673194.40846  -1253762.24862
  22919615.8954     -28978.12945    -13272.88761
  22125971.2624   -8435824.67345  -6239984.59961
 91  3 22 23 33 29.9960000  0  6G18G 2G11G19G16G 6
  21706019.8164    6973276.62846   4077565.29561
  20373420.8404  -19388833.43547  -6563831.54362
  21868596.871    -8832854.454 7    -90035.42621
  19988725.4184   -4676474.24846  -1256317.96862
  22918579.7464     -34427.75945    -17519.41661
  22116887.8094   -8483534.88845  -6277161.29361
 91  3 22 23 33 44.9960000  0  6G18G 2G11G19G16G 6
  21712523.2074    7007461.29746   4104202.54561
  20366177.0984  -19426895.40147  -6593490.15562
  21869367.871    -8828797.143 7    -86873.90721
  19988109.0204   -4679691.39746  -1258824.84662
  22917566.0824     -39760.11245    -21674.54961
  22107810.3564   -8531241.92145  -6314335.50361
 91  3 22 23 33 59.9960000  0  5G18G 2G11G19G 6
  21719039.2314    7041706.18046   4130886.72561
  20358949.0124  -19464881.79347  -6623089.87662
  21870171.332    -8824593.940 7    -83598.70621
  19987511.1844   -4682845.45746  -1261282.56062
  22098735.676    -8578945.441 5  -6351506.98821
 91  3 22 23 34 14.9960000  0  6G18G 2G11G19G16G 6
  21725566.020     7076006.276 6   4157613.92421
  20351732.7154  -19502797.22347  -6652634.30062
  21870997.309    -8820249.258 7    -80213.26321
  19986920.9574   -4685940.68146  -1263694.43362
  22915598.9964         -0.94855
  22089655.957    -8626649.873 5  -6388679.16621
 91  3 22 23 34 29.9960000  0  6G18G 2G11G19G16G 6
  21732108.7154    7110359.47346   4184382.50361
  20344532.6684  -19540643.47047  -6682124.81862
  21871848.356    -8815764.901 7    -76718.97321
  19986345.2234   -4688978.73646  -1266061.75062
  22914649.7544      -4992.37545
  22080578.8484   -8674356.84945  -6425853.33261
 91  3 22 23 34 44.9960000  0  6G18G 2G11G19G16G 6
  21738656.2154    7144770.82646   4211196.39261
  20337344.5984  -19578415.31047  -6711557.35562
  21872728.5594   -8811135.95647    -73112.02861
  19985775.012    -4691954.274 6  -1268380.35822
  22913723.7544      -9868.16845        -0.38371
  22071499.957    -8722061.159 5  -6463025.41021
 91  3 22 23 34 59.9960000  0  6G18G 2G11G19G16G 6
  21745213.2154    7179236.14646   4238052.33061
  20330168.6064  -19616116.46147  -6740934.81262
  21873638.621    -8806366.365 7    -69395.48621
  19985221.4024   -4694871.02246  -1270653.15962
  22912817.535      -14632.280 5     -3712.73021
  22062419.6064   -8769766.59545  -6500198.38761
 91  3 22 23 35 14.9960000  0  6G18G 2G11G19G16G 6
  21751782.4884    7213761.00446   4264954.65761
  20323008.6684  -19653740.96447  -6770252.54662
  21874572.1134   -8801450.44647    -65564.92561
  19984676.6214   -4697723.08646  -1272875.55262
  22911929.574      -19278.984 5     -7333.58221
  22053346.027    -8817467.181 5  -6537367.57421
 91  3 22 23 35 29.9960000  0  6G18G 2G11G19G16G 6
  21758363.754     7248341.386 6   4291900.25021
  20315863.0354  -19691292.83647  -6799513.68262
  21875533.754    -8796392.351 7    -61623.57121
  19984149.2704   -4700514.03646  -1275050.32162
  22911066.1134     -23812.45144    -10866.20361
  22044265.1294   -8865166.81045  -6574536.01261
 91  3 22 23 35 44.9960000  0  6G18G 2G11G19G16G 6
  21764955.145     7282970.851 6   4318884.09021
  20308729.5044  -19728778.71147  -6828723.38863
  21876522.231    -8791198.531 7    -57576.45921
  19983625.5274   -4703250.22646  -1277182.42662
  22910223.121      -28239.000 4
  22035191.676    -8912871.889 5  -6611708.69221
 91  3 22 23 35 59.9960000  0  6G18G 2G11G19G16G 6
  21771552.793     7317653.031 6   4345908.98921
  20301610.2234  -19766194.26247  -6857878.30763
  21877538.0124   -8785865.10447    -53420.57561
  19983117.8874   -4705927.46546  -1279268.58562
  22909402.1134     -32554.90445
  22026108.8714   -8960578.11345  -6648882.27261
 91  3 22 23 36 14.9960000  0  6G18G 2G11G19G16G 6
  21778163.918     7352388.785 6   4372975.65221
  20294503.5434  -19803538.39147  -6886977.56263
  21878580.6374   -8780391.23047    -49155.24261
  19982619.4414   -4708544.73246  -1281308.01762
  22908600.4104     -36759.43844
  22017031.160    -9008284.567 5  -6686056.03221
 91  3 22 23 36 29.9960000  0  6G18G 2G11G19G16G 6
  21784783.527     7387176.056 6   4400082.45021
  20287410.1844  -19840812.97747  -6916022.62963
  21879647.535    -8774778.667 7    -44781.84121
  19982133.3714   -4711103.55546  -1283301.91262
  22907824.1294     -40854.31244        -0.31071
  22007953.840    -9055992.780 5  -6723231.16521
 91  3 22 23 36 44.9960000  0  6G18G 2G11G19G16G 6
  21791412.606     7422014.192 6   4427228.88621
  20280330.3244  -19878018.79947  -6945014.11663
  21880742.7544   -8769028.48547    -40301.20961
  19981655.1294   -4713604.56346  -1285250.76062
  22907067.6684     -44840.42445
  21998876.4024   -9103703.50946  -6760408.25061
 91  3 22 23 36 59.9960000  0  6G18G 2G11G19G16G 6
  21798053.324     7456906.756 6   4454417.74121
  20273264.3164  -19915151.00047  -6973948.24063
  21881863.0744   -8763135.97147    -35709.67061
  19981193.9814   -4716042.95146  -1287150.80362
  22906326.4104     -48713.26445
  21989796.512    -9151411.943 6  -6797583.55421
 91  3 22 23 37 14.9960000  0  6G18G 2G11G19G16G 6
  21804704.684     7491853.871 6   4481649.08721
  20266212.6454  -19952209.25947  -7002824.74463
  21883014.1524   -8757101.00447    -31007.13961
  19980737.902    -4718418.573 6  -1289001.94622
  22905614.356      -52472.976 5
  21980717.1454   -9199117.80246  -6834756.85361
 91  3 22 23 37 29.9960000  0  6G18G 2G11G19G16G 6
  21811364.395     7526851.583 6   4508919.86921
  20259173.5984  -19989197.61247  -7031646.77463
  21884185.9104   -8750927.88547    -26196.94361
  19980301.020    -4720735.263 6  -1290807.17322
  22904920.4344     -56123.80645
  21971638.106    -9246825.077 6  -6871931.25621
 91  3 22 23 37 44.9960000  0  6G18G 2G11G19G16G 6
  21818032.934     7561896.680 6   4536227.58621
  20252148.4414  -20026119.64447  -7060417.12963
  21885386.7234   -8744620.23647    -21281.92661
  19979867.168    -4722996.180 6  -1292568.93522
  22904243.316      -59669.259 5        -0.15031
  21962560.418    -9294537.130 6  -6909109.37521
 91  3 22 23 37 59.9960000  0  6G18G 2G11G19G16G 6
  21824710.6064    7596994.85646   4563576.65361
  20245135.6064  -20062969.13347  -7089130.95762
  21886614.3244   -8738171.85446    -16257.24961
  19979453.2074   -4725194.94846  -1294282.26862
  22903594.9884     -63103.24645     -2676.03061
  21953481.4964   -9342247.62146  -6946286.28861
 91  3 22 23 38 14.9960000  0  6G18G 2G11G19G16G 6
  21831400.0824    7632142.56446   4590964.31961
  20238135.465   -20099748.907 7  -7117790.46722
  21887866.8954   -8731585.84546    -11125.33161
  19979042.910    -4727334.430 6  -1295949.40522
  22902960.371      -66428.866 5     -5267.50721
  21944402.6764   -9389959.33346  -6983464.14561
 91  3 22 23 38 29.9960000  0  6G18G 2G11G19G16G 6
  21838097.059     7667330.442 6   4618383.28721
  20231148.2464  -20136468.41647  -7146403.01762
  21889145.3094   -8724871.97146     -5893.77761
  19978646.207    -4729424.015 6  -1297577.66622
  22902349.0824     -69656.09845     -7782.26261
  21935322.418    -9437681.736 6  -7020650.33721
 91  3 22 23 38 44.9960000  0  6G18G 2G11G19G16G 6
  21844804.598     7702572.016 6   4645844.08921
  20224176.9414  -20173113.30247  -7174957.41162
  21890449.6064   -8718015.90846      -551.42161
  19978258.270    -4731449.114 6  -1299155.67722
  22901759.3564     -72770.41745    -10209.07561
  21926241.9264   -9485400.45646  -7057833.66361
 91  3 22 23 38 59.9960000  0  6G18G 2G11G19G16G 6
  21851518.1454    7737858.43046   4673339.84561
  20217214.7854  -20209693.45347  -7203461.36462
  21891780.3404   -8711027.75046      4893.85861
  19977886.9264   -4733419.45146  -1300691.01562
  22901181.457      -75781.845 5    -12555.68221
  21917159.6294   -9533125.26146  -7095021.72261
 91  3 22 23 39 14.9960000  0  6G18G 2G11G19G16G 6
  21858243.293     7773193.180 6   4700873.25221
  20210266.3244  -20246204.25547  -7231911.28362
  21893134.4344   -8703902.96446     10445.59761
  19977521.3714   -4735330.35046  -1302180.03362
  22900629.441      -78686.018 5    -14818.72021
  21908076.5274   -9580851.30846  -7132210.75661
 91  3 22 23 39 29.9960000  0  6G18G 2G11G19G16G 6
  21864975.090     7808570.776 6   4728440.05221
  20203330.8484  -20282650.50847  -7260310.89862
  21894516.2934   -8696646.70746     16099.79461
  19977167.5514   -4737186.63346  -1303626.49862
  22900095.223      -81488.100 5    -17002.20921
  21898994.606    -9628583.607 6  -7169404.65421
 91  3 22 23 39 44.9960000  0  6G18G 2G11G19G16G 6
  21871718.106     7843997.939 6   4756045.46721
  20196410.0594  -20319026.02947  -7288655.40362
  21895923.5204   -8689253.00346     21861.08461
  19976826.199    -4738982.078 6  -1305025.55722
  22899583.746      -84182.193 5    -19101.56721
  21889909.9184   -9676315.74746  -7206598.44361
 91  3 22 23 39 59.9960000  0  6G18G 2G11G19G16G 6
  21878464.387     7879473.964 6   4783688.94921
  20189500.4024  -20355330.76147  -7316944.74662
  21897356.3954   -8681721.75346     27729.55761
  19976499.145    -4740716.358 6  -1306376.95322
  22899087.4104     -86768.33045    -21116.78961
  21880826.8164   -9724047.68446  -7243792.05861
 91  3 22 23 40 14.9960000  0  6G18G 2G11G19G16G 6
  21885227.910     7915003.240 6   4811373.94021
  20182606.9574  -20391560.11247  -7345175.35162
  21898815.1524   -8674048.79946     33708.45261
  19976178.465    -4742384.907 6  -1307677.13322
  22898619.6524     -89242.25245    -23044.57261
  21871744.3014   -9771774.84746  -7280981.95461
 91  3 22 23 40 29.9960000  0  6G18G 2G11G19G16G 6
  21891993.387     7950573.344 6   4839090.73521
  20175723.8164  -20427726.66647  -7373357.02062
  21900299.8484   -8666246.67446     39787.98661
  19975872.770    -4743999.886 6  -1308935.56722
  22898168.8324     -91616.50645    -24894.69361
  21862662.434    -9819509.475 6  -7318177.67021
 91  3 22 23 40 44.9960000  0  6G18G 2G11G19G16G 6
  21898774.082     7986193.901 6   4866846.85121
  20168855.1374  -20463820.27347  -7401481.84662
  21901812.7234   -8658305.38646     45975.95961
  19975575.582    -4745551.260 6  -1310144.43922
  22897742.809      -93881.318 5    -26659.53721
  21853577.395    -9867241.484 6  -7355371.33721
 91  3 22 23 40 59.9960000  0  6G18G 2G11G19G16G 6
  21905560.9964    8021859.40846   4894637.97461
  20162000.8954  -20499845.96747  -7429553.74762
  21903349.3244   -8650230.06247     52268.39761
  19975292.9734   -4747043.94146  -1311307.58062
  22897329.449      -96041.549 5    -28342.90621
  21844493.4814   -9914975.77546  -7392566.79361
 91  3 22 23 41 14.9950000  0  6G18G 2G11G19G16G 6
  21912355.6084    8057564.06946   4922459.61561
  20155157.6164  -20535804.75047  -7457573.52762
  21904909.9214   -8642024.94947     58661.95661
  19975018.8194   -4748481.13046  -1312427.47562
  22896934.0934     -98101.20045    -29947.89461
  21835410.3274   -9962712.53746  -7429764.16961
 91  3 22 23 41 29.9950000  0  6G18G 2G11G19G16G 6
  21919159.6944    8093313.13446   4950315.85461
  20148326.351   -20571700.749 7  -7485544.38022
  21906496.7734   -8633688.24846     65158.05361
  19974759.6944   -4749862.03946  -1313503.51562
  22896561.7264    -100059.74745    -31474.06761
  21826325.4134  -10010457.13446  -7466967.65661
 91  3 22 23 41 44.9950000  0  6G18G 2G11G19G16G 6
  21925970.2104    8129109.87746   4978209.23861
  20141508.6944  -20607525.65647  -7513459.83762
  21908108.1794   -8625215.12746     71760.44861
  19974503.405    -4751180.787 6  -1314531.12322
  22896210.2024    -101911.79245    -32917.28961
  21817237.3824  -10058200.78346  -7504170.40261
 91  3 22 23 41 59.9950000  0  6G18G 2G11G19G16G 6
  21932795.1794    8164946.43146   5006133.65061
  20134703.585   -20643286.919 7  -7541325.70222
  21909745.2804   -8616613.13546     78463.27061
  19974267.460    -4752444.567 6  -1315515.89922
  22895877.4684    -103664.65045    -34283.19761
  21808151.694   -10105950.798 6  -7541378.11221
 91  3 22 23 42 14.9950000  0  6G18G 2G11G19G16G 6
  21939620.1404    8200827.16546   5034092.48561
  20127912.9914  -20678979.98747  -7569138.42262
  21911409.0934   -8607877.90346     85269.91261
  19974033.819    -4753648.768 6  -1316454.24822
  22895562.1484    -105314.03145    -35568.53161
  21799066.569   -10153702.522 6  -7578587.14821
 91  3 22 23 42 29.9950000  0  6G18G 2G11G19G16G 6
  21946457.7494    8236748.82946   5062083.21161
  20121132.1634  -20714607.91647  -7596900.38863
  21913095.4134   -8599012.70446     92177.82561
  19973818.3124   -4754796.44346  -1317348.55062
  22895264.9294    -106863.16345    -36775.69261
  21789976.9994  -10201458.90246  -7615799.82261
 91  3 22 23 42 44.9950000  0  6G18G 2G11G19G16G 6
  21953298.6084    8272714.38646   5090108.14561
  20114365.171   -20750167.326 7  -7624608.97023
  21914807.9764   -8590014.23846     99189.58461
  19973609.749    -4755884.015 6  -1318196.02222
  22894994.3044    -108309.01345    -37902.43061
  21780889.163   -10249216.471 6  -7653013.41921
 91  3 22 23 42 59.9950000  0  6G18G 2G11G19G16G 6
  21960150.124     8308727.302 6   5118169.98521
  20107611.335   -20785654.612 7  -7652261.34523
  21916544.5234   -8580879.07946    106307.85761
  19973417.7024   -4756907.69746  -1318993.70862
  22894740.812     -109648.407 5    -38946.17321
  21771800.8434  -10296971.53546  -7690225.07261
 91  3 22 23 43 14.9950000  0  6G18G 2G11G19G16G 6
  21967007.132     8344776.854 6   5146260.37421
  20100871.608   -20821080.273 7  -7679865.70223
  21918308.7264   -8571617.95046    113524.28961
  19973229.499    -4757877.887 6  -1319749.71522
  22894501.9444    -110891.46245    -39914.87361
  21762713.8274  -10344734.45346  -7727442.82261
 91  3 22 23 43 29.9950000  0  6G18G 2G11G19G16G 6
  21973882.132     8380868.254 6   5174383.36621
  20094144.0464  -20856438.85247  -7707417.78563
  21920093.7574   -8562225.50546    120843.04061
  19973060.163    -4758788.973 6  -1320459.66522
  22894279.1554    -112033.07145    -40804.49861
  21753623.687   -10392499.608 6  -7764662.34621
 91  3 22 23 43 44.9950000  0  6G18G 2G11G19G16G 6
  21980755.3434    8417005.36046   5202541.98961
  20087427.2264  -20891726.13747  -7734914.30863
  21921909.4054   -8552697.69646    128267.27461
  19972896.741    -4759636.590 6  -1321120.15622
  22894085.8584    -113069.39345    -41612.09361
  21744532.773   -10440262.859 6  -7801880.37321
 91  3 22 23 43 59.9950000  0  6G18G 2G11G19G16G 6
  21987643.5384    8453191.32346   5230738.67161
  20080726.0544  -20926938.93047  -7762352.79063
  21923749.0154   -8543031.59546    135799.27061
  19972752.249    -4760417.426 6  -1321728.61822
  22893909.7884    -113997.35645    -42335.21661
  21735445.7334  -10488020.90746  -7839094.33461
 91  3 22 23 44 14.9950000  0  6G18G 2G11G19G16G 6
  21994536.999     8489416.758 6   5258966.11721
  20074038.8824  -20962086.14947  -7789740.17762
  21925612.4684   -8533236.28246    143431.95561
  19972607.655    -4761140.338 6
  22893753.476     -114826.155 5
  21726355.8984  -10535782.43646  -7876311.02461
 91  3 22 23 44 29.9950000  0  6G18G 2G11G19G16G 6
  22001437.655     8525688.379 6   5287229.53521
  20067364.0384  -20997160.82047  -7817071.03062
  21927503.773    -8523305.057 6    151170.54721
  19972486.523    -4761798.378 6
  22893612.476     -115549.042 5
  21717269.0694  -10583540.63846  -7913525.10961
 91  3 22 23 44 44.9950000  0  5G18G 2G11G19G 6
  22008348.171     8562005.729 6   5315528.60121
  20060702.4444  -21032163.17547  -7844345.53362
  21929417.530    -8513238.351 6    159014.71021
  19972371.413    -4762391.681 6  -1323267.03322
  21708180.601   -10631295.517 6  -7950736.61821
 91  3 22 23 44 59.9950000  0  5G18G 2G11G19G 6
  22015269.968     8598361.182 6   5343857.35321
  20054054.007   -21067100.334 7  -7871569.23422
  21931358.1404   -8503043.46046    166958.74961
  19972272.937    -4762927.158 6  -1323684.30322
  21699091.358   -10679054.144 5  -7987951.04821
 91  3 22 23 45 14.9950000  0  5G18G 2G11G19G 6
  22022195.8044    8634755.69146   5372216.53061
  20047419.6084  -21101971.65247  -7898741.63762
  21933322.2334   -8492719.84246    175003.09361
  19972180.585    -4763403.911 6  -1324055.80522
  21690005.4994  -10726815.72245  -8025167.76261
 91  3 22 23 45 29.9950000  0  5G18G 2G11G19G 6
  22029128.335     8671190.138 6   5400606.82821
  20040794.733   -21136775.746 7  -7925861.65422
  21935312.6404   -8482266.31846    183148.68561
  19972101.523    -4763820.649 6  -1324380.54922
  21680916.2574  -10774578.68545  -8062385.55861
 91  3 22 23 45 44.9950000  0  5G18G 2G11G19G 6
  22036071.4834    8707668.34046   5429031.21761
  20034185.851   -21171508.810 7  -7952926.32122
  21937327.1164   -8471679.18846    191398.36661
  19972032.194    -4764173.301 6  -1324655.35522
  21671827.140   -10822339.240 5  -8099601.47821
 91  3 22 23 45 59.9950000  0  5G18G 2G11G19G 6
  22043019.1794    8744186.26046   5457486.56161
  20027589.9834  -21206174.20848  -7979938.26362
  21939366.3044   -8460962.07346    199749.33561
  19971979.366    -4764464.974 6  -1324882.64822
  21662737.8044  -10870100.61645  -8136818.04861
 91  3 22 23 46 14.9950000  0  5G18G 2G11G19G 6
  22049978.8584    8780742.81046   5485971.99961
  20021004.3514  -21240772.93447  -8006898.24662
  21941429.280    -8450116.258 6    208200.58921
  19971933.788    -4764696.666 6  -1325063.20322
  21653645.530   -10917863.855 5  -8174036.06421
 91  3 22 23 46 29.9950000  0  5G18G 2G11G19G 6
  22056942.6484    8817337.38546   5514487.06261
  20014433.468   -21275304.890 7  -8033806.21422
  21943519.2414   -8439141.78346    216752.10361
  19971903.101    -4764868.133 6
  21644563.312   -10965628.621 5  -8211255.28921
 91  3 22 23 46 44.9950000  0  5G18G 2G11G19G 6
  22063907.1324    8853968.24446   5543030.40561
  20007875.085   -21309772.580 7  -8060664.10622
  21945631.319    -8428041.217 6    225401.86921
  19971878.679    -4764981.794 6
  21635467.476   -11013397.330 5  -8248477.54721
 91  3 22 23 46 59.9950000  0  5G18G 2G11G19G 6
  22070891.898     8890632.460 6   5571599.74821
  20001327.968   -21344177.677 7  -8087473.21422
  21947767.1404   -8416816.68446    234148.22561
  19971868.538    -4765039.358 6
  21626373.648   -11061171.699 5  -8285704.23721
 91  3 22 23 47 14.9950000  0  5G18G 2G11G19G 6
  22077870.9214    8927336.93746   5600200.44961
  19994794.2734  -21378513.63547  -8114228.45062
  21949928.1634   -8405461.62046    242996.29061
  19971867.694    -4765033.990 6
  21617286.5854  -11108944.85445  -8322929.97361
 91  3 22 23 47 29.9950000  0  5G18G 2G11G19G 6
  22084862.5074    8964083.29046   5628833.78461
  19988274.304   -21412778.437 7  -8140928.24522
  21952112.1164   -8393974.44146    251947.31361
  19971885.624    -4764963.720 6
  21608192.171   -11156714.811 5  -8360153.22921
 91  3 22 23 47 44.9950000  0  5G18G 2G11G19G 6
  22091870.0384    9000870.32846   5657498.83561
  19981766.929   -21446973.472 7  -8167573.67522
  21954321.944    -8382356.677 6    261000.09121
  19971907.655    -4764829.659 6
  21599103.9834  -11204482.85145  -8397374.97661
 91  3 22 23 47 59.9950000  0  5G18G 2G11G19G 6
  22098873.6634    9037693.16846   5686191.76661
  19975272.108   -21481102.438 7  -8194167.62022
  21956559.7024   -8370612.21246    270151.58861
  19971949.6404   -4764635.47546
  21590016.4684  -11252252.58445  -8434598.05561
 91  3 22 23 48 14.9950000  0  5G18G 2G11G19G 6
  22105883.9444    9074556.82246   5714916.50661
  19968790.7884  -21515160.79747  -8220706.54562
  21958817.7964   -8358736.70246    279405.19461
  19971994.569    -4764376.426 6
  21580926.812   -11300019.412 5  -8471818.85421
 91  3 22 23 48 29.9950000  0  5G18G 2G11G19G 6
  22112911.726     9111454.063 6   5743667.43721
  19962321.312   -21549155.058 7  -8247195.52622
  21961099.7734   -8346736.90246    288755.64961
  19972056.062    -4764058.970 6  -1324566.45022
  21571835.405   -11347789.844 5  -8509042.49221
 91  3 22 23 48 44.9950000  0  5G18G 2G11G19G 6
  22119934.5774    9148386.32146   5772445.65061
  19955865.585   -21583083.940 7  -8273633.56223
  21963412.9054   -8334611.57446    298203.92261
  19972126.202    -4763681.635 6  -1324272.43022
  21562743.374   -11395562.276 5  -8546267.64921
 91  3 22 23 48 59.9950000  0  5G18G 2G11G19G 6
  22126969.780     9185354.300 6   5801251.67721
  19949421.741   -21616945.846 7  -8300019.41022
  21965743.0304   -8322359.29846    307751.11161
  19972211.288    -4763242.692 6  -1323930.41822
  21553652.062   -11443335.052 5  -8583493.09321
 91  3 22 23 49 14.9950000  0  5G18G 2G11G19G 6
  22134017.8984    9222363.33546   5830089.71261
  19942991.991   -21650735.671 7  -8326349.08922
  21968098.8664   -8309975.37546    317400.89761
  19972305.390    -4762737.169 6  -1323536.51822
  21544561.960   -11491102.995 5  -8620714.76721
 91  3 22 23 49 29.9950000  0  5G18G 2G11G19G 6
  22141064.0624    9259408.62946   5858956.00661
  19936574.0234  -21684458.03047  -8352626.19362
  21970478.3824   -8297464.56546    327149.53861
  19972416.312    -4762169.460 6  -1323094.16522
  21535471.413   -11538870.544 5  -8657936.13121
 91  3 22 23 49 44.9950000  0  5G18G 2G11G19G 6
  22148119.655     9296483.899 6   5887845.63821
  19930168.8354  -21718119.28447  -8378855.68662
  21972881.3824   -8284833.37446    336991.98661
  19972533.890    -4761545.610 6  -1322608.06722
  21526383.2264  -11586643.93045  -8695162.06261
 91  3 22 23 49 59.9950000  0  5G18G 2G11G19G 6
  22155182.7574    9333593.25546   5916761.84561
  19923776.608   -21751714.320 7  -8405033.58122
  21975310.2654   -8272076.78446    346932.15261
  19972664.483    -4760860.371 6  -1322074.13022
  21517292.444   -11634418.013 5  -8732388.51321
 91  3 22 23 50 14.9950000  0  5G18G 2G11G19G 6
  22162251.8124    9370744.61445   5945710.77661
  19917397.5624  -21785235.37547  -8431153.82062
  21977761.6324   -8259187.37746    356975.80261
  19972807.054    -4760106.056 6  -1321486.36522
  21508203.577   -11682184.851 5  -8769609.34321
 91  3 22 23 50 29.9950000  0  5G18G 2G11G19G 6
  22169327.866     9407930.090 5   5974686.28521
  19911031.3194  -21818690.03147  -8457222.33662
  21980238.9214   -8246172.96146    367116.87161
  19972967.233    -4759289.945 6  -1320850.45222
  21499112.8194  -11729951.97945  -8806830.38861
 91  3 22 23 50 44.9950000  0  5G18G 2G11G19G 6
  22176411.062     9445151.681 6   6003689.92421
  19904678.0384  -21852075.60947  -8483237.01262
  21982738.015    -8233031.120 6    377357.22421
  19973130.4604   -4758409.16746  -1320164.14162
  21490024.483   -11777716.612 5  -8844049.48021
 91  3 22 23 50 59.9950000  0  5G18G 2G11G19G 6
  22183499.874     9482398.330 6   6032713.09921
  19898335.7104  -21885403.79247  -8509206.96362
  21985261.265    -8219773.660 6    387687.67421
  19973309.874    -4757475.656 6  -1319436.74622
  21480930.663   -11825490.389 5  -8881275.70921
 91  3 22 23 51 14.9950000  0  5G18G 2G11G19G 6
  22190591.046     9519680.968 6   6061764.31921
  19892006.6084  -21918662.96047  -8535123.14262
  21987808.6944   -8206389.25046    398117.04361
  19973496.663    -4756477.475 6  -1318658.95222
  21471842.4914  -11873261.43845  -8918499.80961
 91  3 22 23 51 29.9950000  0  5G18G 2G11G19G 6
  22197696.429     9556997.193 6   6090841.70621
  19885690.1324  -21951855.51347  -8560987.41162
  21990379.9374   -8192880.43546    408643.35861
  19973701.9994   -4755416.83946  -1317832.49162
  21462750.5464  -11921032.04145  -8955723.56161
 91  3 22 23 51 44.9950000  0  5G18G 2G11G19G 6
  22204805.273     9594345.035 6   6119943.72621
  19879386.476   -21984982.824 7  -8586800.84522
  21992974.0934   -8179248.82246    419265.34661
  19973912.405    -4754294.929 6  -1316958.29722
  21453659.280   -11968803.479 5  -8992947.95521
 91  3 22 23 51 59.9950000  0  5G18G 2G11G19G 6
  22211912.538     9631722.015 6   6149068.45021
  19873094.523   -22018047.039 7  -8612565.11422
  21995589.9994   -8165496.92446    429981.07561
  19974139.3124   -4753114.00146  -1316038.10062
  21444568.6014  -12016577.84345  -9030174.64861
 91  3 22 23 52 14.9950000  0  5G18G 2G11G19G 6
  22219036.2494    9669134.79246   6178221.07461
  19866813.608   -22051041.365 7  -8638274.92523
  21998232.718    -8151617.964 6    440795.80021
  19974376.054    -4751867.118 6  -1315066.51922
  21435481.015   -12064348.273 5  -9067398.25521
 91  3 22 23 52 29.9950000  0  5G18G 2G11G19G 6
  22226161.6014    9706577.70846   6207397.18761
  19860548.468   -22083971.363 7  -8663934.61422
  22000898.5384   -8137617.71846    451705.04761
  19974626.663    -4750559.632 6  -1314047.70322
  21426387.280   -12112120.160 5  -9104623.02421
 91  3 22 23 52 44.9950000  0  5G18G 2G11G19G 6
  22233290.546     9744045.000 6   6236592.27321
  19854293.655   -22116842.837 7  -8689548.70123
  22003582.905    -8123502.117 6    462704.17721
  19974882.773    -4749197.168 6  -1312986.06522
  21417295.3434  -12159899.11445  -9141853.26361
 91  3 22 23 52 59.9950000  0  5G18G 2G11G19G 6
  22240426.905     9781545.230 6   6265813.03021
  19848051.632   -22149646.491 7  -8715109.93822
  22006293.2494   -8109262.20446    473800.17161
  19975155.218    -4747770.129 6  -1311874.10022
  21408209.913   -12207675.622 5  -9179081.63921
 91  3 22 23 53 14.9950000  0  5G18G 2G11G19G 6
  22247567.9834    9819080.68246   6295061.25561
  19841821.616   -22182379.622 7  -8740616.22222
  22009027.2494   -8094895.58046    484994.91561
  19975438.858    -4746275.975 6  -1310709.84122
  21399112.733   -12255447.014 5  -9216305.99521
 91  3 22 23 53 29.9950000  0  5G18G 2G11G19G 6
  22254718.265     9856644.029 6   6324331.20821
  19835605.491   -22215049.855 7  -8766073.49522
  22011783.046    -8080410.046 6    496282.31121
  19975737.702    -4744722.219 6  -1309499.14622
  21390022.9214  -12303220.74645  -9253532.20261
 91  3 22 23 53 44.9950000  0  5G18G 2G11G19G 6
  22261871.304     9894233.461 6   6353621.48121
  19829400.265   -22247658.464 7  -8791482.74523
  22014563.0694   -8065807.09746    507661.18961
  19976040.483    -4743109.983 6  -1308242.87222
  21380929.1404  -12350998.05845  -9290761.18161
 91  3 22 23 53 59.9950000  0  5G18G 2G11G19G 6
  22269030.1404    9931852.48546   6382934.80161
  19823207.155   -22280202.073 8  -8816841.35323
  22017364.148    -8051083.535 6    519134.05521
  19976362.155    -4741435.711 6  -1306938.26222
  21371834.9684  -12398775.25845  -9327990.07061
 91  3 22 23 54 14.9950000  0  5G18G 2G11G19G 6
  22276193.8194    9969504.87845   6412274.15461
  19817027.710   -22312676.281 8  -8842145.87723
  22020190.2264   -8036235.11846    530704.22061
  19976692.491    -4739694.763 6  -1305581.69522
  21362748.077   -12446547.954 5  -9365215.45121
 91  3 22 23 54 29.9950000  0  5G18G 2G11G19G 6
  22283364.515    10007184.511 5   6441634.70121
  19810859.976   -22345087.222 8  -8867401.10622
  22023038.913    -8021268.059 6    542366.81021
  19977034.382    -4737893.200 6  -1304177.89922
  21353654.2024  -12494322.02745  -9402441.91861
 91  3 22 23 54 44.9950000  0  5G18G 2G11G19G 6
  22290540.827    10044900.492 5   6471023.58321
  19804706.265   -22377425.206 8  -8892599.48522
  22025910.273    -8006173.144 6    554129.05521
  19977390.296    -4736021.401 6  -1302719.36722
  21344569.858   -12542087.801 5  -9439661.90221
 91  3 22 23 54 59.9950000  0  5G18G 2G11G19G 6
  22297727.718    10082645.970 5   6500435.44521
  19798566.116   -22409696.885 8  -8917746.19322
  22028806.3434   -7990957.30046    565985.51161
  19977760.546    -4734085.822 6  -1301211.14122
  21335474.9374  -12589851.87045  -9476880.56961
 91  3 22 23 55 14.9950000  0  5G18G 2G11G19G 6
  22304911.6244   10120424.64445   6529873.19161
  19792437.554   -22441898.617 8  -8942838.40723
  22031724.476    -7975617.145 6    577938.83521
  19978138.507    -4732082.784 6  -1299650.34722
  21326389.905   -12637610.474 5  -9514094.97821
 91  3 22 23 55 29.9950000  0  5G18G 2G11G19G 6
  22312108.3584   10158227.56145   6559329.78861
  19786320.429   -22474038.907 8  -8967882.73723
  22034665.9134   -7960161.27946    589982.33961
  19978535.429    -4730020.640 6  -1298043.50022
  21317301.0304  -12685371.85845  -9551311.54861
 91  3 22 23 55 44.9950000  0  5G18G 2G11G19G 6
  22319304.077    10196051.670 5   6588802.93721
  19780215.718   -22506120.705 7  -8992881.49022
  22037629.1084   -7944592.78046    602113.59861
  19978934.999    -4727902.108 6  -1296392.71322
  21308211.452   -12733138.812 5  -9588532.45621
 91  3 22 23 55 59.9950000  0  5G18G 2G11G19G 6
  22326505.288    10233899.505 5   6618294.57421
  19774121.366   -22538140.701 7  -9017832.08922
  22040614.1634   -7928908.62746    614334.97561
  19979351.085    -4725723.719 6  -1294695.28622
  21299122.0074  -12780907.87645  -9625755.00361
 91  3 22 23 56 14.9950000  0  5G18G 2G11G19G 6
  22333713.804    10271769.925 5   6647803.79821
  19768042.062   -22570100.426 7  -9042735.72023
  22043621.2414   -7913110.82446    626644.93161
  19979775.155    -4723487.121 6  -1292952.49822
  21290032.4134  -12828680.66545  -9662980.46361
 91  3 22 23 56 29.9950000  0  5G18G 2G11G19G 6
  22340925.273    10309667.711 5   6677334.35021
  19761972.944   -22601994.658 7  -9067588.31923
  22046649.1874   -7897194.16246    639047.48561
  19980216.648    -4721186.967 6  -1291160.19022
  21280938.616   -12876451.715 5  -9700204.54721
 91  3 22 23 56 44.9950000  0  5G18G 2G11G19G 6
  22348139.5854   10347594.36445   6706887.40361
  19755916.444   -22633821.977 7  -9092388.77422
  22049700.4294   -7881157.36346    651543.66361
  19980663.241    -4718821.558 6  -1289317.03522
  21271849.4444  -12924219.39545  -9737426.03461
 91  3 22 23 56 59.9950000  0  5G18G 2G11G19G 6
  22355362.3274   10385548.37545   6736461.76461
  19749872.023   -22665582.867 7  -9117137.46723
  22052773.233    -7865001.164 6    664132.85921
  19981127.335    -4716391.340 6  -1287423.37522
  21262760.6084  -12971984.09145  -9774645.18161
 91  3 22 23 57 14.9950000  0  5G18G 2G11G19G 6
  22362592.3044   10423522.14645   6766051.52061
  19743837.741   -22697285.066 7  -9141840.43023
  22055870.6404   -7848733.58946    676808.85161
  19981600.101    -4713903.878 6  -1285485.10622
  21253670.0934  -13019753.43845  -9811867.95261
 91  3 22 23 57 29.9950000  0  5G18G 2G11G19G 6
  22369825.163    10461523.501 6   6795662.77521
  19737817.819   -22728920.477 7  -9166491.35423
  22058990.3044   -7832346.84146    689577.71361
  19982087.741    -4711350.900 6  -1283495.78722
  21244578.608   -13067519.137 5  -9849087.89121
 91  3 22 23 57 44.9950000  0  5G18G 2G11G19G 6
  22377061.023    10499551.138 6   6825294.50921
  19731812.108   -22760490.382 7  -9191091.23123
  22062128.515    -7815842.269 6    702438.37221
  19982583.007    -4708733.421 6  -1281456.20522
  21235488.8824  -13115282.24945  -9886305.80361
 91  3 22 23 57 59.9950000  0  5G18G 2G11G19G 6
  22384302.6714   10537607.85646   6854948.89861
  19725817.108   -22791992.050 7  -9215637.93623
  22065295.0544   -7799217.30446    715392.85261
  19983096.390    -4706048.687 6  -1279364.22622
  21226403.5304  -13163039.94145  -9923519.50361
 91  3 22 23 58 14.9950000  0  5G18G 2G11G19G 6
  22391550.312    10575686.194 6   6884620.12121
  19719832.804   -22823431.745 7  -9240136.35323
  22068476.6014   -7782478.75046    728435.85161
  19983616.796    -4703302.843 6  -1277224.62622
  21217313.054   -13210798.434 5  -9960733.81521
 91  3 22 23 58 29.9950000  0  5G18G 2G11G19G 6
  22398801.1244   10613789.79346   6914311.02961
  19713862.202   -22854806.396 7  -9264584.08323
  22071686.140    -7765623.702 6    741569.62821
  19984154.804    -4700492.937 6  -1275035.10422
  21208225.702   -13258554.626 5  -9997946.35521
 91  3 22 23 58 44.9950000  0  5G18G 2G11G19G 6
  22406055.0624   10651910.77446   6944015.50061
  19707903.874   -22886123.208 7  -9288986.74623
  22074914.7184   -7748659.44846    754788.48261
  19984696.296    -4697625.826 6  -1272801.00622
  21199135.452   -13306315.333 5 -10035162.38821
 91  3 22 23 58 59.9950000  0  5G18G 2G11G19G 6
  22413314.5544   10690054.21645   6973737.46061
  19701956.593   -22917377.019 7  -9313340.31523
  22078164.9054   -7731581.21846    768096.16861
  19985255.968    -4694696.438 6  -1270518.38322
  21190048.0384  -13354075.40545 -10072377.93461
 91  3 22 23 59 14.9950000  0  5G18G 2G11G19G 6
  22420575.6324   10728224.60245   7003480.39461
  19696021.585   -22948563.216 7  -9337641.19423
  22081437.1164   -7714384.63246    781496.07061
  19985823.858    -4691699.863 6  -1268183.40622
  21180962.007   -13401830.051 5 -10109589.23621
 91  3 22 23 59 29.9950000  0  5G18G 2G11G19G 6
  22427845.960    10766416.070 5   7033239.76721
  19690097.702   -22979687.793 7  -9361894.06223
  22084729.0624   -7697075.66046    794983.55061
  19986408.046    -4688641.625 6  -1265800.38422
  21171874.1874  -13449584.93745 -10146800.75061
 91  3 22 23 59 44.9950000  0  5G18G 2G11G19G 6
  22435114.3354   10804631.43345   7063017.78561
  19684187.319   -23010746.902 7  -9386095.91523
  22088045.7024   -7679650.82346    808561.30261
  19987002.382    -4685517.868 6  -1263366.30322
  21162788.1404  -13497336.08245 -10184009.34361
 91  3 22 23 59 59.9950000  0  5G18G 2G11G19G 6
  22442393.4524   10842873.25345   7092816.38361
  19678290.515   -23041738.027 7  -9410244.79523
  22091384.226    -7662107.870 6    822231.09521
  19987610.280    -4682326.272 6  -1260879.36022
  21153704.1164  -13545081.01845 -10221213.09861
 91  3 23  0  0 14.9950000  0  5G18G 2G11G19G 6
  22449673.3044   10881133.69145   7122629.48361
  19672405.312   -23072668.757 8  -9434346.61223
  22094743.9994   -7644454.66946    835986.80061
  19988226.788    -4679074.478 6  -1258345.51022
  21144617.7804  -13592827.19846 -10258417.82161
 91  3 23  0  0 29.9950000  0  5G18G 2G11G19G 6
  22456962.2804   10919416.37945   7152459.94961
  19666532.163   -23103535.268 8  -9458398.39123
  22098123.530    -7626687.530 6    849831.27821
  19988860.374    -4675758.170 6  -1255761.40122
  21135534.179   -13640570.394 6 -10295620.23621
 91  3 23  0  0 44.9950000  0  5G18G 2G11G19G 6
  22464246.382    10957725.567 5   7182311.04721
  19660669.773   -23134333.301 7  -9482396.81023
  22101528.5464   -7608802.51346    863767.61361
  19989501.124    -4672373.041 6  -1253123.65622
  21126447.491   -13688306.462 6 -10332817.08721
 91  3 23  0  0 59.9950000  0  5G18G 2G11G19G 6
  22471546.398    10996054.506 5   7212177.54421
  19654821.812   -23165069.386 8  -9506346.95423
  22104952.5074   -7590806.33446    877790.56861
  19990160.499    -4668925.635 6  -1250437.38922
  21117364.6944  -13736041.69346 -10370013.27561
 91  3 23  0  1 14.9950000  0  5G18G 2G11G19G 6
  22478840.398    11034399.891 5   7242056.85221
  19648983.585   -23195745.975 8  -9530250.74423
  22108395.3904   -7572701.97646    891897.82961
  19990826.444    -4665418.369 6  -1247704.47422
  21108278.8984  -13783778.61046 -10407210.79661
 91  3 23  0  1 29.9950000  0  5G18G 2G11G19G 6
  22486145.4134   11072769.58445   7271955.09461
  19643158.757   -23226355.329 7  -9554102.14223
  22111865.124    -7554481.772 6    906095.35421
  19991508.765    -4661843.200 6  -1244918.65222
  21099197.1714  -13831509.10646 -10444403.29061
 91  3 23  0  1 44.9950000  0  5G18G 2G11G19G 6
  22493452.804    11111165.197 5   7301873.55621
  19637347.718   -23256895.655 8  -9577899.75723
  22115355.616    -7536144.134 6    920384.37821
  19992200.140    -4658198.411 6  -1242078.57422
  21090113.3124  -13879231.25746 -10481589.28561
 91  3 23  0  1 59.9950000  0  5G18G 2G11G19G 6
  22500760.538    11149582.489 5   7331808.87321
  19631547.210   -23287370.751 7  -9601646.54223
  22118864.8124   -7517693.03646    934761.82561
  19992907.905    -4654487.492 6  -1239186.96822
  21081036.249   -13926948.696 6 -10518771.62521
 91  3 23  0  2 14.9950000  0  5G18G 2G11G19G 6
  22508076.4374   11188027.28945   7361765.64461
  19625762.483   -23317775.019 8  -9625338.13023
  22122399.3584   -7499122.98546    949231.96561
  19993625.960    -4650704.645 6  -1236239.31322
  21071958.3354  -13974655.57146 -10555945.73161
 91  3 23  0  2 29.9950000  0  5G18G 2G11G19G 6
  22515397.0074   11226496.15845   7391741.18261
  19619990.062   -23348111.254 8  -9648976.72022
  22125955.9294   -7480437.22146    963792.26361
  19994358.304    -4646852.588 6  -1233237.73422
  21062878.577   -14022354.671 6 -10593113.77621
 91  3 23  0  2 44.9950000  0  5G18G 2G11G19G 6
  22522721.757    11264993.510 5   7421738.90921
  19614231.194   -23378375.042 8  -9672558.84423
  22129535.7104   -7461631.45346    978446.06361
  19995105.6014   -4642926.61846  -1230178.56062
  21053805.1794  -14070041.15646 -10630271.97761
 91  3 23  0  2 59.9950000  0  5G18G 2G11G19G 6
  22530054.3194   11303510.73445   7451752.09661
  19608484.398   -23408575.049 8  -9696091.27122
  22133131.8274   -7442714.65546    993186.38461
  19995870.640    -4638935.519 6  -1227068.63522
  21044732.273   -14117723.635 6 -10667427.06921
 91  3 23  0  3 14.9950000  0  5G18G 2G11G19G 6
  22537389.476    11342051.895 5   7481783.97521
  19602749.765   -23438706.160 8  -9719570.02122
  22136755.8124   -7423682.01346   1008016.97361
  19996636.9994   -4634873.99646  -1223903.83862
  21035661.4294  -14165397.00146 -10704575.06161
 91  3 23  0  3 29.9950000  0  5G18G 2G11G19G 6
  22544725.148    11380618.758 5   7511835.86421
  19597028.2804  -23468766.58848  -9742993.68662
  22140399.3984   -7404531.96546   1022939.05561
  19997425.7104   -4630740.24146  -1220682.75662
  21026589.0934  -14213059.23646 -10741714.37861
 91  3 23  0  3 44.9950000  0  5G18G 2G11G19G 6
  22552067.8274   11419201.67645   7541900.28761
  19591320.5854  -23498765.90848  -9766369.73763
  22144065.554    -7385274.227 6   1037945.03321
  19998224.765    -4626543.585 6  -1217412.66222
  21017520.0384  -14260719.80046 -10778852.38461
 91  3 23  0  3 59.9950000  0  5G18G 2G11G19G 6
  22559418.7734   11457806.37846   7571981.66861
  19585625.3744  -23528698.38948  -9789693.71062
  22147750.3274   -7365903.32446   1053039.21061
  19999038.546    -4622278.172 6  -1214088.99022
  21008449.6634  -14308372.78246 -10815984.48161
 91  3 23  0  4 14.9950000  0  5G18G 2G11G19G 6
  22566766.023    11496434.504 5   7602081.35221
  19579942.429   -23558561.898 8  -9812963.93622
  22151459.710    -7346417.490 6   1068222.92021
  19999860.616    -4617941.971 6  -1210710.15822
  20999386.718   -14356015.915 6 -10853108.92221
 91  3 23  0  4 29.9950000  0  5G18G 2G11G19G 6
  22574120.9374   11535085.56145   7632198.85861
  19574272.8124  -23588356.86548  -9836180.75662
  22155189.1404   -7326817.60346   1083495.53361
  20000701.343    -4613535.314 6  -1207276.41722
  20990321.398   -14403649.440 6 -10890225.86721
 91  3 23  0  4 44.9950000  0  5G18G 2G11G19G 6
  22581480.0624   11573757.49545   7662332.63861
  19568614.226   -23618085.008 8  -9859345.49322
  22158938.554    -7307105.423 6   1098855.62921
  20001552.226    -4609059.655 6  -1203788.91822
  20981259.8274  -14451274.90846 -10927336.53061
 91  3 23  0  4 59.9940000  0  5G18G 2G11G19G 6
  22588843.4004   11612444.05945   7692477.78761
  19562969.8224  -23647747.68248  -9882459.22762
  22162713.4324   -7287285.80246   1114299.44661
  20002417.775    -4604518.416 6  -1200250.31622
  20972195.6434  -14498892.25146 -10964440.86161
 91  3 23  0  5 14.9940000  0  5G18G 2G11G19G 6
  22596207.8544   11651153.97945   7722641.16761
  19557337.736   -23677344.894 7  -9905521.95122
  22166507.111    -7267352.497 6   1129831.85521
  20003293.807    -4599906.910 6  -1196656.95622
  20963137.0494  -14546503.76446 -11001540.65661
 91  3 23  0  5 29.9940000  0  5G18G 2G11G19G 6
  22603577.479    11689884.103 5   7752820.28021
  19551720.0964  -23706875.67247  -9928532.90762
  22170318.7294   -7247307.83746   1145451.03261
  20004184.0494   -4595226.29746  -1193009.75462
  20954078.252   -14594107.032 6 -11038634.02021
 91  3 23  0  5 44.9940000  0  5G18G 2G11G19G 6
  22610955.924    11728632.176 5   7783013.37421
  19546110.8074  -23736341.94847  -9951493.60162
  22174153.635    -7227154.073 6   1161155.22421
  20005087.502    -4590478.468 6  -1189310.16922
  20945019.869   -14641703.752 6 -11075722.28921
 91  3 23  0  5 59.9940000  0  5G18G 2G11G19G 6
  22618332.2214   11767398.97945   7813221.06061
  19540516.4794  -23765741.86947  -9974402.59263
  22178010.6274   -7206889.61446   1176945.66361
  20006006.541    -4585661.372 6  -1185556.61322
  20935965.6274  -14689291.96746 -11112803.92361
 91  3 23  0  6 14.9940000  0  5G18G 2G11G19G 6
  22625710.252    11806187.918 5   7843445.99821
  19534934.9324  -23795072.67747  -9997257.72763
  22181887.3614   -7186512.12846   1192824.18161
  20006931.6354   -4580772.33446  -1181747.00162
  20926910.627   -14736868.838 6 -11149876.72221
 91  3 23  0  6 29.9940000  0  5G18G 2G11G19G 6
  22633091.846    11844992.353 5   7873682.98621
  19529365.5334  -23824339.68047 -10020063.14362
  22185787.111    -7166027.217 6   1208786.39421
  20007880.963    -4575816.632 6  -1177885.44322
  20917859.9324  -14784439.59746 -11186944.75561
 91  3 23  0  6 44.9940000  0  5G18G 2G11G19G 6
  22640479.057    11883818.117 5   7903936.63221
  19523810.557   -23853537.662 7 -10042814.77622
  22189706.041    -7145429.831 6   1224836.26421
  20008834.111    -4570788.828 6  -1173967.69922
  20908806.4004  -14831998.84246 -11224003.81361
 91  3 23  0  6 59.9940000  0  5G18G 2G11G19G 6
  22647876.104    11922662.295 5   7934204.61521
  19518265.8154  -23882669.26547 -10065514.68662
  22193647.1974   -7124722.79446   1240971.57261
  20009805.268    -4565691.281 6  -1169995.60922
  20899758.510   -14879548.924 6 -11261055.73921
 91  3 23  0  7 14.9940000  0  5G18G 2G11G19G 6
  22655272.744    11961523.144 5   7964485.58221
  19512734.3154  -23911735.88647 -10088163.96363
  22197606.971    -7103907.706 6   1257191.07621
  20010786.705    -4560525.418 6  -1165970.28022
  20890710.5104  -14927091.10046 -11298101.50261
 91  3 23  0  7 29.9940000  0  5G18G 2G11G19G 6
  22662664.2444   12000399.14445   7994778.32661
  19507216.1744  -23940738.93148 -10110763.70062
  22201588.455    -7082986.278 6   1273493.43921
  20011785.158    -4555292.483 6  -1161892.69422
  20881667.2294  -14974626.51746 -11335141.99861
 91  3 23  0  7 44.9940000  0  5G18G 2G11G19G 6
  22670071.4944   12039296.41045   8025087.65961
  19501710.6824  -23969671.57248 -10133308.57663
  22205592.666    -7061952.051 6   1289883.70121
  20012793.525    -4549985.631 6  -1157757.50822
  20872623.7054  -15022148.39146 -11372171.94461
 91  3 23  0  7 59.9940000  0  5G18G 2G11G19G 6
  22677476.9714   12078210.52645   8055410.12161
  19496216.7444  -23998538.97448 -10155802.61762
  22209614.010    -7040810.340 6   1306357.71721
  20013818.010    -4544609.638 6  -1153568.44722
  20863582.838   -15069661.382 6 -11409194.96721
 91  3 23  0  8 14.9940000  0  5G18G 2G11G19G 6
  22684887.6504   12117140.02845   8085744.58561
  19490735.4864  -24027341.62648 -10178246.20162
  22213657.385    -7019561.876 6   1322914.91821
  20014851.9324   -4539164.92946  -1149325.84562
  20854543.2914  -15117165.84646 -11446211.35061
 91  3 23  0  8 29.9940000  0  5G18G 2G11G19G 6
  22692299.4324   12156089.49445   8116094.59461
  19485267.4004  -24056075.12048 -10200635.89862
  22217722.9244   -6998202.50446   1339558.53361
  20015901.940    -4533647.256 6  -1145026.38522
  20845506.9554  -15164657.35146 -11483217.63661
 91  3 23  0  8 44.9940000  0  5G18G 2G11G19G 6
  22699712.900    12195050.051 5   8146453.23921
  19479811.9404  -24084747.62248 -10222978.07062
  22221809.080    -6976740.929 6   1356281.78821
  20016963.5884   -4528064.68246  -1140676.35862
  20836467.838   -15212144.052 6 -11520220.17121
 91  3 23  0  8 59.9940000  0  5G18G 2G11G19G 6
  22707123.385    12234019.876 5   8176819.13421
  19474366.588   -24113360.688 8 -10245273.92622
  22225909.299    -6955178.747 6   1373083.43521
  20018041.7444   -4522418.49946  -1136276.76562
  20827432.8614  -15259627.12546 -11557219.88661
 91  3 23  0  9 14.9940000  0  5G18G 2G11G19G 6
  22714539.4554   12273003.54845   8207195.80361
  19468933.947   -24141910.195 8 -10267520.24922
  22230035.377    -6933511.922 6   1389966.63321
  20019125.658    -4516704.227 6  -1131824.10722
  20818397.8614  -15307102.13546 -11594213.30361
 91  3 23  0  9 29.9940000  0  5G18G 2G11G19G 6
  22721963.463    12312000.551 5   8237582.84721
  19463512.5964  -24170395.84148 -10289716.82162
  22234175.8464   -6911740.41346   1406931.39861
  20020227.025    -4510921.504 6  -1127318.11522
  20809366.6114  -15354568.57546 -11631200.04361
 91  3 23  0  9 44.9940000  0  5G18G 2G11G19G 6
  22729382.8464   12351009.52645   8267979.20461
  19458104.1504  -24198819.37248 -10311864.98762
  22238338.408    -6889866.325 6   1423976.09521
  20021340.244    -4505072.157 6  -1122760.20622
  20800334.627   -15402028.240 6 -11668181.51921
 91  3 23  0  9 59.9940000  0  5G18G 2G11G19G 6
  22736813.0184   12390035.00545   8298388.45361
  19452707.205   -24227175.092 8 -10333960.30822
  22242518.307    -6867884.260 6   1441104.92721
  20022470.244    -4499150.520 6  -1118145.96222
  20791307.0024  -15449475.14046 -11705153.04161
 91  3 23  0 10 14.9940000  0  5G18G 2G11G19G 6
  22744243.4474   12429071.61545   8328806.38661
  19447324.049   -24255468.573 8 -10356007.13122
  22246721.955    -6845800.027 6   1458313.35521
  20023604.7914   -4493161.86546  -1113479.50262
  20782279.322   -15496914.581 6 -11742118.75321
 91  3 23  0 10 29.9940000  0  5G18G 2G11G19G 6
  22751673.7684   12468121.38745   8359234.56861
  19441952.275   -24283698.056 8 -10378004.08922
  22250946.783    -6823612.187 6   1475602.53521
  20024760.197    -4487104.228 6  -1108759.29022
  20773253.9634  -15544344.77246 -11779077.25861
 91  3 23  0 10 44.9940000  0  5G18G 2G11G19G 6
  22759109.869    12507183.660 5   8389672.45821
  19436592.479   -24311863.423 8 -10399951.08222
  22255189.150    -6801320.898 6   1492972.31821
  20025924.150    -4480977.479 6  -1103985.22622
  20764228.8694  -15591765.42446 -11816028.32561
 91  3 23  0 10 59.9940000  0  4G 2G11G19G 6
  19431245.5024  -24339959.95347 -10421844.44262
  22259453.4864   -6778921.55946   1510426.31561
  20027106.518    -4474776.688 6  -1099153.46422
  20755209.971   -15639171.452 6 -11852968.00621
 91  3 23  0 11 14.9940000  0  4G 2G11G19G 6
  19425911.3464  -24367996.70547 -10443691.22162
  22263732.486    -6756423.643 6   1527957.10621
  20028296.4324   -4468510.90946  -1094271.06862
  20746185.2214  -15686572.01246 -11889903.41061
 91  3 23  0 11 29.9940000  0  4G 2G11G19G 6
  19420588.6274  -24395969.36647 -10465488.06462
  22268033.221    -6733822.843 6   1545568.07021
  20029506.072    -4462175.574 6  -1089334.46422
  20737171.0724  -15733962.35846 -11926830.86161
 91  3 23  0 11 44.9940000  0  4G 2G11G19G 6
  19415278.0024  -24423873.35148 -10487231.38962
  22272354.025    -6711114.803 6   1563262.58721
  20030723.6274   -4455765.89546  -1084339.93762
  20728154.541   -15781337.613 6 -11963746.56821
 91  3 23  0 11 59.9940000  0  4G 2G11G19G 6
  19409979.705   -24451715.407 8 -10508926.45023
  22276694.947    -6688306.899 6   1581034.93921
  20031956.510    -4449288.819 6  -1079292.89122
  20719139.6824  -15828704.63946 -12000655.84461
 91  3 23  0 12 14.9940000  0  4G 2G11G19G 6
  19404692.4324  -24479497.04847 -10530574.44062
  22281055.369    -6665400.802 6   1598883.79021
  20033199.5414   -4442745.58546  -1074194.29262
  20710127.072   -15876064.637 6 -12037559.65421
 91  3 23  0 12 29.9940000  0  4G 2G11G19G 6
  19399418.518   -24507217.675 8 -10552174.88723
  22285432.791    -6642396.051 6   1616809.51221
  20034459.3304   -4436135.51546  -1069043.61962
  20701116.3464  -15923416.75146 -12074457.32361
 91  3 23  0 12 44.9940000  0  4G 2G11G19G 6
  19394152.5964  -24534877.30747 -10573727.81363
  22289828.0024   -6619292.85746   1634811.93661
  20035729.1504   -4429458.54946  -1063840.81662
  20692108.299   -15970760.886 6 -12111348.77621
 91  3 23  0 12 59.9940000  0  4G 2G11G19G 6
  19388902.6354  -24562476.00548 -10595233.25263
  22294243.2604   -6596091.62346   1652890.77861
  20037017.0104   -4422714.60846  -1058585.82862
  20683100.2914  -16018096.84146 -12148233.84561
 91  3 23  0 13 14.9940000  0  4G 2G11G19G 6
  19383662.6664  -24590011.33648 -10616689.31563
  22298677.783    -6572790.190 6   1671047.68321
  20038309.1504   -4415901.12746  -1053276.64962
  20674091.838   -16065421.982 6 -12185110.49821
 91  3 23  0 13 29.9940000  0  4G 2G11G19G 6
  19378434.4554  -24617486.33348 -10638098.36463
  22303131.080    -6549391.976 6   1689280.01321
  20039619.6584   -4409021.10546  -1047915.62462
  20665089.2444  -16112739.25246 -12221981.00861
 91  3 23  0 13 44.9940000  0  4G 2G11G19G 6
  19373217.9554  -24644901.98748 -10659461.17263
  22307600.8384   -6525898.01846   1707586.94261
  20040938.5024   -4402075.08646  -1042503.17662
  20656089.190   -16160049.258 6 -12258845.86521
 91  3 23  0 13 59.9940000  0  4G 2G11G19G 6
  19368013.0884  -24672250.95648 -10680772.01663
  22312091.080    -6502301.536 6   1725973.76021
  20042276.5654   -4395055.99846  -1037033.78362
  20647087.0804  -16207344.75346 -12295699.41561
 91  3 23  0 14 14.9940000  0  4G 2G11G19G 6
  19362819.440   -24699537.352 8 -10702034.10023
  22316600.510    -6478606.851 6   1744437.10521
  20043624.0104   -4387967.76846  -1031510.51862
  20638088.5334  -16254629.56446 -12332544.62561
 91  3 23  0 14 29.9940000  0  4G 2G11G19G 6
  19357639.1664  -24726767.11548 -10723252.05563
  22321126.275    -6454820.168 6   1762972.14221
  20044986.5494   -4380816.38546  -1025938.04662
  20629091.7134  -16301909.47646 -12369386.02761
 91  3 23  0 14 44.9940000  0  4G 2G11G19G 6
  19352468.7444  -24753933.57248 -10744420.68363
  22325671.674    -6430934.970 6   1781583.93221
  20046360.0964   -4373594.93546  -1020310.96762
  20620097.3154  -16349177.46146 -12406218.13261
 91  3 23  0 14 59.9940000  0  4G 2G11G19G 6
  19347310.979   -24781034.222 8 -10765538.02923
  22330236.9324   -6406949.25146   1800274.06461
  20047747.2444   -4366300.94446  -1014627.37762
  20611104.947   -16396431.079 6 -12443039.06221
 91  3 23  0 15 14.9940000  0  4G 2G11G19G 6
  19342165.299   -24808076.879 8 -10786610.18723
  22334816.2834   -6382870.81946   1819036.41561
  20049146.7054   -4358942.03146  -1008893.19262
  20602112.885   -16443677.646 6 -12479854.47721
 91  3 23  0 15 29.9940000  0  4G 2G11G19G 6
  19337030.768   -24835062.660 8 -10807638.02323
  22339417.096    -6358701.150 6   1837869.87921
  20050564.2754   -4351519.14646  -1003109.16462
  20593124.9324  -16490918.14246 -12516665.16061
 91  3 23  0 15 44.9940000  0  4G 2G11G19G 6
  19331906.111   -24861990.755 8 -10828620.91223
  22344035.3544   -6334439.55046   1856774.95061
  20051984.502    -4344031.233 6   -997274.46222
  20584135.588   -16538151.473 6 -12553470.26121
 91  3 23  0 15 59.9940000  0  4G 2G11G19G 6
  19326794.190   -24888857.483 8 -10849555.98023
  22348668.8154   -6310082.84546   1875754.14661
  20053425.0724   -4336474.74046   -991386.32662
  20575150.924   -16585373.953 6 -12590266.91421
 91  3 23  0 16 14.9940000  0  4G 2G11G19G 6
  19321692.0024  -24915659.48648 -10870440.61863
  22353321.8854   -6285628.01146   1894809.80761
  20054875.9324   -4328846.18846   -985442.03762
  20566167.182   -16632582.111 6 -12627052.41521
 91  3 23  0 16 29.9940000  0  4G 2G11G19G 6
  19316604.666   -24942397.508 8 -10891275.39623
  22357994.4404   -6261075.94946   1913941.21961
  20056341.6114   -4321146.15446   -979442.04062
  20557184.1354  -16679776.27646 -12663826.99861
 91  3 23  0 16 44.9940000  0  4G 2G11G19G 6
  19311527.2914  -24969079.28448 -10912066.35763
  22362684.0024   -6236434.57446   1933142.23761
  20057816.9164   -4313382.17046   -973392.21462
  20548207.6824  -16726963.96046 -12700596.52761
 91  3 23  0 16 59.9940000  0  4G 2G11G19G 6
  19306461.6584  -24995698.60148 -10932808.64363
  22367389.8934   -6211697.87646   1952417.52561
  20059307.9474   -4305547.87246   -967287.60062
  20539229.0804  -16774138.77146 -12737356.04461
 91  3 23  0 17 14.9940000  0  4G 2G11G19G 6
  19301409.299   -25022253.455 8 -10953500.69623
  22372116.7524   -6186864.27846   1971768.31461
  20060813.4084   -4297641.30646   -961126.67162
  20530253.6114  -16821298.42346 -12774103.73461
 91  3 23  0 17 29.9940000  0  4G 2G11G19G 6
  19296367.6434  -25048749.27948 -10974146.75363
  22376859.768    -6161939.405 6   1991190.24021
  20062334.3854   -4289667.75346   -954913.54162
  20521283.565   -16868448.202 6 -12810843.73621
 91  3 23  0 17 44.9940000  0  4G 2G11G19G 6
  19291338.5104  -25075175.71448 -10994738.74163
  22381621.877    -6136913.221 6   2010691.10221
  20063862.9004   -4281616.73046   -948640.05062
  20512313.2444  -16915577.65046 -12847567.88961
 91  3 23  0 17 59.9940000  0  4G 2G11G19G 6
  19286319.9164  -25101542.02147 -11015283.87863
  22386402.283    -6111795.231 6   2030263.51321
  20065409.4084   -4273497.29646   -942313.25762
  20503348.1114  -16962695.69146 -12884283.15961
 91  3 23  0 18 14.9940000  0  4G 2G11G19G 6
  19281314.4164  -25127847.27348 -11035781.43563
  22391199.2444   -6086584.70446   2049908.02861
  20066966.3694   -4265308.38446   -935932.32562
  20494383.752   -17009801.222 6 -12920988.69021
 91  3 23  0 18 29.9940000  0  4G 2G11G19G 6
  19276319.6504  -25154092.76248 -11056232.42663
  22396014.588    -6061283.301 6   2069623.35021
  20068539.0724   -4257051.15946   -929498.15862
  20485423.025   -17056895.233 6 -12957685.23221
 91  3 23  0 18 44.9940000  0  4G 2G11G19G 6
  19271336.7684  -25180281.35448 -11076639.08163
  22400846.963    -6035894.104 6   2089407.07121
  20070120.6744   -4248728.57846   -923013.06462
  20476461.088   -17103980.450 6 -12994374.93321
 91  3 23  0 18 59.9940000  0  4G 2G11G19G 6
  19266365.0654  -25206411.12248 -11096999.90263
  22405696.1904   -6010415.56146   2109260.41761
  20071723.3614   -4240338.62546   -916475.47262
  20467504.252   -17151054.827 6 -13031056.18521
 91  3 23  0 19 14.9940000  0  4G 2G11G19G 6
  19261405.4634  -25232476.75848 -11117310.74963
  22410559.7134   -5984842.48246   2129187.45661
  20073328.8934   -4231875.81446   -909881.10962
  20458548.8304  -17198112.70846 -13067724.57561
 91  3 23  0 19 29.9940000  0  4G 2G11G19G 6
  19256456.4864  -25258480.66448 -11137573.49263
  22415443.416    -5959177.490 6   2149186.09421
  20074952.5964   -4223342.45146   -903231.76662
  20449597.760   -17245156.340 6 -13104381.87921
 91  3 23  0 19 44.9940000  0  4G 2G11G19G 6
  19251519.8934  -25284418.02348 -11157784.38263
  22420345.9944   -5933416.34646   2169259.62761
  20076591.3304   -4214733.75446   -896523.72162
  20440647.9944  -17292180.83946 -13141024.27161
 91  3 23  0 19 59.9940000  0  4G 2G11G19G 6
  19246594.6434  -25310302.19148 -11177953.82863
  22425265.822    -5907572.630 6   2189397.52721
  20078241.6434   -4206062.69846   -889767.08362
  20431700.682   -17339199.140 6 -13177661.83121
 91  3 23  0 20 14.9940000  0  4G 2G11G19G 6
  19241680.8224  -25336122.51848 -11198073.52263
  22430199.705    -5881635.830 6   2209607.96521
  20079904.6824   -4197318.52846   -882953.47762
  20422754.900   -17386200.375 6 -13214286.09721
 91  3 23  0 20 29.9940000  0  4G 2G11G19G 6
  19236778.307   -25361884.873 8 -11218148.04823
  22435153.3464   -5855612.02646   2229886.18061
  20081583.6044   -4188507.15946   -876087.51462
  20413813.0254  -17433190.14546 -13250901.42461
 91  3 23  0 20 44.9940000  0  4G 2G11G19G 6
  19231887.635   -25387587.581 8 -11238176.08523
  22440121.7914   -5829499.87146   2250233.25361
  20083269.9714   -4179626.82246   -869167.80262
  20404876.799   -17480166.773 6 -13287506.51521
 91  3 23  0 20 59.9940000  0  4G 2G11G19G 6
  19227008.768   -25413228.146 8 -11258155.70123
  22445109.1274   -5803297.16746   2270650.89661
  20084975.3934   -4170674.98046   -862192.37762
  20395938.307   -17527127.368 6 -13324099.10621
 91  3 23  0 21 14.9940000  0  4G 2G11G19G 6
  19222140.2834  -25438808.54248 -11278088.44263
  22450110.4084   -5777006.04946   2291137.40861
  20086691.0024   -4161653.42946   -855162.63462
  20387005.721   -17574073.675 6 -13360680.55921
 91  3 23  0 21 29.9940000  0  4G 2G11G19G 6
  19217284.8694  -25464322.44848 -11297969.36863
  22455132.1974   -5750620.66846   2311697.37361
  20088426.5184   -4152555.82446   -848073.63462
  20378075.244   -17620999.269 6 -13397245.88321
 91  3 23  0 21 44.9940000  0  4G 2G11G19G 6
  19212442.2914  -25489771.99248 -11317800.14463
  22460168.4944   -5724143.30646   2332329.04061
  20090165.8384   -4143384.00746   -840926.79962
  20369149.1904  -17667906.06246 -13433796.55861
 91  3 23  0 21 59.9940000  0  4G 2G11G19G 6
  19207611.2054  -25515161.79448 -11337584.36663
  22465225.3304   -5697578.94046   2353028.48061
  20091927.3304   -4134142.48646   -833725.65262
  20360225.7524  -17714798.30746 -13470335.89861
 91  3 23  0 22 14.9940000  0  4G 2G11G19G 6
  19202788.5104  -25540499.48848 -11357327.99063
  22470297.557    -5670935.339 6   2373789.64521
  20093697.9864   -4124838.66346   -826475.95962
  20351303.377   -17761683.454 6 -13506869.71121
 91  3 23  0 22 29.9940000  0  4G 2G11G19G 6
  19197979.0804  -25565777.33148 -11377024.97363
  22475384.2994   -5644205.24446   2394618.23661
  20095481.8544   -4115465.14546   -819171.95462
  20342384.283   -17808553.696 6 -13543391.90621
 91  3 23  0 22 44.9940000  0  4G 2G11G19G 6
  19193180.2994  -25590991.82648 -11396672.59363
  22480486.1974   -5617385.49745   2415516.67861
  20097278.4474   -4106018.35146   -811810.85062
  20333468.268   -17855405.389 6 -13579899.64721
 91  3 23  0 22 59.9940000  0  4G 2G11G19G 6
  19188394.2134  -25616144.04248 -11416271.68563
  22485606.1434   -5590477.32045   2436484.00761
  20099091.4004   -4096499.08446   -804393.27962
  20324557.4004  -17902239.23846 -13616393.48061
 91  3 23  0 23 14.9940000  0  4G 2G11G19G 6
  19183620.5254  -25641237.77948 -11435825.20663
  22490745.4944   -5563484.74646   2457517.12761
  20100915.463    -4086911.104 6   -796922.16422
  20315648.9944  -17949058.81546 -13652876.19561
 91  3 23  0 23 29.9940000  0  4G 2G11G19G 6
  19178854.9004  -25666274.58648 -11455334.37563
  22495895.1274   -5536409.50845   2478614.64761
  20102754.580    -4077255.665 6   -789398.48522
  20306739.815   -17995865.341 6 -13689348.73421
 91  3 23  0 23 44.9940000  0  4G 2G11G19G 6
  19174101.7214  -25691248.94447 -11474794.87163
  22501065.8304   -5509246.43445   2499780.61761
  20104603.611    -4067527.447 6   -781818.09922
  20297836.229   -18042653.129 6 -13725806.68221
 91  3 23  0 23 59.9940000  0  4G 2G11G19G 6
  19169362.0654  -25716164.72548 -11494209.72963
  22506249.354    -5481999.730 6   2521011.73221
  20106470.1824   -4057729.98546   -774183.75262
  20288935.705   -18089425.735 6 -13762252.79021
 91  3 23  0 24 14.9940000  0  4G 2G11G19G 6
  19164632.1974  -25741021.39747 -11513578.53263
  22511452.408    -5454669.164 6   2542308.23021
  20108345.8464   -4047862.58246   -766494.90862
  20280038.307   -18136182.535 6 -13798686.58621
 91  3 23  0 24 29.9940000  0  4G 2G11G19G 6
  19159911.8304  -25765816.43747 -11532899.30563
  22516667.5964   -5427252.51546   2563671.79561
  20110238.1504   -4037922.65546   -758749.54862
  20271145.2604  -18182920.66246 -13835105.83361
 91  3 23  0 24 44.9940000  0  4G 2G11G19G 6
  19155205.5024  -25790552.23447 -11552173.92163
  22521902.604    -5399752.489 6   2585100.31021
  20112141.7134   -4027912.72546   -750949.63862
  20262254.1974  -18229642.49646 -13871512.39261
 91  3 23  0 24 59.9940000  0  4G 2G11G19G 6
  19150510.9244  -25815230.04747 -11571403.35063
  22527150.0254   -5372170.56546   2606592.65061
  20114061.1904   -4017833.87046   -743096.02562
  20253365.565   -18276348.911 6 -13907906.92621
 91  3 23  0 25 14.9940000  0  4G 2G11G19G 6
  19145824.1584  -25839852.23747 -11590589.43663
  22532411.5334   -5344509.23646   2628146.87761
  20115989.674    -4007688.239 6   -735190.38022
  20244480.6744  -18323042.02146 -13944291.09861
 91  3 23  0 25 29.9940000  0  4G 2G11G19G 6
  19141149.7754  -25864418.71747 -11609732.11263
  22537691.3154   -5316768.95046   2649762.61461
  20117938.5414   -3997475.76446   -727232.64962
  20235598.0574  -18369721.64546 -13980664.77361
 91  3 23  0 25 44.9940000  0  4G 2G11G19G 6
  19136485.9404  -25888922.93447 -11628826.27463
  22542987.8224   -5288943.35745   2671444.83461
  20119892.315    -3987189.627 6   -719217.51922
  20226718.307   -18416380.735 6 -14017022.42821
 91  3 23  0 25 59.9940000  0  4G 2G11G19G 6
  19131834.7914  -25913367.38648 -11647873.86463
  22548297.127    -5261035.007 5   2693191.52621
  20121863.400    -3976832.184 6   -711146.82722
  20217843.8224  -18463021.51746 -14053365.82661
 91  3 23  0 26 14.9940000  0  4G 2G11G19G 6
  19127193.0724  -25937753.00648 -11666875.61463
  22553622.7524   -5233045.21545   2715001.67861
  20123845.486    -3966404.358 6   -703021.29222
  20208970.510   -18509644.812 6 -14089695.58921
 91  3 23  0 26 29.9940000  0  4G 2G11G19G 6
  19122563.4084  -25962085.91048 -11685836.28963
  22558963.877    -5204980.576 5   2736870.14521
  20125843.502    -3955912.504 6   -694845.86522
  20200100.682   -18556256.724 6 -14126016.48421
 91  3 23  0 26 44.9940000  0  4G 2G11G19G 6
  19117944.9634  -25986363.54648 -11704753.89863
  22564316.6664   -5176838.99645   2758798.57061
  20127851.705    -3945353.922 6   -686618.44022
  20191232.666   -18602854.593 6 -14162326.43821
 91  3 23  0 26 59.9940000  0  4G 2G11G19G 6
  19113334.2914  -26010581.82548 -11723625.24763
  22569692.166    -5148616.267 5   2780790.22721
  20129876.2054   -3934724.06546   -678335.47862
  20182370.330   -18649433.631 6 -14198621.72421
 91  3 23  0 27 14.9940000  0  4G 2G11G19G 6
  19108736.9324  -26034743.44248 -11742452.44563
  22575076.799    -5120315.363 5   2802842.81321
  20131910.5334   -3924025.68946   -669999.11862
  20173509.635   -18695996.432 6 -14234904.35421
 91  3 23  0 27 29.9940000  0  4G 2G11G19G 6
  19104149.4944  -26058850.42248 -11761237.06663
  22580473.025    -5091938.669 5   2824954.45821
  20133960.760    -3913260.783 6   -661610.92022
  20164652.6354  -18742544.72746 -14271175.67661
 91  3 23  0 27 44.9940000  0  4G 2G11G19G 6
  19099573.9164  -26082895.87148 -11779973.74763
  22585891.0804   -5063479.63845   2847130.25361
  20136021.6354   -3902422.37646   -653165.44662
  20155798.393   -18789071.538 6 -14307430.26221
 91  3 23  0 27 59.9940000  0  4G 2G11G19G 6
  19095007.2604  -26106888.37848 -11798669.16763
  22591320.658    -5034947.093 5   2869363.33321
  20138100.416    -3891519.081 6   -644669.41622
  20146948.0414  -18835585.09746 -14343674.52161
 91  3 23  0 28 14.9940000  0  4G 2G11G19G 6
  19090453.1904  -26130824.14948 -11817320.38663
  22596765.471    -5006337.526 5   2891656.43721
  20140184.854    -3880546.847 6   -636119.66022
  20138098.9714  -18882081.30346 -14379905.26261
 91  3 23  0 28 29.9940000  0  4G 2G11G19G 6
  19085908.7214  -26154706.62048 -11835930.07263
  22602220.5494   -4977654.78045   2914006.56161
  20142286.385    -3869509.094 6   -627518.85522
  20129252.291   -18928563.573 6 -14416125.13521
 91  3 23  0 28 44.9940000  0  4G 2G11G19G 6
  19081375.0804  -26178535.10448 -11854497.68263
  22607695.4004   -4948898.37445   2936414.08461
  20144397.8154   -3858405.04046   -618866.39062
  20120410.6044  -18975030.98646 -14452333.43561
 91  3 23  0 28 59.9930000  0  4G 2G11G19G 6
  19076852.7864  -26202301.94748 -11873017.26263
  22613184.5914   -4920064.40745   2958882.04461
  20146527.9424   -3847229.26246   -610158.03162
  20111572.1224  -19021474.03346 -14488522.75761
 91  3 23  0 29 14.9930000  0  4G 2G11G19G 6
  19072340.5754  -26226012.25148 -11891492.79363
  22618684.364    -4891151.316 5   2981411.67921
  20148664.169    -3835982.181 6   -601394.11422
  20102737.599   -19067900.626 6 -14524699.24021
 91  3 23  0 29 29.9930000  0  4G 2G11G19G 6
  19067838.0444  -26249667.86548 -11909925.70463
  22624200.5914   -4862164.67245   3003998.59661
  20150818.2554   -3824667.81446   -592577.76962
  20093906.982   -19114310.756 6 -14560862.89721
 91  3 23  0 29 44.9930000  0  3G 2G19G 6
  19063347.4424  -26273268.10448 -11928315.47063
  20152986.1614   -3813285.31246   -583708.31562
  20085077.552   -19160703.474 6 -14597012.98521
 91  3 23  0 29 59.9930000  0  3G 2G19G 6
  19058866.7324  -26296810.19548 -11946659.91963
  20155167.3024   -3801831.94346   -574783.65662
  20076254.419   -19207075.903 6 -14633147.27521
 91  3 23  0 30 14.9930000  0  3G 2G19G 6
  19054399.5054  -26320293.04948 -11964958.21763
  20157357.3334   -3790306.52546   -565802.84462
  20067435.161   -19253426.662 6 -14669264.66821
 91  3 23  0 30 29.9930000  0  3G 2G19G 6
  19049940.4894  -26343722.14248 -11983214.62363
  20159563.2244   -3778714.36146   -556770.03062
  20058616.2244  -19299761.04346 -14705369.31561
 91  3 23  0 30 44.9930000  0  3G 2G19G 6
  19045493.0524  -26367092.98148 -12001425.63363
  20161783.8574   -3767050.71146   -547681.50762
  20049803.349   -19346074.055 6 -14741457.29621
 91  3 23  0 30 59.9930000  0  3G 2G19G 6
  19041055.8414  -26390413.06148 -12019597.09363
  20164013.966    -3755323.089 6   -538543.14922
  20040991.935   -19392372.957 6 -14777534.28821
 91  3 23  0 31 14.9930000  0  4G15G 2G19G 6
  22354854.3334     -44303.58845
  19036627.6144  -26413680.99748 -12037727.91963
  20166259.255    -3743530.161 6   -529353.89522
  20032185.474   -19438656.368 6 -14813599.20021
 91  3 23  0 31 29.9930000  0  4G15G 2G19G 6
  22346432.442      -88540.457 5
  19032209.7324  -26436897.99048 -12055819.05263
  20168518.6534   -3731673.15946   -520114.71562
  20023378.396   -19484925.276 7 -14849652.81821
 91  3 23  0 31 44.9930000  0  4G15G 2G19G 6
  22338031.6774    -132700.57345        -0.05771
  19027802.7474  -26460054.62748 -12073863.15263
  20170786.669    -3719742.446 6   -510818.09922
  20014579.341   -19531169.877 7 -14885687.49521
 91  3 23  0 31 59.9930000  0  4G15G 2G19G 6
  22329639.2164    -176795.68445    -34359.70761
  19023405.2394  -26483162.92048 -12091869.58563
  20173068.1224   -3707750.12746   -501473.47062
  20005782.6694  -19577401.96447 -14921712.43161
 91  3 23  0 32 14.9930000  0  4G15G 2G19G 6
  22321262.747     -220816.275 5    -68661.29521
  19019018.6774  -26506213.97148 -12109831.41063
  20175362.2864   -3695687.02746   -492073.68762
  19996989.138   -19623612.220 7 -14957720.34121
 91  3 23  0 32 29.9930000  0  4G15G 2G19G 6
  22312897.294     -264767.327 5   -102908.72921
  19014642.1614  -26529213.10548 -12127752.78463
  20177672.8494   -3683558.35846   -482622.81462
  19988198.138   -19669805.830 7 -14993715.28821
 91  3 23  0 32 44.9930000  0  4G15G 2G19G 6
  22304551.458     -308645.794 5   -137099.58621
  19010276.6614  -26552157.58348 -12145631.56863
  20179991.0364   -3671361.30646   -473118.65662
  19979412.599   -19715979.851 7 -15029694.96721
 91  3 23  0 32 59.9930000  0  4G15G 2G19G 6
  22296210.450     -352447.621 5   -171230.70621
  19005920.1384  -26575044.10348 -12163465.18863
  20182328.6694   -3659092.57146   -463558.64462
  19970629.591   -19762130.736 7 -15065656.62021
 91  3 23  0 33 14.9930000  0  4G15G 2G19G 6
  22287895.4424    -396174.21845   -205303.24861
  19001576.8334  -26597874.20148 -12181254.84063
  20184675.1224   -3646753.74546   -453944.01062
  19961850.872   -19808259.934 7 -15101601.38021
 91  3 23  0 33 29.9930000  0  4G15G 2G19G 6
  22279584.028     -439823.907 5   -239315.83221
  18997242.8644  -26620646.37147 -12198999.36463
  20187040.646    -3634343.160 6   -444273.47122
  19953079.817   -19854365.618 7 -15137527.81221
 91  3 23  0 33 44.9930000  0  4G15G 2G19G 6
  22271289.8104    -483401.98345   -273272.64261
  18992918.8494  -26643366.89548 -12216703.64063
  20189411.692    -3621867.015 6   -434551.83822
  19944307.5054  -19900453.53847 -15173440.40661
 91  3 23  0 33 59.9930000  0  4G15G 2G19G 6
  22263017.396     -526905.039 5   -307170.97021
  18988607.4034  -26666032.71148 -12234365.28163
  20191802.583    -3609322.174 6   -424776.68322
  19935541.6694  -19946520.53447 -15209336.69861
 91  3 23  0 34 14.9930000  0  4G15G 2G19G 6
  22254748.317     -570330.668 5   -341009.00721
  18984304.1924  -26688641.71448 -12251982.65663
  20194197.192    -3596706.235 6   -414946.12522
  19926779.4424  -19992564.20247 -15245214.81161
 91  3 23  0 34 29.9930000  0  4G15G 2G19G 6
  22246500.349     -613680.036 5   -374787.58121
  18980012.3804  -26711195.47048 -12269556.98663
  20196614.6074   -3584020.78646   -405061.39762
  19918022.091   -20038585.777 7 -15281075.70121
 91  3 23  0 34 44.9930000  0  4G15G 2G19G 6
  22238269.2784    -656952.80745   -408506.47461
  18975730.505   -26733694.281 8 -12287088.49923
  20199042.3104   -3571266.00046   -395122.64362
  19909268.388   -20084585.238 7 -15316919.36221
 91  3 23  0 34 59.9930000  0  4G15G 2G19G 6
  22230048.8254    -700150.40145   -442166.78161
  18971459.982   -26756139.833 8 -12304578.51423
  20201482.6384   -3558443.71446   -385131.29462
  19900517.075   -20130564.331 7 -15352747.15421
 91  3 23  0 35 14.9930000  0  4G15G 2G19G 6
  22221834.8024    -743269.80045   -475766.17861
  18967198.7394  -26778529.46648 -12322024.95663
  20203933.7084   -3545551.23046   -375085.24162
  19891772.0284  -20176519.98047 -15388556.67761
 91  3 23  0 35 29.9930000  0  4G15G 2G19G 6
  22213649.349     -786312.638 5   -509305.88821
  18962948.5604  -26800865.31948 -12339429.49063
  20206399.7944   -3532590.58346   -364986.06962
  19883032.146   -20222454.194 7 -15424349.49421
 91  3 23  0 35 44.9930000  0  4G15G 2G19G 6
  22205473.9974    -829275.28445   -542783.12261
  18958710.5444  -26823144.19348 -12356789.62463
  20208878.739    -3519558.385 6   -354831.15422
  19874296.1924  -20268363.39347 -15460122.82161
 91  3 23  0 35 59.9930000  0  4G15G 2G19G 6
  22197314.239     -872158.765 5   -576198.69021
  18954479.911   -26845367.855 8 -12374106.73623
  20211373.310    -3506456.319 6   -344621.79922
  19865565.052   -20314249.081 7 -15495877.83521
 91  3 23  0 36 14.9930000  0  4G15G 2G19G 6
  22189170.989     -914967.044 5   -609555.64821
  18950260.0054  -26867540.42848 -12391384.03563
  20213878.536    -3493288.267 6   -334361.02222
  19856835.9034  -20360115.10447 -15531617.52261
 91  3 23  0 36 29.9930000  0  4G15G 2G19G 6
  22181037.021     -957694.790 5   -642849.84621
  18946052.6614  -26889656.80848 -12408617.55363
  20216400.450    -3480049.189 6   -324044.90522
  19848112.5604  -20405956.04247 -15567337.66661
 91  3 23  0 36 44.9930000  0  4G15G 2G19G 6
  22172916.794    -1000342.614 5   -676081.79021
  18941853.911   -26911718.060 8 -12425808.11323
  20218930.989    -3466740.219 6   -313674.32222
  19839394.0914  -20451772.77447 -15603038.94761
 91  3 23  0 36 59.9930000  0  4G15G 2G19G 6
  22164819.6464   -1042915.72145   -709255.50361
  18937664.692   -26933729.838 8 -12442960.12523
  20221475.802    -3453366.976 6   -303253.66022
  19830677.8494  -20497570.82847 -15638725.67461
 91  3 23  0 37 14.9930000  0  4G15G 2G19G 6
  22156732.927    -1085408.499 5   -742366.62421
  18933485.896   -26955687.120 8 -12460069.67923
  20224032.6774   -3439924.26346   -292778.86762
  19821967.903   -20543344.829 7 -15674393.65421
 91  3 23  0 37 29.9930000  0  4G15G 2G19G 6
  22148659.083    -1127825.824 5   -775418.95621
  18929317.9034  -26977595.19748 -12477140.88063
  20226605.458    -3426417.342 6   -282254.03422
  19813261.4744  -20589099.71847 -15710046.74261
 91  3 23  0 37 44.9930000  0  4G15G 2G19G 6
  22140604.396    -1170161.086 5   -808407.33421
  18925159.317   -26999447.570 8 -12494168.67923
  20229188.739    -3412839.648 6   -271674.06022
  19804559.591   -20634828.900 7 -15745679.80021
 91  3 23  0 37 59.9930000  0  4G15G 2G19G 6
  22132563.1464   -1212417.06845   -841333.96361
  18921010.146   -27021247.730 8 -12511155.79123
  20231786.8494   -3399194.61746   -261041.60662
  19795860.552   -20680535.435 7 -15781295.21321
 91  3 23  0 38 14.9930000  0  4G15G 2G19G 6
  22124538.200    -1254592.817 5   -874198.04921
  18916870.911   -27042995.066 8 -12528101.74623
  20234392.216    -3385481.631 6   -250356.20622
  19787168.778   -20726218.604 7 -15816892.41722
 91  3 23  0 38 29.9930000  0  4G15G 2G19G 6
  22116530.607    -1296690.201 5   -907001.07521
  18912745.130   -27064692.126 8 -12545008.52723
  20237014.5364   -3371703.01746   -239619.66362
  19778478.2864  -20771880.51647 -15852473.06162
 91  3 23  0 38 44.9930000  0  4G15G 2G19G 6
  22108532.005    -1338703.230 5   -939738.34321
  18908624.505   -27086332.989 8 -12561871.51223
  20239651.364    -3357852.836 6   -228827.36022
  19769794.6464  -20817515.02547 -15888032.34661
 91  3 23  0 38 59.9930000  0  4G15G 2G19G 6
  22100552.4584   -1380636.28545   -972413.33961
  18904517.185   -27107922.344 8 -12578694.36623
  20242300.896    -3343935.649 6   -217982.83922
  19761113.9424  -20863126.62247 -15923573.78761
 91  3 23  0 39 14.9930000  0  4G15G 2G19G 6
  22092589.567    -1422490.878 5  -1005027.16521
  18900417.942   -27129462.644 8 -12595478.99223
  20244959.778    -3329953.935 6   -207088.04122
  19752438.9354  -20908717.35247 -15959098.96462
 91  3 23  0 39 29.9930000  0  4G15G 2G19G 6
  22084639.067    -1464263.025 5  -1037576.78321
  18896328.153   -27150950.089 8 -12612222.43323
  20247634.591    -3315903.825 6   -196139.94522
  19743769.7554  -20954283.23047 -15994604.78262
 91  3 23  0 39 44.9930000  0  4G15G 2G19G 6
  22076707.8104   -1505953.05845  -1070062.38861
  18892250.411   -27172385.053 8 -12628924.98423
  20250323.247    -3301785.784 6   -185138.92422
  19735103.5134  -20999824.55247 -16030091.46562
 91  3 23  0 39 59.9930000  0  4G15G 2G19G 6
  22068788.5364   -1547562.27945  -1102485.03761
  18888181.325   -27193769.711 8 -12645588.33523
  20253022.997    -3287601.887 6   -174086.58622
  19726440.2784  -21045342.94147 -16065560.27862
 91  3 23  0 40 14.9930000  0  4G15G 2G19G 6
  22060884.1694   -1589089.98744  -1134844.17261
  18884121.661   -27215103.579 8 -12662212.10423
  20255732.747    -3273351.485 6   -162982.42222
  19717783.3644  -21090837.63747 -16101010.63462
 91  3 23  0 40 29.9930000  0  4G15G 2G19G 6
  22052990.3254   -1630533.58944  -1167137.75461
  18880071.747   -27236384.287 8 -12678794.45123
  20258461.224    -3259032.352 6   -151824.70522
  19709129.4424  -21136306.19547 -16136440.61362
 91  3 23  0 40 44.9930000  0  5G15G 2G13G19G 6
  22045127.771    -1671890.827 4  -1199364.04121
  18876032.552   -27257610.634 8 -12695334.44023
  22019988.4034         -0.32955
  20261194.638    -3244642.911 6   -140612.19722
  19700482.8804  -21181747.03047 -16171848.99262
 91  3 23  0 40 59.9930000  0  5G15G 2G13G19G 6
  22037269.130    -1713164.432 4  -1231525.15121
  18872002.685   -27278785.245 8 -12711834.11423
  22005480.4974     -76206.66245
  20263946.942    -3230185.963 6   -129347.08222
  19691842.3024  -21227162.52247 -16207237.63062
 91  3 23  0 41 14.9930000  0  5G15G 2G13G19G 6
  22029434.4974   -1754355.75044  -1263622.14661
  18867982.864   -27299909.952 8 -12728294.90523
  21990987.8884    -152388.24845
  20266709.9424   -3215663.30046   -118030.76062
  19683203.5834  -21272554.29947 -16242607.77862
 91  3 23  0 41 29.9930000  0  5G15G 2G13G19G 6
  22021608.005    -1795462.354 4  -1295653.14621
  18863972.935   -27320983.130 8 -12744715.54323
  21976497.4824    -228542.74345
  20269484.989    -3201072.849 6   -106661.62322
  19674572.6854  -21317920.19947 -16277957.77362
 91  3 23  0 41 44.9930000  0  5G15G 2G13G19G 6
  22013810.8574   -1836482.08045  -1327616.45361
  18859973.028   -27342002.604 8 -12761094.33623
  21962008.7864    -304667.77945
  20272277.060    -3186412.778 6    -95238.23122
  19665942.6144  -21363258.03147 -16313285.88662
 91  3 23  0 41 59.9930000  0  5G15G 2G13G19G 6
  22006019.9664   -1877416.95345  -1359513.61961
  18855983.419   -27362970.898 8 -12777433.24623
  21947526.3574    -380765.43544
  20275079.489    -3171685.536 6    -83762.50522
  19657321.2004  -21408569.98847 -16348593.84462
 91  3 23  0 42 14.9930000  0  5G15G 2G13G19G 6
  21998240.982    -1918268.691 5  -1391346.01221
  18852001.685   -27383889.976 8 -12793733.80323
  21933051.5284    -456837.15144
  20277892.442    -3156893.020 6    -72235.92122
  19648703.5994  -21453857.80547 -16383882.99162
 91  3 23  0 42 29.9930000  0  5G15G 2G13G19G 6
  21990488.239    -1959027.506 5  -1423106.02021
  18848032.989   -27404750.570 8 -12809988.79123
  21918580.4274    -532873.01944
  20280725.271    -3142025.780 6    -60651.11022
  19640091.2084  -21499111.79447 -16419145.77462
 91  3 23  0 42 44.9930000  0  5G15G 2G13G19G 6
  21982749.341    -1999698.508 5  -1454797.58321
  18844072.700   -27425558.407 8 -12826202.67023
  21904121.513     -608878.525 4
  20283566.521    -3127089.413 6    -49012.43522
  19631484.4824  -21544337.41147 -16454386.44962
 91  3 23  0 42 59.9930000  0  5G15G 2G13G19G 6
  21975026.989    -2040283.954 5  -1486422.48021
  18840122.583   -27446316.237 8 -12842377.58123
  21889662.4504    -684855.99444        -0.43471
  20286420.630    -3112086.662 6    -37322.03122
  19622883.1854  -21589537.12947 -16489606.94762
 91  3 23  0 43 14.9930000  0  5G15G 2G13G19G 6
  21967318.8884   -2080779.67145  -1517977.46361
  18836182.403   -27467019.949 8 -12858510.32123
  21875209.1854    -760800.77245    -59177.82861
  20289289.974    -3097013.326 6    -25576.62022
  19614288.1694  -21634706.63647 -16524803.90262
 91  3 23  0 43 29.9930000  0  5G15G 2G13G19G 6
  21959625.5914   -2121193.83045  -1549468.90661
  18832252.685   -27487678.015 8 -12874607.49423
  21860763.575     -836720.913 5   -118336.02721
  20292169.7554   -3081877.77846    -13782.74662
  19605696.8174  -21679854.10647 -16559983.68762
 91  3 23  0 43 44.9930000  0  5G15G 2G13G19G 6
  21951953.6304   -2161518.52745  -1580890.61861
  18828330.083   -27508283.161 8 -12890663.43123
  21846321.7004    -912608.79945   -177469.11561
  20295061.263    -3066672.825 6     -1934.77822
  19597110.6854  -21724972.02547 -16595140.44462
 91  3 23  0 43 59.9930000  0  5G15G 2G13G19G 6
  21944296.271    -2201754.713 5  -1612243.36521
  18824419.333   -27528836.744 8 -12906679.18723
  21831886.1694    -988465.08145   -236577.54961
  20297971.583    -3051399.749 6      9966.27722
  19588530.2244  -21770061.40547 -16630274.96462
 91  3 23  0 44 14.9930000  0  5G15G 2G13G19G 6
  21936655.255    -2241900.474 5  -1643525.67121
  18820518.153   -27549337.158 8 -12922653.51523
  21817459.521    -1064287.790 5   -295659.80321
  20300886.864    -3036057.076 6     21921.56322
  19579955.7474  -21815120.42647 -16665385.82862
 91  3 23  0 44 29.9930000  0  5G15G 2G13G19G 6
  21929033.7244   -2281961.03445  -1674741.58161
  18816626.778   -27569790.141 8 -12938590.88323
  21803031.849    -1140082.343 5   -354720.14121
  20303821.341    -3020650.598 6     33926.55422
  19571384.5134  -21860154.72047 -16700477.42362
 91  3 23  0 44 44.9930000  0  5G15G 2G13G19G 6
  21921431.857    -2321929.033 5  -1705885.35421
  18812744.153   -27590188.711 8 -12954485.85223
  21788617.130    -1215841.447 5   -413752.84121
  20306766.036    -3005173.099 6     45986.89522
  19562821.857   -21905156.872 7 -16735543.98122
 91  3 23  0 44 59.9930000  0  5G15G 2G13G19G 6
  21913839.357    -2361805.021 5  -1736957.45121
  18808873.638   -27610533.795 8 -12970339.14123
  21774206.0214   -1291565.35845   -472758.16161
  20309725.192    -2989625.231 6     58102.06222
  19554264.9584  -21950127.41447 -16770585.89862
 91  3 23  0 45 14.9930000  0  5G15G 2G13G19G 6
  21906268.755    -2401589.878 5  -1767958.52621
  18805011.583   -27630826.748 8 -12986151.81123
  21759803.458    -1367254.838 5   -531736.60621
  20312695.911    -2974008.262 6     70271.07322
  19545712.8024  -21995067.42247 -16805604.02562
 91  3 23  0 45 29.9930000  0  5G15G 2G13G19G 6
  21898717.521    -2441281.988 5  -1798887.34321
  18801159.591   -27651066.306 8 -13001922.87723
  21745410.4354   -1442908.56145   -590687.20861
  20315683.388    -2958321.165 6     82494.73522
  19537166.9504  -22039975.51847 -16840597.28262
 91  3 23  0 45 44.9930000  0  5G15G 2G13G19G 6
  21891179.1854   -2480884.36645  -1829746.22261
  18797318.107   -27671256.122 8 -13017655.17623
  21731018.692    -1518529.637 5   -649612.38321
  20318679.1464   -2942567.51846     94770.24061
  19528626.958   -22084854.971 7 -16875568.22722
 91  3 23  0 45 59.9930000  0  5G15G 2G13G19G 6
  21883660.325    -2520395.033 5  -1860533.64121
  18793486.060   -27691394.355 8 -13033347.28123
  21716635.0054   -1594115.43945   -708510.08161
  20321690.3414   -2926745.39246    107099.10461
  19520091.5914  -22129703.63047 -16910515.18162
 91  3 23  0 46 14.9930000  0  5G15G 2G13G19G 6
  21876157.669    -2559817.116 5  -1891252.04621
  18789662.060   -27711484.232 8 -13049001.71023
  21702256.3644   -1669669.27945   -767382.85161
  20324713.341    -2910857.988 6    119478.84722
  19511562.6464  -22174524.55647 -16945440.51862
 91  3 23  0 46 29.9930000  0  5G15G 2G13G19G 6
  21868678.2944   -2599142.87645  -1921895.36461
  18785850.482   -27731518.802 8 -13064613.03923
  21687886.896    -1745183.490 5   -826224.76021
  20327754.8884   -2894898.38546    131914.84361
  19503040.7554  -22219310.45047 -16980338.55862
 91  3 23  0 46 44.9930000  0  5G15G 2G13G19G 6
  21861210.028    -2638373.555 5  -1952464.62421
  18782047.317   -27751499.475 8 -13080182.37323
  21673523.2634   -1820658.98745   -885036.48261
  20330799.388    -2878868.132 6    144405.89721
  19494524.2004  -22264062.43847 -17015210.17662
 91  3 23  0 46 59.9930000  0  5G15G 2G13G19G 6
  21853761.982    -2677508.925 5  -1982959.60421
  18778256.560   -27771426.564 8 -13095709.95523
  21659165.669    -1896095.486 5   -943817.85221
  20333864.872    -2862767.177 6    156952.04021
  19486014.1694  -22308780.48247 -17050055.34762
 91  3 23  0 47 14.9930000  0  5G15G 2G13G19G 6
  21846334.802    -2716553.844 5  -2013384.10721
  18774472.7714  -27791305.26448 -13111199.82163
  21644816.1534   -1971497.80745  -1002572.54661
  20336939.724    -2846600.715 6    169549.22421
  19477508.7554  -22353469.60547 -17084877.98162
 91  3 23  0 47 29.9930000  0  5G15G 2G13G19G 6
  21838920.489    -2755506.430 5  -2043736.65421
  18770701.388   -27811134.070 8 -13126650.81724
  21630476.8254   -2046863.95245  -1061299.10761
  20340031.0604   -2830367.24446    182198.62362
  19469011.7714  -22398127.87347 -17119676.57162
 91  3 23  0 47 44.9930000  0  5G15G 2G13G19G 6
  21831526.7474   -2794363.94146  -2074015.12461
  18766935.5674  -27830910.83147 -13142061.25364
  21616143.0994   -2122191.49145  -1119995.52261
  20343135.310    -2814064.458 6    194902.04722
  19460521.3254  -22442752.93747 -17154449.28762
 91  3 23  0 47 59.9930000  0  5G15G 2G13G19G 6
  21824149.357    -2833122.299 6  -2104216.34121
  18763184.138   -27850631.926 7 -13157428.32024
  21601817.060    -2197476.270 5  -1178658.69021
  20346249.6924   -2797688.75546    207662.27562
  19452037.388   -22487340.816 7 -17189193.03222
 91  3 23  0 48 14.9930000  0  5G15G 2G13G19G 6
  21816795.161    -2871781.578 6  -2134340.32121
  18759441.185   -27870297.517 8 -13172752.13424
  21587495.177    -2272718.105 5  -1237288.38621
  20349377.958    -2781240.312 6    220479.19221
  19443557.7004  -22531891.45947 -17223907.76262
 91  3 23  0 48 29.9930000  0  5G15G 2G13G19G 6
  21809457.7784   -2910344.97545  -2164389.62161
  18755709.388   -27889911.093 8 -13188035.41924
  21573187.763    -2347920.116 5  -1295887.04821
  20352521.2004   -2764722.53146    233350.12261
  19435087.653   -22576408.145 7 -17258596.03922
 91  3 23  0 48 44.9930000  0  5G15G 2G13G19G 6
  21802136.935    -2948814.422 5  -2194365.68521
  18751985.935   -27909474.919 8 -13203279.93524
  21558885.208    -2423084.110 5  -1354456.07821
  20355675.739    -2748137.940 6    246273.13421
  19426622.0914  -22620892.93547 -17293259.45262
 91  3 23  0 48 59.9930000  0  5G15G 2G13G19G 6
  21794834.153    -2987188.006 5  -2224267.06821
  18748272.927   -27928987.709 8 -13218484.68224
  21544589.3724   -2498208.10045  -1412993.93961
  20358846.2244   -2731484.83646    259249.51261
  19418163.263   -22665343.920 7 -17327896.53522
 91  3 23  0 49 14.9930000  0  5G15G 2G13G19G 6
  21787549.638    -3025467.820 5  -2254095.36621
  18744568.8104  -27948452.17748 -13233651.77364
  21530298.5994   -2573294.45945  -1471502.47861
  20362028.7474   -2714765.89746    272277.20261
  19409711.474   -22709763.602 7 -17362509.21722
 91  3 23  0 49 29.9930000  0  5G15G 2G13G19G 6
  21780282.919    -3063648.004 5  -2283846.03021
  18740875.403   -27967862.579 8 -13248776.74024
  21516021.841    -2648337.098 5  -1529976.94521
  20365224.138    -2697975.665 6    285360.43721
  19401265.1774  -22754146.10647 -17397092.93262
 91  3 23  0 49 44.9930000  0  5G15G 2G13G19G 6
  21773036.013    -3101726.935 5  -2313517.80721
  18737191.997   -27987217.672 8 -13263858.60724
  21501745.466    -2723334.266 5  -1588416.00221
  20368431.8174   -2681112.70246    298500.35361
  19392826.622   -22798489.862 7 -17431646.45622
 91  3 23  0 49 59.9930000  0  5G15G 2G13G19G 6
  21765808.177    -3139708.962 5  -2343114.07421
  18733517.677   -28006522.260 8 -13278901.11824
  21487485.786    -2798290.196 5  -1646822.88121
  20371657.607    -2664181.735 6    311693.25821
  19384395.044   -22842799.293 7 -17466173.23722
 91  3 23  0 50 14.9930000  0  5G15G 2G13G19G 6
  21758594.0604   -3177595.65845  -2372636.05661
  18729853.794   -28025778.215 8 -13293905.73524
  21473229.466    -2873206.378 5  -1705198.84421
  20374888.4274   -2647184.76746    324937.58961
  19375968.2864  -22887076.09647 -17500674.58462
 91  3 23  0 50 29.9930000  0  5G15G 2G13G19G 6
  21751405.989    -3215378.126 5  -2402076.83421
  18726201.575   -28044976.794 8 -13308865.64424
  21458976.208    -2948073.912 5  -1763536.85021
  20378140.9114   -2630112.88446    338240.29661
  19367550.466   -22931311.347 7 -17535143.55322
 91  3 23  0 50 44.9930000  0  5G15G 2G13G19G 6
  21744236.5604   -3253069.39145  -2431446.54361
  18722554.778   -28064131.654 8 -13323791.48524
  21444738.380    -3022905.765 5  -1821847.11521
  20381397.771    -2612979.572 6    351590.87621
  19359137.5914  -22975518.11147 -17569590.32862
 91  3 23  0 50 59.9930000  0  5G15G 2G13G19G 6
  21737085.333    -3290657.455 5  -2460735.83421
  18718921.138   -28083231.073 8 -13338674.12924
  21430511.614    -3097689.855 5  -1880120.10821
  20384674.8254   -2595773.12046    364998.44561
  19350733.2004  -23019684.53047 -17604005.66162
 91  3 23  0 51 14.9930000  0  5G15G 2G13G19G 6
  21729949.857    -3328149.433 5  -2489950.23521
  18715296.724   -28102282.642 8 -13353519.48724
  21416287.5754   -3172433.57245  -1938361.66861
  20387958.2634   -2578501.19946    378457.02661
  19342335.653   -23063817.950 7 -17638395.28722
 91  3 23  0 51 29.9930000  0  5G15G 2G13G19G 6
  21722829.411    -3365541.663 5  -2519086.93221
  18711680.372   -28121283.043 8 -13368324.97624
  21402067.6304   -3247132.66645  -1996568.47761
  20391260.169    -2561160.549 6    391969.15621
  19333943.778   -23107914.716 7 -17672756.35222
 91  3 23  0 51 44.9930000  0  5G15G 2G13G19G 6
  21715735.2084   -3402833.98945  -2548145.78061
  18708074.552   -28140232.618 8 -13383090.85724
  21387862.3884   -3321787.09745  -2054740.46561
  20394571.927    -2543751.343 6    405534.71721
  19325559.997   -23151974.810 7 -17707088.83422
 91  3 23  0 51 59.9930000  0  5G15G 2G13G19G 6
  21708660.4894   -3440022.09845  -2577123.41961
  18704478.294   -28159127.467 8 -13397814.09424
  21373663.974    -3396392.678 5  -2112874.40521
  20397899.2084   -2526269.65446    419156.74861
  19317183.2084  -23195994.09447 -17741389.51362
 91  3 23  0 52 14.9930000  0  5G15G 2G13G19G 6
  21701601.341    -3477113.313 5  -2606025.55721
  18700892.396   -28177975.229 8 -13412500.63723
  21359473.036    -3470956.582 5  -2170975.87621
  20401234.9424   -2508723.15346    432829.29561
  19308812.3254  -23239979.82447 -17775664.05462
 91  3 23  0 52 29.9930000  0  5G15G 2G13G19G 6
  21694562.732    -3514103.312 6  -2634848.84021
  18697314.661   -28196771.956 8 -13427147.41623
  21345296.7164   -3545474.16145  -2229041.22861
  20404590.7324   -2491107.75646    446555.52561
  19300449.8254  -23283927.82747 -17809909.19162
 91  3 23  0 52 44.9920000  0  5G15G 2G13G19G 6
  21687546.3994   -3550988.14046  -2663590.14561
  18693747.774   -28215515.116 8 -13441752.45123
  21331119.906    -3619938.780 5  -2287065.33621
  20407955.8364   -2473423.42546    460335.46061
  19292095.6884  -23327833.54847 -17844121.38062
 91  3 23  0 52 59.9920000  0  5G15G 2G13G19G 6
  21680541.180    -3587777.317 5  -2692256.92521
  18690189.711   -28234212.091 8 -13456321.49923
  21316956.4384   -3694365.09845  -2345059.62161
  20411336.6494   -2455672.70345    474167.13461
  19283744.9844  -23371707.53747 -17878308.84862
 91  3 23  0 53 14.9920000  0  5G15G 2G13G19G 6
  21673563.9924   -3624458.45345  -2720839.51861
  18686642.820   -28252852.213 8 -13470846.24723
  21302808.125    -3768738.254 5  -2403012.41521
  20414725.3914   -2437847.38146    488056.92661
  19275404.5394  -23415537.17947 -17912461.75862
 91  3 23  0 53 29.9920000  0  5G15G 2G13G19G 6
  21666602.2974   -3661039.40545  -2749344.06661
  18683105.899   -28271443.677 8 -13485333.07823
  21288663.641    -3843066.066 5  -2460929.91521
  20418131.6804   -2419955.66646    501998.45461
  19267071.016   -23459330.373 7 -17946586.27022
 91  3 23  0 53 44.9920000  0  5G15G 2G13G19G 6
  21659660.227    -3697518.917 5  -2777769.53921
  18679577.656   -28289985.649 8 -13499781.34823
  21274527.6884   -3917347.23345  -2518811.08661
  20421546.4384   -2401996.57846    515992.48761
  19258745.531   -23503085.888 7 -17980681.42122
 91  3 23  0 53 59.9920000  0  5G15G 2G13G19G 6
  21652740.1724   -3733894.74845  -2806114.25961
  18676058.289   -28308476.436 8 -13514189.74023
  21260402.727    -3991579.336 5  -2576654.00121
  20424977.8594   -2383968.28145    530040.44861
  19250427.0864  -23546801.70247 -18014745.63662
 91  3 23  0 54 14.9920000  0  5G15G 2G13G19G 6
  21645835.8594   -3770164.39345  -2834376.19761
  18672549.969   -28326913.746 8 -13528556.45523
  21246286.9534   -4065759.89045  -2634456.74661
  20428422.4384   -2365868.60045    544144.03361
  19242116.0554  -23590475.17247 -18048776.86062
 91  3 23  0 54 29.9920000  0  5G15G 2G13G19G 6
  21638951.8674   -3806330.73345  -2862557.66661
  18669051.125   -28345300.728 8 -13542883.95623
  21232179.8284   -4139891.63245  -2692221.49461
  20431882.344    -2347700.709 5    558300.78021
  19233811.3444  -23634109.31547 -18082777.43062
 91  3 23  0 54 44.9920000  0  5G15G 2G13G19G 6
  21632089.2114   -3842393.21945  -2890658.21661
  18665561.852   -28363637.360 8 -13557172.22323
  21218078.992    -4213973.853 5  -2749947.61921
  20435348.8204   -2329464.47145    572510.78161
  19225517.070   -23677703.767 7 -18116747.07522
 91  3 23  0 54 59.9920000  0  5G15G 2G13G19G 6
  21625246.7114   -3878352.69345  -2918678.47161
  18662081.789   -28381924.711 8 -13571422.08523
  21203993.5084   -4288007.19445  -2807635.69361
  20438835.3444   -2311160.97045    586773.17961
  19217227.8754  -23721259.36347 -18150686.44262
 91  3 23  0 55 14.9920000  0  5G15G 2G13G19G 6
  21618422.375    -3914210.453 5  -2946619.48121
  18658611.508   -28400164.291 8 -13585634.72823
  21189910.586    -4361993.236 5  -2865286.89921
  20442330.2424   -2292791.77146    601086.77761
  19208947.4454  -23764777.37347 -18184596.52362
 91  3 23  0 55 29.9920000  0  5G15G 2G13G19G 6
  21611619.219    -3949965.049 5  -2974480.09121
  18655148.180   -28418355.138 8 -13599809.39923
  21175840.4454   -4435930.49145  -2922900.06161
  20445838.3994   -2274355.92146    615452.30661
  19200672.336   -23808256.494 7 -18218476.30222
 91  3 23  0 55 44.9920000  0  5G15G 2G13G19G 6
  21604834.320    -3985613.529 5  -3002258.02921
  18651697.453   -28436494.650 8 -13613944.06723
  21161787.422    -4509815.530 5  -2980472.57821
  20449358.586    -2255850.603 6    629871.96121
  19192408.1334  -23851693.67847 -18252323.40362
 91  3 23  0 55 59.9920000  0  5G15G 2G13G19G 6
  21598071.672    -4021161.786 5  -3029957.86321
  18648254.070   -28454589.134 8 -13628043.64923
  21147730.2814   -4583654.20045  -3038008.94061
  20452893.5314   -2237282.20745    644340.77761
  19184149.0314  -23895094.95447 -18286142.52362
 91  3 23  0 56 14.9920000  0  5G15G 2G13G19G 6
  21591327.7894   -4056603.05645  -3057574.32161
  18644822.266   -28472632.192 8 -13642103.15823
  21133693.609    -4657439.756 5  -3095503.91721
  20456438.180    -2218644.411 6    658863.66521
  19175897.141   -23938453.624 7 -18319928.44922
 91  3 23  0 56 29.9920000  0  5G15G 2G13G19G 6
  21584603.8594   -4091937.01945  -3085107.17761
  18641396.867   -28490623.925 8 -13656122.67223
  21119660.125    -4731171.913 5  -3152957.28321
  20460001.0164   -2199937.35845    673440.52461
  19167654.297   -23981769.611 7 -18353681.11222
 91  3 23  0 56 44.9920000  0  5G15G 2G13G19G 6
  21577899.1024   -4127170.78545  -3112561.97261
  18637981.500   -28508571.873 8 -13670108.07023
  21105639.594    -4804857.604 5  -3210374.44921
  20463569.4224   -2181168.45045    688065.57761
  19159417.609   -24025049.990 7 -18387406.02722
 91  3 23  0 56 59.9920000  0  5G15G 2G13G19G 6
  21571213.7814   -4162299.00145  -3139934.50461
  18634576.227   -28526470.728 8 -13684055.21423
  21091626.7894   -4878491.34445  -3267751.15661
  20467154.8364   -2162332.47345    702742.89561
  19151188.781   -24068289.322 7 -18421098.96122
 91  3 23  0 57 14.9920000  0  5G15G 2G13G19G 6
  21564553.9844   -4197316.45545  -3167220.73561
  18631179.664   -28544315.645 8 -13697960.32823
  21077623.7744   -4952068.02645  -3325083.37461
  20470752.625    -2143424.501 5    717476.31721
  19142971.0084  -24111482.56747 -18454755.97662
 91  3 23  0 57 29.9920000  0  5G15G 2G13G19G 6
  21557903.5784   -4232232.45445  -3194427.91461
  18627791.828   -28562116.346 8 -13711830.98723
  21063634.9614   -5025596.88845  -3382378.37261
  20474363.4224   -2124454.25845    732258.25961
  19134758.977   -24154638.965 7 -18488384.28022
 91  3 23  0 57 44.9920000  0  5G15G 2G13G19G 6
  21551279.5474   -4267046.94345  -3221555.98261
  18624413.078   -28579873.107 8 -13725667.40923
  21049651.7424   -5099077.47745  -3439635.69161
  20477986.1174   -2105421.80245    747088.68261
  19126552.742   -24197758.394 7 -18521983.78622
 91  3 23  0 57 59.9920000  0  5G15G 2G13G19G 6
  21544675.6564   -4301750.99245  -3248598.00361
  18621043.805   -28597577.441 8 -13739462.97723
  21035677.828    -5172501.038 5  -3496848.61921
  20481623.4384   -2086318.94245    761973.96761
  19118356.391   -24240832.119 7 -18555547.67822
 91  3 23  0 58 14.9920000  0  5G15G 2G13G19G 6
  21538094.305    -4336347.290 5  -3275556.06621
  18617685.524   -28615232.503 8 -13753220.15323
  21021713.8674   -5245870.15745  -3554019.10861
  20485268.3914   -2067148.62045    776911.81061
  19110167.195   -24283862.912 7 -18589078.11222
 91  3 23  0 58 29.9920000  0  5G15G 2G13G19G 6
  21531528.6334   -4370836.78146  -3302430.89961
  18614334.508   -28632839.305 8 -13766939.72223
  21007765.6174   -5319185.38645  -3611147.61161
  20488931.570    -2047911.926 5    791901.37321
  19101986.6334  -24326851.61947 -18622575.75162
 91  3 23  0 58 44.9920000  0  5G15G 2G13G19G 6
  21524987.1414   -4405214.41846  -3329218.56961
  18610993.914   -28650393.444 8 -13780618.26023
  20993822.875    -5392441.803 5  -3668230.28521
  20492601.6414   -2028604.42545    806946.11061
  19093815.086   -24369793.368 7 -18656036.80022
 91  3 23  0 58 59.9920000  0  5G15G 2G13G19G 6
  21518466.9384   -4439484.74746  -3355922.63461
  18607661.563   -28667899.615 8 -13794259.41523
  20979894.649    -5465643.937 5  -3725270.66821
  20496292.4064   -2009230.83245    822042.34961
  19085652.727   -24412692.817 7 -18689464.89022
 91  3 23  0 59 14.9920000  0  5G15G 2G13G19G 6
  21511968.8444   -4473647.71346  -3382543.00961
  18604340.266   -28685358.040 8 -13807863.37023
  20965971.578    -5538791.621 5  -3782268.59221
  20499987.3204   -1989791.73345    837189.63761
  19077497.086   -24455550.036 7 -18722860.07022
 91  3 23  0 59 29.9920000  0  5G15G 2G13G19G 6
  21505487.7034   -4507696.91646  -3409074.76661
  18601027.242   -28702762.723 8 -13821425.44323
  20952066.391    -5611878.476 5  -3839219.18021
  20503698.6254   -1970280.74745    852392.92861
  19069350.461   -24498358.550 7 -18756217.30422
 91  3 23  0 59 44.9920000  0  5G15G 2G13G19G 6
  21499029.125    -4541634.994 6  -3435519.90721
  18597725.945   -28720116.552 8 -13834947.89423
  20938168.8364   -5684906.58146  -3896123.94461
  20507427.609    -1950700.918 5    867649.87121
  19061212.672   -24541120.904 7 -18789538.56322
 91  3 23  0 59 59.9920000  0  5G15G 2G13G19G 6
  21492589.0784   -4575463.20746  -3461879.45761
  18594432.844   -28737421.302 8 -13848432.10023
  20924285.445    -5757877.220 6  -3952983.95321
  20511167.0004   -1931053.78845    882959.25061
  19053084.399   -24583838.357 7 -18822824.83722
 91  3 23  1  0 14.9920000  0  5G15G 2G13G19G 6
  21486174.1884   -4609180.64946  -3488152.68961
  18591148.617   -28754675.956 8 -13861877.26923
  20910407.156    -5830789.483 6  -4009798.44021
  20514917.4384   -1911338.58145    898321.68661
  19044964.047   -24626509.812 7 -18856075.27322
 91  3 23  1  0 29.9920000  0  5G15G 2G13G19G 6
  21479775.617    -4642791.419 6  -3514342.80421
  18587874.680   -28771885.329 8 -13875287.15723
  20896544.2974   -5903647.56746  -4066570.75461
  20518682.406    -1891559.804 5    913733.65321
  19036851.375   -24669139.658 7 -18889293.28622
 91  3 23  1  0 44.9920000  0  5G15G 2G13G19G 6
  21473404.6094   -4676290.46346  -3540445.86161
  18584607.906   -28789044.702 7 -13888658.07923
  20882691.859    -5976446.100 6  -4123296.65621
  20522459.320    -1871712.872 5    929198.71421
  19028748.3994  -24711722.84747 -18922474.92962
 91  3 23  1  0 59.9920000  0  5G15G 2G13G19G 6
  21467048.094    -4709677.392 6  -3566461.54421
  18581353.516   -28806154.264 7 -13901990.18723
  20868845.9534   -6049184.92945  -4179976.03061
  20526249.242    -1851797.843 5    944716.84921
  19020653.336   -24754259.247 7 -18955620.13122
 91  3 23  1  1 14.9920000  0  5G15G 2G13G19G 6
  21460717.1254   -4742954.13046  -3592391.35561
  18578106.375   -28823215.980 7 -13915285.01423
  20855021.0314   -6121865.43745  -4236609.97461
  20530048.524    -1831816.773 5    960286.43821
  19012566.922   -24796750.677 7 -18988730.28422
 91  3 23  1  1 29.9920000  0  5G15G 2G13G19G 6
  21454406.3204   -4776117.70446  -3618233.01561
  18574870.117   -28840227.448 8 -13928540.69123
  20841199.930    -6194485.015 5  -4293196.43421
  20533868.422    -1811767.310 5    975909.31321
  19004490.906   -24839194.268 7 -19021803.16122
 91  3 23  1  1 44.9920000  0  5G15G 2G13G19G 6
  21448118.0084   -4809166.84546  -3643985.48861
  18571642.2664  -28857187.44748 -13941756.25763
  20827392.914    -6267042.019 5  -4349734.13021
  20537692.227    -1791648.376 5    991586.32521
  18996423.617   -24881588.560 7 -19054837.62722
 91  3 23  1  1 59.9920000  0  5G15G 2G13G19G 6
  21441853.758    -4842102.592 6  -3669649.59921
  18568423.914   -28874097.444 8 -13954932.86923
  20813598.1494   -6339537.61545  -4406223.97261
  20541534.524    -1771461.299 5   1007316.45021
  18988364.391   -24923934.786 7 -19087834.63522
 91  3 23  1  2 14.9920000  0  5G15G 2G13G19G 6
  21435605.0784   -4874923.44646  -3695224.18061
  18565215.430   -28890956.288 8 -13968069.61923
  20799810.8284   -6411970.19045  -4462664.71761
  20545388.086    -1751204.996 5   1023100.49721
  18980316.797   -24966231.533 7 -19120793.09522
 91  3 23  1  2 29.9920000  0  5G15G 2G13G19G 6
  21429379.7974   -4907625.48846  -3720706.18561
  18562018.914   -28907760.202 8 -13981163.56123
  20786040.797    -6484335.597 5  -4519053.12421
  20549260.367    -1730875.732 5   1038941.41421
  18972278.8994  -25008474.71847 -19153709.82262
 91  3 23  1  2 44.9920000  0  5G15G 2G13G19G 6
  21423179.1024   -4940216.80746  -3746101.92961
  18558829.313   -28924517.656 8 -13994221.30523
  20772281.0784   -6556641.99745  -4575395.55061
  20553137.2344   -1710482.00345   1054832.56261
  18964249.000   -25050672.542 7 -19186591.19922
 91  3 23  1  2 59.9920000  0  5G15G 2G13G19G 6
  21417000.867    -4972695.879 6  -3771410.21221
  18555648.883   -28941227.837 8 -14007242.20923
  20758533.797    -6628887.621 6  -4631690.61621
  20557033.8284   -1690023.02845   1070774.55661
  18956225.945   -25092823.708 7 -19219436.21822
 91  3 23  1  3 14.9920000  0  5G15G 2G13G19G 6
  21410841.5474   -5005062.31946  -3796630.71761
  18552478.5004  -28957890.19947 -14020225.85663
  20744795.984    -6701071.621 6  -4687937.65021
  20560939.445    -1669498.289 5   1086767.78621
  18948215.438   -25134927.399 7 -19252244.24622
 91  3 23  1  3 29.9920000  0  5G15G 2G13G19G 6
  21404699.3594   -5037314.39345  -3821762.10461
  18549317.2504  -28974503.49147 -14033171.27063
  20731071.930    -6773192.379 6  -4744135.40421
  20564860.234    -1648906.321 5   1102813.39821
  18940211.102   -25176982.063 7 -19285014.06322
 91  3 23  1  3 44.9920000  0  5G15G 2G13G19G 6
  21398586.3674   -5069451.22646  -3846803.68661
  18546165.188   -28991067.079 7 -14046077.95123
  20717360.117    -6845248.959 6  -4800283.17321
  20568789.961    -1628246.600 5   1118911.80321
  18932217.336   -25218986.831 7 -19317744.99922
 91  3 23  1  3 59.9920000  0  5G15G 2G13G19G 6
  21392493.6254   -5101470.15946  -3871753.42461
  18543023.242   -29007578.519 7 -14058943.99423
  20703661.891    -6917238.561 6  -4856378.72221
  20572734.695    -1607516.762 5   1135064.83621
  18924235.649   -25260939.020 7 -19350434.96322
 91  3 23  1  4 14.9920000  0  5G15G 2G13G19G 6
  21386423.7974   -5133371.00046  -3896611.11661
  18539892.766   -29024038.031 8 -14071769.56923
  20689974.8134   -6989161.00446  -4912421.96261
  20576693.375    -1586717.200 5   1151272.22521
  18916261.828   -25302838.420 7 -19383083.80322
 91  3 23  1  4 29.9920000  0  5G15G 2G13G19G 6
  21380373.4224   -5165156.54945  -3921378.97661
  18536767.149   -29040448.833 8 -14084557.19223
  20676300.6884   -7061019.01546  -4968415.00361
  20580664.031    -1565851.062 5   1167531.45921
  18908298.820   -25344688.043 7 -19415693.85122
 91  3 23  1  4 44.9920000  0  5G15G 2G13G19G 6
  21374346.8284   -5196830.12046  -3946059.57861
  18533655.539   -29056814.410 8 -14097309.57023
  20662634.594    -7132815.585 5  -5024360.15821
  20584643.289    -1544921.831 5   1183839.88321
  18900342.969   -25386490.950 7 -19448267.50022
 91  3 23  1  4 59.9920000  0  5G15G 2G13G19G 6
  21368340.6094   -5228384.89645  -3970647.61261
  18530548.719   -29073128.231 8 -14110021.61223
  20648988.938    -7204543.870 5  -5080252.08621
  20588642.516    -1523922.848 5   1200202.65121
  18892398.977   -25428240.316 7 -19480799.42322
 91  3 23  1  5 14.9920000  0  5G15G 2G13G19G 6
  21362358.5554   -5259822.72346  -3995144.52861
  18527455.469   -29089392.343 8 -14122694.92423
  20635350.7974   -7276205.49345  -5136092.10261
  20592646.9614   -1502856.33945   1216618.05461
  18884464.758   -25469937.874 7 -19513290.98522
 91  3 23  1  5 29.9920000  0  5G15G 2G13G19G 6
  21356399.7424   -5291140.67846  -4019548.03261
  18524370.0944  -29105604.52748 -14135327.78163
  20621725.578    -7347797.662 5  -5191877.98421
  20596673.8204   -1481719.74645   1233088.04561
  18876539.375   -25511581.034 7 -19545740.15022
 91  3 23  1  5 44.9920000  0  5G15G 2G13G19G 6
  21350462.9144   -5322341.23146  -4043860.06961
  18521294.000   -29121767.504 8 -14147922.29523
  20608113.0944   -7419322.72645  -5247611.57161
  20600705.9924   -1460515.94045   1249610.43461
  18868624.625   -25553172.224 7 -19578148.81922
 91  3 23  1  5 59.9920000  0  5G15G 2G13G19G 6
  21344546.4774   -5353425.51846  -4068081.48561
  18518226.469   -29137882.583 7 -14160479.48323
  20594518.1494   -7490781.59545  -5303293.61161
  20604755.797    -1439246.494 5   1266183.94321
  18860719.555   -25594712.505 7 -19610517.82222
 91  3 23  1  6 14.9920000  0  5G15G 2G13G19G 6
  21338656.703    -5384393.027 6  -4092211.92421
  18515170.141   -29153949.450 8 -14172999.10223
  20580932.6414   -7562173.38945  -5358923.36261
  20608815.5164   -1417910.94345   1282808.98161
  18852824.1724  -25636201.28947 -19642846.71162
 91  3 23  1  6 29.9920000  0  5G15G 2G13G19G 6
  21332783.836    -5415242.453 6  -4116250.35221
  18512122.211   -29169966.945 8 -14185480.25123
  20567358.094    -7633497.012 5  -5414500.00721
  20612888.383    -1396508.243 5   1299486.33321
  18844939.805   -25677637.204 7 -19675134.39422
 91  3 23  1  6 44.9920000  0  5G15G 2G13G19G 6
  21326938.016    -5445968.587 6  -4140192.70621
  18509083.031   -29185930.466 7 -14197919.34323
  20553802.2424   -7704747.15746  -5470019.39261
  20616973.305    -1375033.705 5   1316219.65821
  18837065.867   -25719015.061 7 -19707376.83222
 91  3 23  1  6 59.9920000  0  5G15G 2G13G19G 6
  21321108.7504   -5476576.41746  -4164042.86361
  18506054.844   -29201845.286 7 -14210320.48423
  20540254.938    -7775928.609 6  -5525485.24521
  20621073.031    -1353492.768 5   1333004.72521
  18829201.719   -25760339.943 7 -19739577.99222
 91  3 23  1  7 14.9920000  0  5G15G 2G13G19G 6
  21315310.4694   -5507060.57746  -4187796.67561
  18503037.445   -29217706.545 7 -14222679.89023
  20526725.1334   -7847036.10546  -5580893.47461
  20625187.5554   -1331880.47945   1349845.38661
  18821350.336   -25801606.578 7 -19771733.76322
 91  3 23  1  7 29.9920000  0  5G15G 2G13G19G 6
  21309533.4144   -5537426.22946  -4211458.13161
  18500028.125   -29233519.619 8 -14235001.75123
  20513207.430    -7918074.581 6  -5636247.92321
  20629313.320    -1310202.129 5   1366737.53421
  18813506.727   -25842820.178 7 -19803848.21222
 91  3 23  1  7 44.9920000  0  5G15G 2G13G19G 6
  21303776.0164   -5567678.22046  -4235031.01561
  18497027.117   -29249289.537 7 -14247289.97423
  20499702.2274   -7989048.67046  -5691552.19961
  20633447.633    -1288462.742 5   1383677.24021
  18805673.617   -25883985.382 7 -19835924.94222
 91  3 23  1  7 59.9920000  0  5G15G 2G13G19G 6
  21298039.320    -5597810.503 6  -4258510.62021
  18494036.649   -29265010.422 8 -14259539.99623
  20486209.6174   -8059952.19546  -5746801.49861
  20637598.383    -1266656.632 5   1400668.94221
  18797849.539   -25925096.066 7 -19867959.19622
 91  3 23  1  8 14.9920000  0  5G15G 2G13G19G 6
  21292329.0554   -5627822.78446  -4281896.72661
  18491053.180   -29280682.450 7 -14271751.94922
  20472732.891    -8130784.877 6  -5801995.58021
  20641758.149    -1244784.131 5   1417712.36521
  18790036.516   -25966152.169 7 -19899950.91822
 91  3 23  1  8 29.9920000  0  5G15G 2G13G19G 6
  21286643.8444   -5657713.62346  -4305188.20861
  18488080.586   -29296304.155 7 -14283924.69422
  20459266.6094   -8201544.72846  -5857132.91061
  20645936.289    -1222843.808 5   1434808.65221
  18782233.359   -26007151.874 7 -19931898.69522
 91  3 23  1  8 44.9920000  0  5G15G 2G13G19G 6
  21280977.438    -5687486.699 6  -4328387.92121
  18485116.4694  -29311879.65247 -14296061.42863
  20445812.555    -8272235.576 6  -5912216.48921
  20650122.141    -1200839.680 5   1451954.64521
  18774442.859   -26048098.971 7 -19963805.47722
 91  3 23  1  8 59.9920000  0  5G15G 2G13G19G 6
  21275335.813    -5717138.199 6  -4351492.90921
  18482162.3204  -29327405.34747 -14308159.36662
  20432375.055    -8342853.484 6  -5967243.20821
  20654326.2274   -1178768.22745   1469153.11461
  18766663.063   -26088989.582 7 -19995668.24122
 91  3 23  1  9 14.9920000  0  5G15G 2G13G19G 6
  21269715.938    -5746668.202 6  -4374503.22621
  18479217.281   -29342881.768 7 -14320218.89823
  20418948.203    -8413398.556 6  -6022213.20321
  20658533.797    -1156630.054 5   1486403.55621
  18758891.813   -26129823.830 7 -20027487.09222
 91  3 23  1  9 29.9920000  0  5G15G 2G13G19G 6
  21264115.649    -5776082.678 6  -4397423.52121
  18476279.992   -29358315.011 7 -14332244.78422
  20405533.969    -8483876.408 6  -6077130.81821
  20662761.547    -1134431.296 5   1503701.21321
  18751130.805   -26170607.617 7 -20059266.61523
 91  3 23  1  9 44.9920000  0  5G15G 2G13G19G 6
  21258544.188    -5805376.312 6  -4420249.64321
  18473351.4924  -29373699.91047 -14344233.00363
  20392139.6254   -8554281.60246  -6131991.79361
  20666997.695    -1112166.819 5   1521050.07621
  18743379.774   -26211335.517 7 -20091002.59622
 91  3 23  1  9 59.9920000  0  5G15G 2G13G19G 6
  21252991.820    -5834548.937 6  -4442981.49221
  18470433.6724  -29389036.88847 -14356183.88463
  20378750.9384   -8624614.22245  -6186796.23061
  20671246.6724   -1089836.95945   1538449.87661
  18735639.484   -26252007.566 7 -20122695.04723
 91  3 23  1 10 14.9920000  0  5G15G 2G13G19G 6
  21247463.820    -5863600.248 6  -4465618.79721
  18467524.4454  -29404325.92747 -14368097.41363
  20365383.000    -8694873.658 6  -6241543.66021
  20675507.6804   -1067441.76245   1555900.59361
  18727910.531   -26292623.321 7 -20154343.63822
 91  3 23  1 10 29.9920000  0  5G15G 2G13G19G 6
  21241957.1644   -5892531.87446  -4488162.85761
  18464623.805   -29419568.994 7 -14379975.11223
  20352026.578    -8765061.305 6  -6296235.12321
  20679785.797    -1044983.069 5   1573400.79121
  18720193.508   -26333184.393 7 -20185949.61922
 91  3 23  1 10 44.9920000  0  5G15G 2G13G19G 6
  21236475.399    -5921339.395 6  -4510610.19821
  18461733.242   -29434761.729 7 -14391813.59423
  20338686.8444   -8835172.53546  -6350867.07361
  20684067.4694   -1022456.66545   1590953.75461
  18712486.047   -26373686.148 7 -20217509.37923
 91  3 23  1 10 59.9920000  0  5G15G 2G13G19G 6
  21231014.016    -5950030.264 6  -4532966.63821
  18458849.5554  -29449912.01647 -14403619.00163
  20325354.031    -8905215.035 6  -6405445.45021
  20688368.0944    -999870.53645   1608553.25061
  18704788.977   -26414136.288 7 -20249028.92023
 91  3 23  1 11 14.9920000  0  5G15G 2G13G19G 6
  21225580.906    -5978598.733 6  -4555227.70221
  18455976.188   -29465014.425 7 -14415387.10123
  20312040.3834   -8975182.93546  -6459965.69061
  20692678.6174    -977219.17545   1626203.58561
  18697101.063   -26454529.039 7 -20280503.73722
 91  3 23  1 11 29.9920000  0  5G15G 2G13G19G 6
  21220166.961    -6007046.593 6  -4577394.77521
  18453110.445   -29480070.787 7 -14427119.31723
  20298739.9144   -9045077.41146  -6514428.71661
  20697003.649     -954504.682 5   1643903.11321
  18689425.922   -26494865.872 7 -20311934.99322
 91  3 23  1 11 44.9920000  0  5G15G 2G13G19G 6
  21214775.813    -6035369.723 6  -4599464.66621
  18450255.2974  -29495077.39647 -14438812.76663
  20285456.164    -9114894.428 6  -6568831.41221
  20701332.203     -931723.146 5   1661654.87921
  18681761.602   -26535142.855 7 -20343319.60922
 91  3 23  1 11 59.9920000  0  5G15G 2G13G19G 6
  21209411.2584   -6063568.67146  -4621437.79461
  18447408.266   -29510035.010 7 -14450468.03423
  20272185.5244   -9184634.44746  -6623174.06561
  20705684.055     -908875.608 5   1679458.07621
  18674107.586   -26575360.261 7 -20374657.80822
 91  3 23  1 12 14.9920000  0  5G15G 2G13G19G 6
  21204068.8914   -6091646.16846  -4643316.27261
  18444570.500   -29524946.561 7 -14462087.41323
  20258929.8914   -9254299.87346  -6677458.63161
  20710042.195     -885965.045 5   1697310.38221
  18666464.328   -26615520.763 7 -20405951.66322
 91  3 23  1 12 29.9920000  0  5G15G 2G13G19G 6
  21198747.4844   -6119601.25346  -4665099.38961
  18441741.836   -29539811.408 7 -14473670.39823
  20245686.649    -9323889.663 6  -6731684.23921
  20714416.328     -862990.672 5   1715212.40721
  18658834.227   -26655623.411 7 -20437200.43022
 91  3 23  1 12 44.9920000  0  5G15G 2G13G19G 6
  21193451.1724   -6147433.31746  -4686786.61561
  18438922.578   -29554629.316 7 -14485216.80523
  20232458.0164   -9393403.09646  -6785850.36861
  20718798.649     -839952.103 5   1733164.46521
  18651214.984   -26695667.542 7 -20468403.59722
 91  3 23  1 12 59.9920000  0  5G15G 2G13G19G 6
  21188180.2814   -6175145.11846  -4708380.16161
  18436110.422   -29569403.384 7 -14496729.05223
  20219247.6414   -9462843.23646  -6839959.37361
  20723195.4454    -816852.78545   1751163.84761
  18643604.547   -26735656.266 7 -20499563.59622
 91  3 23  1 13 14.9920000  0  5G15G 2G13G19G 6
  21182928.164    -6202732.427 6  -4729876.68421
  18433309.4144  -29584129.40247 -14508203.86063
  20206043.7974   -9532205.34246  -6894007.59961
  20727603.133     -793688.421 5   1769213.91721
  18636006.500   -26775584.926 7 -20530676.79722
 91  3 23  1 13 29.9920000  0  5G15G 2G13G19G 6
  21177701.828    -6230196.386 6  -4751277.10421
  18430515.1174  -29598808.91447 -14519642.43263
  20192858.9614   -9601490.46746  -6947995.80561
  20732021.211     -770460.667 5   1787313.39521
  18628419.445   -26815454.769 7 -20561744.16122
 91  3 23  1 13 44.9920000  0  5G15G 2G13G19G 6
  21172497.180    -6257535.928 6  -4772580.56221
  18427730.6884  -29613440.97847 -14531044.02763
  20179687.164    -9670697.324 6  -7001923.04021
  20736455.5474    -747168.50445   1805463.03761
  18620843.344   -26855264.537 7 -20592764.71622
 91  3 23  1 13 59.9920000  0  5G15G 2G13G19G 6
  21167319.211    -6284753.722 6  -4793789.16621
  18424954.9844  -29628028.87747 -14542411.21363
  20166534.5554   -9739828.78846  -7055791.54061
  20740900.492     -723815.372 5   1823660.20421
  18613279.891   -26895017.150 7 -20623740.73322
 91  3 23  1 14 14.9920000  0  5G15G 2G13G19G 6
  21162166.828    -6311843.575 6  -4814898.06521
  18422188.563   -29642566.404 7 -14553739.14923
  20153395.1804   -9808878.07046  -7109595.99961
  20745356.9304    -700395.09945   1841909.68461
  18605727.0164  -26934706.02347 -20654667.08862
 91  3 23  1 14 29.9920000  0  5G15G 2G13G19G 6
  21157033.008    -6338807.884 6  -4835909.14421
  18419431.7744  -29657056.21647 -14565029.90463
  20140270.899    -9877847.594 6  -7163338.30121
  20749824.2504    -676910.41645   1860209.35661
  18598185.047   -26974333.561 7 -20685545.64022
 91  3 23  1 14 44.9920000  0  5G15G 2G13G19G 6
  21151926.594    -6365651.861 6  -4856826.44221
  18416682.5634  -29671503.61047 -14576287.60463
  20127157.3284   -9946742.51846  -7217022.48361
  20754305.734     -653366.824 5   1878554.93021
  18590655.992   -27013904.827 7 -20716380.35122
 91  3 23  1 14 59.9920000  0  5G15G 2G13G19G 6
  21146838.1804   -6392378.10446  -4877652.00961
  18413939.7424  -29685911.34247 -14587514.39763
  20114063.7424  -10015565.20246  -7270650.35861
  20758794.297     -629767.218 5   1896944.14921
  18583135.070   -27053422.409 7 -20747173.22622
 91  3 23  1 15 14.9920000  0  5G15G 2G13G19G 6
  21141779.336    -6418972.549 6  -4898374.87821
  18411209.727   -29700265.766 7 -14598699.65023
  20100983.9144  -10084301.35846  -7324210.83761
  20763299.875     -606097.698 5   1915387.84921
  18575628.1564  -27092872.12547 -20777913.22862
 91  3 23  1 15 29.9920000  0  5G15G 2G13G19G 6
  21136740.805    -6445444.612 6  -4919002.38821
  18408486.016   -29714576.639 7 -14609850.96823
  20087918.9454  -10152960.39846  -7377711.20961
  20767819.024     -582368.069 5   1933878.38121
  18568132.055   -27132263.496 7 -20808607.76122
 91  3 23  1 15 44.9920000  0  5G15G 2G13G19G 6
  21131723.1494   -6471795.87146  -4939535.74861
  18405770.5634  -29728845.70947 -14620969.71763
  20074868.1724  -10221543.57246  -7431152.45861
  20772339.969     -558580.247 5   1952414.26821
  18560647.8364  -27171597.72347 -20839257.77262
 91  3 23  1 15 59.9920000  0  5G15G 2G13G19G 6
  21126734.7814   -6498022.57246  -4959972.06561
  18403063.1174  -29743069.55247 -14632053.21463
  20061831.0004  -10290047.16946  -7484531.70261
  20776881.664     -534730.928 5   1970998.07621
  18553174.828   -27210871.245 7 -20869860.47022
 91  3 23  1 16 14.9920000  0  5G15G 2G13G19G 6
  21121770.992    -6524122.000 6  -4980309.20521
  18400366.258   -29757245.809 7 -14643099.63823
  20048812.0244  -10358468.48446  -7537846.83561
  20781432.055     -510817.768 5   1989631.62921
  18545713.344   -27250081.484 7 -20900413.85623
 91  3 23  1 16 29.9910000  0  5G15G 2G13G19G 6
  21116828.120    -6550092.354 6  -5000545.75421
  18397678.3314  -29771373.40348 -14654108.14463
  20035807.2224  -10426802.37046  -7591093.84261
  20785995.175     -486842.321 5   2008313.70621
  18538262.995   -27289225.429 7 -20930915.59022
 91  3 23  1 16 44.9910000  0  5G15G 2G13G19G 6
  21111908.456    -6575938.987 6  -5020685.90821
  18394998.1674  -29785456.20948 -14665081.74663
  20022816.3394  -10495059.36446  -7644280.93161
  20790567.847     -462803.273 5   2027045.35621
  18530825.3234  -27328309.74947 -20961370.86662
 91  3 23  1 16 59.9910000  0  5G15G 2G13G19G 6
  21107013.691    -6601661.133 6  -5040729.06621
  18392325.894   -29799494.692 8 -14676020.81323
  20009841.5504  -10563236.01646  -7697405.42061
  20795155.2304    -438703.75245   2045824.10661
  18523399.987   -27367333.059 7 -20991778.59422
 91  3 23  1 17 14.9910000  0  5G15G 2G13G19G 6
  21102142.9174   -6627256.95346  -5060673.78061
  18389664.261   -29813487.506 8 -14686924.29223
  19996886.409   -10631330.788 6  -7750466.10521
  20799753.9014    -414542.57045   2064650.92761
  18515986.1594  -27406293.67847 -21022137.47662
 91  3 23  1 17 29.9910000  0  5G15G 2G13G19G 6
  21097295.769    -6652725.998 6  -5080519.71821
  18387009.9724  -29827434.27948 -14697791.89563
  19983945.1984  -10699342.95146  -7803462.41661
  20804363.003     -390319.374 5   2083526.06121
  18508583.2224  -27445190.89847 -21052446.96262
 91  3 23  1 17 44.9910000  0  5G15G 2G13G19G 6
  21092472.4334   -6678069.63746  -5100267.95061
  18384364.2844  -29841336.88847 -14708625.08763
  19971016.214   -10767273.944 6  -7856395.48021
  20808985.659     -366035.882 5   2102448.18521
  18501194.7064  -27484026.13847 -21082708.15162
 91  3 23  1 17 59.9910000  0  5G15G 2G13G19G 6
  21087675.0814   -6703284.56546  -5119915.87361
  18381726.823   -29855192.081 7 -14719421.32923
  19958102.5424  -10835120.02446  -7909262.37261
  20813618.5734    -341689.09345   2121419.61961
  18493814.9874  -27522796.08947 -21112918.46562
 91  3 23  1 18 14.9910000  0  5G15G 2G13G19G 6
  21082902.644    -6728371.060 6  -5139463.71921
  18379098.800   -29869000.212 7 -14730180.89923
  19945210.2144  -10902881.41646  -7962063.29361
  20818261.980     -317279.576 5   2140439.94521
  18486451.3164  -27561500.77347 -21143077.92162
 91  3 23  1 18 29.9910000  0  5G15G 2G13G19G 6
  21078150.0264   -6753337.25346  -5158917.81161
  18376479.886   -29882769.509 8 -14740910.21023
  19932331.394   -10970565.841 6  -8014804.23521
  20822917.6444    -292815.31345   2159502.91461
  18479096.7454  -27600148.00947 -21173192.61062
 91  3 23  1 18 44.9910000  0  5G15G 2G13G19G 6
  21073423.4644   -6778175.27146  -5178272.05261
  18373867.253   -29896492.486 7 -14751603.41523
  19919468.003   -11038165.439 6  -8067479.08821
  20827584.425     -268288.903 5   2178614.32221
  18471754.331   -27638729.932 7 -21203256.40422
 91  3 23  1 18 59.9910000  0  5G15G 2G13G19G 6
  21068724.917    -6802881.954 6  -5197523.93421
  18371266.5114  -29910166.17747 -14762258.23163
  19906620.534   -11105676.733 6  -8120085.13421
  20832264.464     -243697.525 5   2197776.36721
  18464426.097   -27677243.354 7 -21233266.81822
 91  3 23  1 19 14.9910000  0  5G15G 2G13G19G 6
  21064044.5894   -6827462.95146  -5216677.88961
  18368671.847   -29923796.581 7 -14772879.30423
  19893789.362   -11173105.274 6  -8172626.68421
  20836953.7694    -219047.30245   2216984.25261
  18457109.378   -27715693.899 7 -21263228.24222
 91  3 23  1 19 29.9910000  0  5G15G 2G13G19G 6
  21059390.5424   -6851910.34746  -5235727.73061
  18366087.620   -29937375.861 7 -14783460.54623
  19880973.628   -11240443.050 6  -8225097.51421
  20841658.495     -194330.436 5   2236244.06721
  18449805.8704  -27754073.54747 -21293134.41462
 91  3 23  1 19 44.9910000  0  5G15G 2G13G19G 6
  21054763.612    -6876230.484 6  -5254678.41121
  18363512.589   -29950910.432 7 -14794006.94123
  19868175.5194  -11307696.04746  -8277502.29661
  20846374.4414    -169553.52445   2255550.67761
  18442515.026   -27792388.384 7 -21322990.08622
 91  3 23  1 19 59.9910000  0  5G15G 2G13G19G 6
  21050158.4174   -6900431.66546  -5273536.40261
  18360943.144   -29964408.835 7 -14804525.15823
  19855392.6754  -11374872.48346  -8329847.40961
  20851099.167     -144725.079 5   2274897.43121
  18435234.628   -27830646.630 7 -21352801.65623
 91  3 23  1 20 14.9910000  0  5G15G 2G13G19G 6
  21045576.144    -6924503.225 6  -5292293.40621
  18358382.761   -29977860.775 7 -14815007.16923
  19842627.2614  -11441961.67046  -8382124.54561
  20855836.4484    -119834.89845   2294292.30161
  18427967.284   -27868837.550 7 -21382560.76823
 91  3 23  1 20 29.9910000  0  5G15G 2G13G19G 6
  21041021.1284   -6948451.25946  -5310954.14861
  18355831.730   -29991272.504 7 -14825457.85223
  19829875.386   -11508969.719 6  -8434338.43721
  20860581.855      -94889.156 5   2313730.46821
  18420711.378   -27906967.192 7 -21412272.13523
 91  3 23  1 20 44.9910000  0  5G15G 2G13G19G 6
  21036488.659    -6972266.695 6  -5329511.55921
  18353288.636   -30004635.447 7 -14835870.52123
  19817137.4094  -11575887.59246  -8486482.07361
  20865340.073      -69879.532 5   2333218.40821
  18413469.261   -27945026.688 7 -21441928.84023
 91  3 23  1 20 59.9910000  0  5G15G 2G13G19G 6
  21031979.8474   -6995951.57046  -5347967.23561
  18350754.511   -30017951.800 7 -14846246.88223
  19804426.073   -11642716.834 6  -8538556.64821
  20870111.4014     -44808.24745   2352754.38061
  18406238.808   -27983017.848 7 -21471532.30122
 91  3 23  1 21 14.9910000  0  5G15G 2G13G19G 6
  21027501.0814   -7019504.84746  -5366320.36461
  18348230.269   -30031220.684 7 -14856586.25723
  19791722.6514  -11709456.14546  -8590561.15461
  20874892.245      -19674.441 5   2372339.08121
  18399022.050   -28020939.484 7 -21501081.58322
 91  3 23  1 21 29.9910000  0  5G15G 2G13G19G 6
  21023041.167    -7042931.067 6  -5384574.49021
  18345713.011   -30044446.565 7 -14866892.11723
  19779038.5264  -11776109.64546  -8642498.77561
  20879691.9484       5517.27345   2391968.92361
  18391818.448   -28058795.711 7 -21530579.89722
 91  3 23  1 21 44.9910000  0  5G15G 2G13G19G 6
  21018607.691    -7066227.170 6  -5402727.21621
  18343204.503   -30057626.580 7 -14877162.24523
  19766373.370   -11842674.291 6  -8694367.18821
  20884495.3864      30769.62145   2411645.98561
  18384626.550   -28096583.456 7 -21560024.85222
 91  3 23  1 21 59.9910000  0  5G15G 2G13G19G 6
  21014200.878    -7089391.266 6  -5420777.09121
  18340705.706   -30070759.278 7 -14887395.49523
  19753723.167   -11909148.218 6  -8746164.88421
  20889310.941       56084.333 4   2431371.65021
  18377450.9804  -28134300.85247 -21589414.98862
 91  3 23  1 22 14.9910000  0  5G15G 2G13G19G 6
  21009817.0504   -7112432.54846  -5438731.26561
  18338213.472   -30083854.079 7 -14897599.22223
  19741089.308   -11975540.606 6  -8797899.05621
  20894139.191       81451.740 5   2451138.38721
  18370285.136   -28171957.119 7 -21618757.48922
 91  3 23  1 22 29.9910000  0  5G15G 2G13G19G 6
  21005457.159    -7135341.304 6  -5456582.16621
  18335731.175   -30096901.283 7 -14907765.85723
  19728472.5584  -12041841.41246  -8849561.87561
  20898976.7694     106881.29544   2470953.54161
  18363132.995   -28209542.191 7 -21648044.51322
 91  3 23  1 22 44.9910000  0  5G15G 2G13G19G 6
  21001120.745    -7158123.457 6  -5474334.40621
  18333257.066   -30109907.089 8 -14917900.23123
  19715871.6284  -12108056.38546  -8901157.80461
  20903827.394      132366.841 5   2490812.33321
  18355990.8944  -28247062.05047 -21677280.72862
 91  3 23  1 22 59.9910000  0  5G15G 2G13G19G 6
  20996809.8944   -7180774.93946  -5491984.85461
  18330790.675   -30122867.511 7 -14927999.24523
  19703285.1514  -12174181.29946  -8952683.55661
  20908687.855      157912.191 4   2510717.71821
  18348865.784   -28284512.374 7 -21706462.75622
 91  3 23  1 23 14.9910000  0  5G15G 2G13G19G 6
  20992524.566    -7203290.066 6  -5509529.02521
  18328333.9014  -30135777.15547 -14938058.69663
  19690721.714   -12240210.275 6  -9004134.54321
  20913563.495      183522.578 5   2530673.78821
  18341755.026   -28321887.491 7 -21735586.16822
 91  3 23  1 23 29.9910000  0  5G15G 2G13G19G 6
  20988267.839    -7225675.327 6  -5526972.02721
  18325885.816   -30148642.838 7 -14948083.88823
  19678174.6364  -12306149.65346  -9055515.72861
  20918450.5894     209191.27645   2550675.27861
  18334654.409   -28359193.796 7 -21764655.96922
 91  3 23  1 23 44.9910000  0  5G15G 2G13G19G 6
  20984034.1834   -7247929.40746  -5544312.80461
  18323445.761   -30161463.234 7 -14958073.79723
  19665643.2224  -12371997.78246  -9106825.80361
  20923342.847      234919.458 5   2570723.13521
  18327567.839   -28396429.663 7 -21793670.88423
 91  3 23  1 23 59.9910000  0  5G15G 2G13G19G 6
  20979820.6514   -7270054.45046  -5561553.01861
  18321014.230   -30174240.688 7 -14968030.24123
  19653130.4014  -12437756.57846  -9158066.27661
  20928251.7844     260704.94045   2590815.61961
  18320495.409   -28433597.063 7 -21822632.45223
 91  3 23  1 24 14.9910000  0  5G15G 2G13G19G 6
  20975634.487    -7292047.051 6  -5578690.04121
  18318592.105   -30186972.149 7 -14977950.84623
  19640633.3554  -12503422.87846  -9209234.68461
  20933168.3624     286550.51545   2610954.95661
  18313437.394   -28470692.790 7 -21851538.17122
 91  3 23  1 24 29.9910000  0  5G15G 2G13G19G 6
  20971475.5734   -7313908.33246  -5595724.74361
  18316175.987   -30199658.879 7 -14987836.59723
  19628154.1984  -12568997.61146  -9260331.72261
  20938097.7534     312454.84745   2631140.04561
  18306391.026   -28507717.696 7 -21880388.70022
 91  3 23  1 24 44.9910000  0  5G15G 2G13G19G 6
  20967339.6674   -7335638.18646  -5612657.02461
  18313771.925   -30212300.848 7 -14997687.46823
  19615695.5504  -12634480.11246  -9311356.89761
  20943038.3314     338417.77645   2651370.81161
  18299359.066   -28544671.596 7 -21909183.90523
 91  3 23  1 24 59.9910000  0  5G15G 2G13G19G 6
  20963232.792    -7357237.966 6  -5629487.95421
  18311373.964   -30224899.645 7 -15007504.70023
  19603250.5424  -12699871.66946  -9362311.20761
  20947989.0504     364437.73544   2671646.01961
  18292339.4804  -28581555.60747 -21937924.65263
 91  3 23  1 25 14.9910000  0  5G15G 2G13G19G 6
  20959146.987    -7378708.136 6  -5646217.87721
  18308982.9724  -30237455.86247 -15017288.75463
  19590825.5734  -12765172.63946  -9413194.92761
  20952949.4644     390513.86545   2691964.98461
  18285333.667   -28618370.083 7 -21966611.21222
 91  3 23  1 25 29.9910000  0  5G15G 2G13G19G 6
  20955083.2454   -7400045.58346  -5662844.39961
  18306603.5194  -30249966.53847 -15027037.32463
  19578420.0424  -12830380.02846  -9464005.73261
  20957925.0664     416648.98444   2712329.92361
  18278341.808   -28655111.867 7 -21995241.13322
 91  3 23  1 25 44.9910000  0  5G15G 2G13G19G 6
  20951045.5664   -7421252.43746  -5679369.14861
  18304231.4874  -30262434.21147 -15036752.38563
  19566023.964   -12895495.527 6  -9514744.91921
  20962909.3944     442840.72345   2732738.97461
  18271364.636   -28691782.960 7 -22023815.96722
 91  3 23  1 25 59.9910000  0  5G15G 2G13G19G 6
  20947039.964    -7442323.850 6  -5695788.35621
  18301867.8234  -30274854.11747 -15046430.22263
  19553653.8164  -12960514.21546  -9565408.68661
  20967908.4334     469093.72145   2753195.76561
  18264400.878   -28728378.355 7 -22052331.81522
 91  3 23  1 26 14.9910000  0  5G15G 2G13G19G 6
  20943051.7844   -7463258.09046  -5712100.68661
  18299514.3084  -30287224.38547 -15056069.38063
  19541298.4484  -13025433.95246  -9615995.34061
  20972913.245      495409.680 5   2773701.61521
  18257451.925   -28764895.965 7 -22080787.05222
 91  3 23  1 26 29.9910000  0  5G15G 2G13G19G 6
  20939096.7224   -7484059.81246  -5728309.74061
  18297168.964   -30299550.062 8 -15065673.79023
  19528961.706   -13090259.225 6  -9666508.38721
  20977935.3394     521783.46245   2794252.51961
  18250516.2144  -28801340.44847 -22109185.31262
 91  3 23  1 26 44.9910000  0  5G15G 2G13G19G 6
  20935160.3864   -7504736.35346  -5744421.26161
  18294829.7844  -30311838.71048 -15075249.35063
  19516644.3084  -13154997.17646  -9716953.39961
  20982958.503      548207.361 5   2814842.49821
  18243592.5584  -28837719.10847 -22137532.28562
 91  3 23  1 26 59.9910000  0  5G15G 2G13G19G 6
  20931255.706    -7525276.592 6  -5760426.56721
  18292500.9564  -30324079.48748 -15084787.60963
  19504342.8554  -13219636.66146  -9767321.68561
  20987999.2064     574692.46245   2835480.12961
  18236685.5114  -28874020.61147 -22165819.13163
 91  3 23  1 27 14.9910000  0  5G15G 2G13G19G 6
  20927368.6204   -7545693.10846  -5776335.46961
  18290179.2224  -30336285.06048 -15094298.43863
  19492057.003   -13284190.219 6  -9817623.01221
  20993049.9804     601225.76445   2856155.34061
  18229789.8234  -28910257.42447 -22194055.57563
 91  3 23  1 27 29.9910000  0  5G15G 2G13G19G 6
  20923505.8704   -7565975.27246  -5792139.68961
  18287864.4014  -30348444.98948 -15103773.70063
  19479792.5264  -13348646.88646  -9867848.83261
  20998110.8394     627817.65045   2876876.20161
  18222908.0504  -28946418.85447 -22222233.27262
 91  3 23  1 27 44.9910000  0  5G15G 2G13G19G 6
  20919674.1444   -7586120.62146  -5807837.30261
  18285559.0504  -30360556.91748 -15113211.55963
  19467546.5034  -13413004.24846  -9917997.28461
  21003179.4094     654470.43944   2897644.50161
  18216042.5034  -28982502.17547 -22250350.11263
 91  3 23  1 27 59.9910000  0  5G15G 2G13G19G 6
  20915867.0894   -7606136.41046  -5823433.94461
  18283261.8004  -30372628.17548 -15122617.73063
  19455314.753   -13477269.440 6  -9968073.90821
  21008267.0734     681176.42444   2918454.26961
  18209190.3624  -29018514.62747 -22278411.72463
 91  3 23  1 28 14.9910000  0  5G15G 2G13G19G 6
  20912083.761    -7626013.239 6  -5838922.32721
  18280973.7534  -30384649.60348 -15131985.07263
  19443106.105   -13541432.254 6 -10018070.77221
  21013354.941      707945.010 4   2939312.81121
  18202352.3784  -29054446.47947 -22306410.53563
 91  3 23  1 28 29.9910000  0  5G15G 2G13G19G 6
  20908326.7144   -7645756.31646  -5854306.47161
  18278693.8864  -30396626.46747 -15141317.68263
  19430916.0114  -13605497.91946 -10067991.91661
  21018461.5894     734770.76344   2960215.89661
  18195527.2614  -29090302.82847 -22334350.51163
 91  3 23  1 28 44.9910000  0  5G15G 2G13G19G 6
  20904594.9334   -7665368.70646  -5869588.79361
  18276423.0194  -30408562.04847 -15150618.13063
  19418740.800   -13669469.471 6 -10117839.73521
  21023576.214      761650.243 4   2981160.84021
  18188719.3624  -29126086.59447 -22362233.92763
 91  3 23  1 28 59.9910000  0  5G15G 2G13G19G 6
  20900888.636    -7684849.072 6  -5884768.24521
  18274161.1754  -30420455.12847 -15159885.45663
  19406587.784   -13733345.271 7 -10167612.94021
  21028704.3474     788584.57844   3002148.54061
  18181922.5344  -29161796.22947 -22390059.58263
 91  3 23  1 29 14.9910000  0  5G15G 2G13G19G 6
  20897206.0264   -7704192.78846  -5899841.21061
  18271906.7924  -30432301.33947 -15169116.25863
  19394452.2694  -13797120.55647 -10217307.81561
  21033840.862      815578.100 4   3023182.36721
  18175143.112   -29197426.986 7 -22417823.76523
 91  3 23  1 29 29.9910000  0  5G15G 2G13G19G 6
  20893551.519    -7723406.213 6  -5914812.64721
  18269660.5974  -30444107.07747 -15178315.52763
  19382334.237   -13860801.668 7 -10266929.31821
  21038985.566      842624.241 4   3044257.18321
  18168377.3164  -29232985.16047 -22445531.39963
 91  3 23  1 29 44.9910000  0  5G15G 2G13G19G 6
  20889922.050    -7742484.324 6  -5929678.65421
  18267422.2844  -30455867.47347 -15187479.46263
  19370233.511   -13924383.144 6 -10316473.18321
  21044142.8554     869727.87944   3065376.79461
  18161624.9174  -29268465.49147 -22473178.38363
 91  3 23  1 29 59.9910000  0  5G15G 2G13G19G 6
  20886315.5584   -7761425.40746  -5944437.87361
  18265194.4564  -30467580.86348 -15196606.76963
  19358151.8234  -13987862.98446 -10365937.84761
  21049312.136      896890.474 4   3086542.35221
  18154888.2614  -29303866.03247 -22500763.18163
 91  3 23  1 30 14.9910000  0  5G15G 2G13G19G 6
  20882733.6204   -7780234.64646  -5959094.36561
  18262972.933   -30479252.671 8 -15205701.67523
  19346089.9094  -14051246.57946 -10415327.51461
  21054492.956      924106.498 4   3107749.52921
  18148166.0664  -29339191.79847 -22528289.71663
 91  3 23  1 30 29.9910000  0  5G15G 2G13G19G 6
  20879181.573    -7798906.825 6  -5973644.04121
  18260759.3004  -30490878.13448 -15214760.46463
  19334047.003   -14114528.639 6 -10464638.07221
  21059685.6674     951380.38144   3129001.81061
  18141458.8944  -29374437.83947 -22555754.12863
 91  3 23  1 30 44.9910000  0  5G15G 2G13G19G 6
  20875656.5194   -7817436.66146  -5988082.81561
  18258558.1364  -30502451.91948 -15223778.98663
  19322025.651   -14177703.481 6 -10513865.07821
  21064887.4334     978717.50444   3150303.36861
  18134768.2534  -29409598.48247 -22583151.99962
 91  3 23  1 30 59.9910000  0  5G15G 2G13G19G 6
  20872152.284    -7835830.844 6  -6002415.88221
  18256364.3004  -30513980.66548 -15232762.42563
  19310024.0344  -14240777.64246 -10563013.63561
  21070097.7454    1006111.20844   3171649.02161
  18128090.3234  -29444680.13947 -22610488.32263
 91  3 23  1 31 14.9910000  0  5G15G 2G13G19G 6
  20868680.0664   -7854086.70246  -6016641.17061
  18254178.5664  -30525461.88647 -15241708.82363
  19298041.9724  -14303748.04346 -10612081.33561
  21075320.0974    1033563.76244   3193040.52561
  18121432.0504  -29479679.93047 -22637760.85363
 91  3 23  1 31 29.9910000  0  5G15G 2G13G19G 6
  20865235.511    -7872207.289 6  -6030761.05421
  18252001.1444  -30536898.91248 -15250620.78763
  19286076.3474  -14366617.63546 -10661070.47761
  21080556.128     1061071.834 4   3214475.28921
  18114785.8084  -29514600.98047 -22664972.02663
 91  3 23  1 31 44.9910000  0  5G15G 2G13G19G 6
  20861812.4724   -7890192.70646  -6044775.61061
  18249833.5504  -30548291.86947 -15259498.40763
  19274134.573   -14429386.559 6 -10709981.19321
  21085802.230     1088635.169 4   3235953.13821
  18108157.0584  -29549443.06647 -22692121.67163
 91  3 23  1 31 59.9910000  0  5G15G 2G13G19G 6
  20858414.2534   -7908039.70246  -6058682.28761
  18247674.3864  -30559637.58847 -15268339.21563
  19262206.370   -14492051.183 6 -10758810.62021
  21091055.4724    1116256.81244   3257476.39061
  18101542.3704  -29584202.62047 -22719207.00163
 91  3 23  1 32 14.9910000  0  5G15G 2G13G19G 6
  20855044.9254   -7925749.48545  -6072482.05461
  18245524.6054  -30570937.51947 -15277144.35163
  19250303.300   -14554612.554 7 -10807559.60921
  21096321.878     1143935.136 4   3279043.82421
  18094943.2844  -29618880.97247 -22746229.06663
 91  3 23  1 32 29.9910000  0  5G15G 2G13G19G 6
  20851704.0814   -7943319.26646  -6086172.73761
  18243383.6204  -30582189.00547 -15285911.73663
  19238418.3314  -14617067.78547 -10856225.87161
  21101603.4724    1171672.73843   3300657.43761
  18088359.9954  -29653474.97747 -22773185.39763
 91  3 23  1 32 44.9910000  0  5G15G 2G13G19G 6
  20848383.6054   -7960750.98846  -6099755.84061
  18241251.7144  -30593394.36647 -15294643.18063
  19226555.3234  -14679418.73147 -10904810.89061
  21106888.862     1199467.317 4   3322315.45921
  18081791.8624  -29687986.51847 -22800077.46863
 91  3 23  1 32 59.9910000  0  5G15G 2G13G19G 6
  20845091.2764   -7978041.52646  -6113228.92661
  18239127.8474  -30604550.15147 -15303335.99063
  19214709.894   -14741661.503 7 -10953311.60421
  21112196.3784    1227322.12944   3344020.40961
  18075241.2454  -29722412.11447 -22826902.57863
 91  3 23  1 33 14.9910000  0  5G15G 2G13G19G 6
  20841830.9644   -7995189.48646  -6126590.90461
  18237015.1914  -30615655.26147 -15311989.31363
  19202884.347   -14803794.788 7 -11001727.01121
  21117504.3944    1255238.17944   3365773.07161
  18068708.4874  -29756750.25547 -22853659.53163
 91  3 23  1 33 29.9910000  0  5G15G 2G13G19G 6
  20838593.6674   -8012198.08046  -6139844.29061
  18234910.042   -30626712.950 7 -15320605.68023
  19191082.831   -14865821.716 7 -11050059.54221
  21122833.019     1283211.866 4   3387570.65621
  18062188.9094  -29791004.03947 -22880350.75863
 91  3 23  1 33 44.9910000  0  5G15G 2G13G19G 6
  20835376.7454   -8029070.41146  -6152991.50361
  18232816.1594  -30637726.23047 -15329187.44463
  19179298.222   -14927744.992 7 -11098311.30821
  21128160.0664    1311239.97444   3409410.65361
  18055687.5504  -29825176.24547 -22906978.41663
 91  3 23  1 33 59.9910000  0  5G15G 2G13G19G 6
  20832198.823    -8045795.623 6  -6166024.05621
  18230729.612   -30648684.566 8 -15337726.39723
  19167536.901   -14989553.743 7 -11146473.83721
  21133509.3314    1339333.09844   3431301.31461
  18049200.0584  -29859255.87347 -22933533.93863
 91  3 23  1 34 14.9910000  0  5G15G 2G13G19G 6
  20829047.4334   -8062384.94046  -6178950.74261
  18228653.339   -30659599.386 8 -15346231.43523
  19155793.698   -15051259.050 6 -11194555.75521
  21138866.003     1367479.649 4   3453233.58821
  18042731.1124  -29893254.08047 -22960026.01063
 91  3 23  1 34 29.9910000  0  5G15G 2G13G19G 6
  20825909.636    -8078833.078 6  -6191767.40921
  18226586.6284  -30670465.36548 -15354698.42463
  19144071.8084  -15112855.19046 -11242552.62061
  21144231.4254    1395684.93644   3475211.62961
  18036277.7304  -29927165.27747 -22986450.28263
 91  3 23  1 34 44.9910000  0  5G15G 2G13G19G 6
  20822807.511    -8095148.641 6  -6204480.77421
  18224523.206   -30681291.410 7 -15363134.28923
  19132370.7064  -15174350.60846 -11290471.00061
  21149609.6754    1423940.22044   3497228.63761
  18029840.8004  -29960997.86047 -23012813.30563
 91  3 23  1 34 59.9910000  0  5G15G 2G13G19G 6
  20819727.3554   -8111321.82645  -6217083.19961
  18222475.4414  -30692067.93047 -15371531.57063
  19120687.4644  -15235735.56246 -11338303.30261
  21154997.355     1452254.728 4   3519291.79921
  18023419.0264  -29994742.02747 -23039107.42563
 91  3 23  1 35 14.9910000  0  5G15G 2G13G19G 6
  20816681.526    -8127349.049 6  -6229571.87321
  18220432.1594  -30702791.42247 -15379887.53163
  19109027.776   -15297006.198 6 -11386046.52821
  21160394.7374    1480631.83344   3541403.72761
  18017013.4644  -30028393.95947 -23065329.68363
 91  3 23  1 35 29.9910000  0  5G15G 2G13G19G 6
  20813654.9954   -8143233.65046  -6241949.43061
  18218402.4414  -30713465.22947 -15388204.77463
  19097391.7844  -15358165.41947 -11433702.93361
  21165813.8004    1509068.14644   3563561.79961
  18010627.1914  -30061956.80547 -23091482.51663
 91  3 23  1 35 44.9910000  0  5G15G 2G13G19G 6
  20810661.3164   -8158981.78346  -6254220.64361
  18216380.9334  -30724095.47547 -15396488.07363
  19085772.847   -15419219.331 7 -11481277.28321
  21171227.6594    1537557.20044   3585760.93761
  18004256.1284  -30095436.45747 -23117570.52163
 91  3 23  1 35 59.9910000  0  5G15G 2G13G19G 6
  20807690.8314   -8174590.27946  -6266383.04261
  18214365.3164  -30734679.03447 -15404734.99663
  19074174.0814  -15480164.65547 -11528767.01561
  21176662.1204    1566101.90844   3608003.48361
  17997901.2614  -30128829.58547 -23143591.10563
 91  3 23  1 36 14.9910000  0  5G15G 2G13G19G 6
  20804749.2764   -8190060.32746  -6278437.56161
  18212359.9954  -30745217.35047 -15412946.66163
  19062596.7374  -15541002.24247 -11576172.79861
  21182102.644     1594701.062 3   3630288.45021
  17991564.4564  -30162137.12047 -23169544.98963
 91  3 23  1 36 29.9910000  0  5G15G 2G13G19G 6
  20801831.2454   -8205385.11346  -6290378.89061
  18210364.0814  -30755703.56647 -15421117.73263
  19051042.6444  -15601725.28547 -11623489.32961
  21187558.9874    1623361.20343   3652620.93861
  17985244.2844  -30195351.97347 -23195426.66063
 91  3 23  1 36 44.9910000  0  5G15G 2G13G19G 6
  20798940.5034   -8220566.41646  -6302208.41861
  18208380.4644  -30766139.44748 -15429249.58063
  19039508.503   -15662335.138 7 -11670717.65321
  21193022.8084    1652080.49343   3674999.50261
  17978938.9804  -30228475.69747 -23221237.32163
 91  3 23  1 36 59.9910000  0  5G15G 2G13G19G 6
  20796078.1514   -8235608.77246  -6313929.67461
  18206401.9954  -30776530.10447 -15437346.19263
  19027996.4564  -15722836.22847 -11717861.23861
  21198497.433     1680853.798 3   3697420.16621
  17972653.5894  -30261512.87247 -23246980.54063
 91  3 23  1 37 14.9910000  0  5G15G 2G13G19G 6
  20793240.4254   -8250509.46146  -6325540.53761
  18204433.7374  -30786872.55247 -15445405.23163
  19016505.1124  -15783225.57147 -11764917.74561
  21203982.698     1709683.717 3   3719884.92621
  17966384.4804  -30294460.34047 -23272653.85862
 91  3 23  1 37 29.9910000  0  5G15G 2G13G19G 6
  20790436.2614   -8265273.21646  -6337044.70161
  18202473.7224  -30797171.66048 -15453430.50263
  19005031.3234  -15843507.84247 -11811890.82361
  21209485.6054    1738565.40743   3742390.06261
  17960130.7614  -30327322.82947 -23298260.96162
 91  3 23  1 37 44.9910000  0  5G15G 2G13G19G 6
  20787654.8314   -8279898.83346  -6348441.22161
  18200523.4644  -30807426.63548 -15461421.38163
  18993581.3704  -15903681.45747 -11858779.22561
  21214988.8084    1767499.67743   3764936.13861
  17953893.5114  -30360098.83747 -23323800.67763
 91  3 23  1 37 59.9910000  0  5G15G 2G13G19G 6
  20784895.909    -8294382.489 6  -6359727.13521
  18198579.0734  -30817633.54847 -15469374.81263
  18982153.0034  -15963742.37447 -11905579.82461
  21220507.6364    1796490.24944   3787526.08661
  17947672.9334  -30392784.48147 -23349269.97663
 91  3 23  1 38 14.9910000  0  5G15G 2G13G19G 6
  20782166.5734   -8308715.90546  -6370895.97161
  18196649.2144  -30827784.12947 -15477284.34763
  18970746.370   -16023682.249 6 -11952286.11321
  21226032.1984    1825545.25144   3810166.26261
  17941472.1834  -30425371.15347 -23374662.15363
 91  3 23  1 38 29.9910000  0  5G15G 2G13G19G 6
  20779466.3784   -8322910.36246  -6381956.52961
  18194724.472   -30837889.523 8 -15485158.66723
  18959359.7304  -16083511.79146 -11998906.41461
  21231573.8084    1854653.24344   3832847.73561
  17935289.1124  -30457869.71847 -23399985.67763
 91  3 23  1 38 44.9910000  0  5G15G 2G13G19G 6
  20776792.894    -8336958.782 6  -6392903.30321
  18192812.2304  -30847942.89548 -15492992.44963
  18947997.636   -16143224.249 6 -12045435.49521
  21237119.980     1883820.863 4   3855575.65321
  17929121.3234  -30490273.07247 -23425235.00763
 91  3 23  1 38 59.9910000  0  5G15G 2G13G19G 6
  20774144.2454   -8350869.66546  -6403742.89061
  18190907.0194  -30857953.05848 -15500792.56963
  18936654.503   -16202827.783 6 -12091879.70421
  21242683.433     1913039.439 4   3878343.28721
  17922971.7304  -30522589.70747 -23450416.76563
 91  3 23  1 39 14.9910000  0  5G15G 2G13G19G 6
  20771524.8004   -8364644.92646  -6414476.79461
  18189010.620   -30867921.828 8 -15508560.42723
  18925334.2614  -16262323.71447 -12138240.05861
  21248250.566     1942307.076 4   3901149.13921
  17916837.7064  -30554821.04647 -23475532.06063
 91  3 23  1 39 29.9910000  0  5G15G 2G13G19G 6
  20768931.2224   -8378273.82446  -6425096.65861
  18187122.6444  -30877838.45447 -15516287.65663
  18914033.808   -16321701.301 7 -12184508.19521
  21253833.847     1971634.023 4   3924001.19921
  17910723.6124  -30586956.31347 -23500572.48563
 91  3 23  1 39 44.9910000  0  5G15G 2G13G19G 6
  20766359.269    -8391763.856 6  -6435608.31621
  18185245.136   -30887710.492 7 -15523980.14023
  18902755.409   -16380967.865 7 -12230689.82021
  21259421.8474    2001012.70344   3946893.57061
  17904624.8554  -30619002.64847 -23525543.61463
 91  3 23  1 39 59.9910000  0  5G15G 2G13G19G 6
  20763823.472    -8405109.016 6  -6446007.08121
  18183375.8314  -30897532.14548 -15531633.36663
  18891500.3084  -16440117.24847 -12276780.13661
  21265026.4804    2030448.96244   3969830.82561
  17898546.0504  -30650953.90747 -23550440.66663
 91  3 23  1 40 14.9910000  0  5G15G 2G13G19G 6
  20761313.831    -8418311.870 6  -6456294.94521
  18181515.323   -30907306.223 8 -15539249.51123
  18880267.675   -16499151.958 7 -12322781.09421
  21270637.1594    2059939.68644   3992810.53561
  17892482.5034  -30682812.56747 -23575265.55863
 91  3 23  1 40 29.9910000  0  5G15G 2G13G19G 6
  20758824.1754   -8431372.34246  -6466471.86961
  18179664.151   -30917032.454 8 -15546828.37723
  18869053.8704  -16558071.74447 -12368692.49861
  21276263.1054    2089484.89644   4015832.68761
  17886438.1984  -30714578.21247 -23600017.97263
 91  3 23  1 40 44.9900000  0  5G15G 2G13G19G 6
  20756362.889    -8444291.009 6  -6476538.31221
  18177823.772   -30926711.640 8 -15554370.58423
  18857864.998   -16616873.551 7 -12414511.98421
  21281893.607     2119081.352 5   4038894.77121
  17880408.5924  -30746249.62547 -23624696.95962
 91  3 23  1 40 59.9900000  0  5G15G 2G13G19G 6
  20753935.2794   -8457067.92446  -6486494.28561
  18175990.514   -30936343.607 8 -15561875.99623
  18846698.217   -16675563.424 7 -12460244.24221
  21287533.6154    2148734.33544   4062000.91861
  17874402.2954  -30777829.47247 -23649304.59663
 91  3 23  1 41 14.9900000  0  5G15G 2G13G19G 6
  20751528.795    -8469701.635 6  -6496338.68721
  18174164.920   -30945926.971 8 -15569343.53923
  18835550.811   -16734136.677 7 -12505885.63121
  21293186.6004    2178442.21744   4085149.81561
  17868409.8974  -30809314.62047 -23673838.43662
 91  3 23  1 41 29.9900000  0  5G15G 2G13G19G 6
  20749153.1234   -8482191.21746  -6506070.76661
  18172351.623   -30955460.882 8 -15576772.54823
  18824426.139   -16792592.162 7 -12551435.24521
  21298853.389     2208205.518 4   4108341.90721
  17862435.8034  -30840704.08547 -23698297.72163
 91  3 23  1 41 44.9900000  0  5G15G 2G13G19G 6
  20746807.381    -8494534.676 6  -6515689.00121
  18170546.053   -30964943.868 7 -15584161.87223
  18813323.623   -16850927.978 7 -12596891.62021
  21304527.178     2238025.934 5   4131578.49121
  17856481.5684  -30871996.00447 -23722680.99862
 91  3 23  1 41 59.9900000  0  5G15G 2G13G19G 6
  20744486.4284   -8506736.28046  -6525196.68661
  18168751.318   -30974380.135 7 -15591514.79523
  18802244.701   -16909147.797 7 -12642257.60221
  21310212.7404    2267899.15945   4154856.24161
  17850545.0064  -30903194.00647 -23746991.09163
 91  3 23  1 42 14.9900000  0  5G15G 2G13G19G 6
  20742185.873    -8518798.812 6  -6534596.02121
  18166964.436   -30983772.246 7 -15598833.30623
  18791188.615   -16967254.148 6 -12687535.16921
  21315904.0294    2297822.34444   4178172.93161
  17844625.482   -30934300.672 7 -23771230.00823
 91  3 23  1 42 29.9900000  0  5G15G 2G13G19G 6
  20739918.7254   -8530715.02846  -6543881.32461
  18165186.451   -30993113.267 7 -15606112.00723
  18780153.514   -17025239.905 6 -12732718.77021
  21321611.334     2327802.244 4   4201533.80521
  17838723.365   -30965308.600 7 -23795391.98923
 91  3 23  1 42 44.9900000  0  5G15G 2G13G19G 6
  20737680.2724   -8542492.46146  -6553058.48661
  18163416.920   -31002410.523 7 -15613356.60623
  18769140.4044  -17083112.13746 -12777813.91661
  21327323.475     2357831.406 4   4224933.03921
  17832842.506   -30996225.078 7 -23819482.70523
 91  3 23  1 42 59.9900000  0  5G15G 2G13G19G 6
  20735466.4984   -8554125.52346  -6562123.15861
  18161658.131   -31011658.465 7 -15620562.77623
  18758149.592   -17140864.997 6 -12822816.04321
  21333048.6624    2387915.37344   4248375.01861
  17826977.217   -31027044.101 7 -23843497.48523
 91  3 23  1 43 14.9900000  0  5G15G 2G13G19G 6
  20733283.8814   -8565613.55946  -6571074.81761
  18159907.139   -31020856.614 7 -15627730.15123
  18747185.295   -17198497.869 7 -12867724.66321
  21338785.7324    2418054.28344   4271859.80261
  17821130.7484  -31057765.11947 -23867435.90263
 91  3 23  1 43 29.9900000  0  5G15G 2G13G19G 6
  20731118.5614   -8576962.35046  -6579917.97961
  18158165.772   -31030010.527 7 -15634863.05323
  18736238.686   -17256015.976 7 -12912543.86621
  21344531.029     2448242.405 3   4295382.91221
  17815302.2254  -31088393.22547 -23891301.91963
 91  3 23  1 43 44.9900000  0  5G15G 2G13G19G 6
  20728986.8264   -8588171.07046  -6588651.98261
  18156432.693   -31039119.645 7 -15641961.05023
  18725315.303   -17313418.522 7 -12957273.02321
  21350282.061     2478480.297 3   4318944.81221
  17809492.0844  -31118927.58147 -23915094.88563
 91  3 23  1 43 59.9900000  0  5G15G 2G13G19G 6
  20726885.1544   -8599238.37146  -6597275.79061
  18154707.061   -31048182.794 7 -15649023.22123
  18714413.631   -17370703.865 7 -13001910.84221
  21356048.498     2508769.016 3   4342546.35221
  17803699.662   -31149366.679 7 -23938813.62223
 91  3 23  1 44 14.9900000  0  5G15G 2G13G19G 6
  20724803.186    -8610162.215 6  -6605787.82821
  18152992.842   -31057197.881 8 -15656047.94823
  18703536.959   -17427869.658 7 -13046455.51021
  21361817.303     2539110.375 3   4366188.87521
  17797925.4824  -31179708.24247 -23962456.36163
 91  3 23  1 44 29.9900000  0  5G15G 2G13G19G 6
  20722749.928    -8620944.224 6  -6614189.34021
  18151285.9044  -31066166.49648 -15663036.46963
  18692680.990   -17484917.561 7 -13090908.30721
  21367606.0844    2569502.62443   4389871.06161
  17792170.6154  -31209953.62947 -23986024.15763
 91  3 23  1 44 44.9900000  0  5G15G 2G13G19G 6
  20720725.904    -8631587.941 6  -6622483.08621
  18149587.990   -31075092.191 8 -15669991.53923
  18681846.209   -17541850.678 7 -13135271.67221
  21373396.147     2599942.268 3   4413590.18221
  17786433.842   -31240106.096 7 -24009519.54322
 91  3 23  1 44 59.9900000  0  5G15G 2G13G19G 6
  20718726.326    -8642084.138 6  -6630661.89821
  18147899.217   -31083965.842 8 -15676906.05623
  18671036.154   -17598659.644 7 -13179538.29121
  21379202.0294    2630438.02942   4437353.03361
  17780713.2794  -31270156.25947 -24032935.21663
 91  3 23  1 45 14.9900000  0  5G15G 2G13G19G 6
  20716755.3974   -8652439.75946  -6638731.15561
  18146218.475   -31092794.533 8 -15683785.53923
  18660246.334   -17655351.167 7 -13223713.39421
  21385007.2014    2660982.88142   4461154.13161
  17775013.9204  -31300110.67047 -24056276.27963
 91  3 23  1 45 29.9900000  0  5G15G 2G13G19G 6
  20714811.8654   -8662655.86246  -6646691.70261
  18144547.209   -31101579.269 8 -15690630.77323
  18649480.795   -17711925.934 7 -13267797.52421
  21390833.3344    2691575.52042   4484992.45661
  17769332.7644  -31329970.14347 -24079543.36163
 91  3 23  1 45 44.9900000  0  4G15G 2G13G 6
  20712891.623    -8672728.706 6  -6654540.60921
  18142884.3184  -31110316.12748 -15697438.70263
  18638738.162   -17768380.036 7 -13311787.62921
  17763669.2484  -31359730.62247 -24102733.30863
 91  3 23  1 45 59.9900000  0  4G15G 2G13G 6
  20711009.772    -8682658.142 6  -6662277.77721
  18141231.240   -31119004.937 7 -15704209.19723
  18628018.732   -17824713.076 7 -13355683.39921
  17758023.6934  -31389391.74747 -24125845.83963
 91  3 23  1 46 14.9900000  0  4G15G 2G13G 6
  20709147.7794   -8692443.89546  -6669902.98761
  18139584.834   -31127645.778 7 -15710942.29823
  18617322.451   -17880924.913 7 -13399484.72821
  17752399.5764  -31418953.27047 -24148880.75263
 91  3 23  1 46 29.9900000  0  4G15G 2G13G 6
  20707308.717    -8702085.817 6  -6677416.12321
  18137951.748   -31136238.435 7 -15717637.85923
  18606648.029   -17937014.864 7 -13443191.07821
  17746792.1074  -31448414.64147 -24171837.63163
 91  3 23  1 46 44.9900000  0  4G15G 2G13G 6
  20705497.4904   -8711587.32946  -6684819.84461
  18136323.686   -31144786.362 7 -15724298.56823
  18595995.053   -17992986.179 7 -13486804.98721
  17741205.154   -31477779.052 7 -24194718.94623
 91  3 23  1 46 59.9900000  0  4G15G 2G13G 6
  20703721.912    -8720948.197 6  -6692113.97421
  18134705.6074  -31153289.29047 -15730924.21663
  18585367.8424  -18048838.38647 -13530326.08761
  17735634.592   -31507045.964 7 -24217524.29023
 91  3 23  1 47 14.9900000  0  4G15G 2G13G 6
  20701964.7564   -8730166.84846  -6699297.28061
  18133096.615   -31161745.449 7 -15737513.41723
  18574762.7014  -18104569.54747 -13573752.86761
  17730084.6004  -31536213.39847 -24240252.12063
 91  3 23  1 47 29.9900000  0  4G15G 2G13G 6
  20700240.5614   -8739237.92246  -6706365.60461
  18131497.068   -31170149.622 7 -15744062.11023
  18564181.920   -18160174.251 7 -13617081.10621
  17724553.4284  -31565275.93847 -24262898.21863
 91  3 23  1 47 44.9900000  0  4G15G 2G13G 6
  20698542.9204   -8748167.71846  -6713323.83061
  18129906.061   -31178508.199 7 -15750575.27323
  18553624.240   -18215658.564 7 -13660315.52821
  17719043.1704  -31594239.40947 -24285467.12063
 91  3 23  1 47 59.9900000  0  4G15G 2G13G 6
  20696865.467    -8756958.999 5  -6720174.12621
  18128325.022   -31186824.141 7 -15757055.21323
  18543088.2254  -18271025.07047 -13703458.16561
  17713550.4434  -31623106.68047 -24307961.06963
 91  3 23  1 48 14.9900000  0  4G15G 2G13G 6
  20695221.8974   -8765605.12346  -6726911.32161
  18126751.3734  -31195090.65447 -15763496.64163
  18532572.709   -18326266.857 7 -13746503.60621
  17708075.1934  -31651870.55647 -24330374.44563
 91  3 23  1 48 29.9900000  0  4G15G 2G13G 6
  20693605.8574   -8774110.03745  -6733538.46161
  18125187.857   -31203311.594 8 -15769902.55923
  18522085.701   -18381387.606 7 -13789454.74421
  17702621.0064  -31680534.59547 -24352710.02663
 91  3 23  1 48 44.9900000  0  4G15G 2G13G 6
  20692012.615    -8782472.574 5  -6740054.69221
  18123630.639   -31211485.567 8 -15776271.87223
  18511620.920   -18436385.670 7 -13832310.27721
  17697186.6074  -31709097.56947 -24374966.85263
 91  3 23  1 48 59.9900000  0  4G15G 2G13G 6
  20690451.232    -8790687.356 5
  18122084.9434  -31219607.54548
  18501179.115   -18491255.696 7 -13875066.03321
  17691769.3424  -31737553.71247 -24397140.44063
 91  3 23  1 49 14.9900000  0  4G15G 2G13G 6
  20688915.522    -8798761.948 6
  18120548.4984  -31227685.19547
  18490760.1864  -18546005.07947 -13917727.79161
  17686372.7404  -31765910.70847 -24419236.76863
 91  3 23  1 49 29.9900000  0  4G15G 2G13G 6
  20687406.092    -8806692.492 6  -6758927.18721
  18119021.217   -31235714.634 7 -15795151.62423
  18480365.2874  -18600629.75347 -13960292.37861
  17680997.9904  -31794164.29047 -24441252.51263
 91  3 23  1 49 44.9900000  0  4G15G 2G13G 6
  20685921.9514   -8814482.41646  -6764997.18361
  18117501.0064  -31243699.37547 -15801373.48763
  18469994.3424  -18655132.96347 -14002762.31261
  17675640.7324  -31822317.57947 -24463190.10663
 91  3 23  1 49 59.9900000  0  4G15G 2G13G 6
  20684462.303    -8822133.098 6  -6770958.70121
  18115990.248   -31251640.657 7 -15807561.48523
  18459645.053   -18709515.753 7 -14045138.40921
  17670301.6004  -31850371.60747 -24485050.35563
 91  3 23  1 50 14.9900000  0  4G15G 2G13G 6
  20683033.857    -8829638.427 6  -6776806.95921
  18114488.529   -31259532.201 7 -15813710.72723
  18449320.6934  -18763771.82247 -14087415.77461
  17664984.3264  -31878319.89247 -24506828.19963
 91  3 23  1 50 29.9900000  0  4G15G 2G13G 6
  20681636.311    -8837000.521 6  -6782543.59721
  18112995.115   -31267376.067 7 -15819822.81623
  18439020.0374  -18817903.04547 -14129595.84061
  17659684.9124  -31906164.42347 -24528525.20463
 91  3 23  1 50 44.9900000  0  4G15G 2G13G 6
  20680262.787    -8844222.140 6  -6788170.79121
  18111511.764   -31275174.906 7 -15825899.82223
  18428741.725   -18871911.749 7 -14171680.45121
  17654404.2174  -31933907.49947 -24550143.15363
 91  3 23  1 50 59.9900000  0  4G15G 2G13G 6
  20678914.412    -8851300.138 6  -6793686.05321
  18110037.1544  -31282925.80248 -15831939.47063
  18418486.6704  -18925794.83747 -14213667.17661
  17649145.3894  -31961545.82347 -24571679.47663
 91  3 23  1 51 14.9900000  0  4G15G 2G13G 6
  20677598.053    -8858233.420 6  -6799088.56821
  18108570.6704  -31290627.89548 -15837941.09263
  18408258.0454  -18979550.90647 -14255554.93161
  17643906.0924  -31989078.24147 -24593133.27863
 91  3 23  1 51 29.9900000  0  4G15G 2G13G 6
  20676301.912    -8865026.309 6  -6804381.67521
  18107113.4824  -31298285.18448 -15843907.80363
  18398052.4284  -19033183.94847 -14297346.81961
  17638687.2014  -32016508.55147 -24614507.51463
 91  3 23  1 51 44.9900000  0  4G15G 2G13G 6
  20675034.0454   -8871683.65946  -6809569.16561
  18105664.5224  -31305902.60548 -15849843.44463
  18387869.4044  -19086698.53547 -14339046.40561
  17633485.701   -32043841.342 7 -24635805.76623
 91  3 23  1 51 59.9900000  0  4G15G 2G13G 6
  20673799.311    -8878194.289 6  -6814642.34421
  18104223.8424  -31313468.97248 -15855739.30663
  18377711.4204  -19140083.34647 -14380644.86761
  17628304.7954  -32071065.33647 -24657019.23963
 91  3 23  1 52 14.9900000  0  4G15G 2G13G 6
  20672583.451    -8884565.764 6  -6819607.08721
  18102794.553   -31320991.515 8 -15861601.02223
  18367575.3504  -19193345.68947 -14422147.89461
  17623144.076   -32098187.522 7 -24678153.38922
 91  3 23  1 52 29.9900000  0  4G15G 2G13G 6
  20671398.6474   -8890792.65146  -6824459.14761
  18101370.795   -31328464.856 8 -15867424.37823
  18357463.9824  -19246479.86647 -14463551.05161
  17618004.1154  -32125202.25347 -24699203.79763
 91  3 23  1 52 44.9900000  0  4G15G 2G13G 6
  20670241.3034   -8896880.11746  -6829202.57661
  18099957.967   -31335894.428 8 -15873213.64523
  18347373.5534  -19299490.88747 -14504858.24261
  17612881.6474  -32152114.56747 -24720174.39863
 91  3 23  1 52 59.9900000  0  4G15G 2G13G 6
  20669106.725    -8902826.137 6  -6833835.79221
  18098553.506   -31343278.208 8 -15878967.22323
  18337311.8974  -19352376.66247 -14546067.85161
  17607779.3114  -32178922.32347 -24741063.52663
 91  3 23  1 53 14.9900000  0  4G15G 2G13G 6
  20668004.037    -8908627.043 6  -6838355.93721
  18097156.5144  -31350612.18547 -15884681.99963
  18327271.1154  -19405133.13247 -14587176.69661
  17602700.1314  -32205621.37347 -24761867.94863
 91  3 23  1 53 29.9900000  0  4G15G 2G13G 6
  20666926.2174   -8914285.10146  -6842764.74561
  18095770.139   -31357898.619 7 -15890359.72323
  18317257.7874  -19457762.24447 -14628186.30061
  17597639.2874  -32232213.52847 -24782589.07363
 91  3 23  1 53 44.9900000  0  4G15G 2G13G 6
  20665878.2724   -8919803.14446  -6847064.45261
  18094392.3814  -31365140.43747 -15896002.68763
  18307266.2324  -19510266.43847 -14669098.57061
  17592598.9984  -32258701.42147 -24803228.95863
 91  3 23  1 53 59.9900000  0  4G15G 2G13G 6
  20664856.357    -8925179.422 6  -6851253.71321
  18093023.123   -31372335.841 8 -15901609.47923
  18297299.0374  -19562643.92247 -14709912.10561
  17587578.1544  -32285083.01147 -24823786.01463
 91  3 23  1 54 14.9900000  0  4G15G 2G13G 6
  20663861.607    -8930412.541 6  -6855331.42221
  18091661.998   -31379483.678 8 -15907179.21023
  18287356.4674  -19614893.12147 -14750625.68461
  17582579.7874  -32311356.79147 -24844259.05563
 91  3 23  1 54 29.9900000  0  4G15G 2G13G 6
  20662889.084    -8935502.893 6  -6859297.87621
  18090310.850   -31386584.166 8 -15912712.04023
  18277437.7644  -19667014.21747 -14791239.43261
  17577600.0684  -32337522.81147 -24864648.12863
 91  3 23  1 54 44.9900000  0  4G15G 2G13G 6
  20661949.7794   -8940452.48046  -6863154.65261
  18088969.5764  -31393639.33348 -15918209.56163
  18267542.0064  -19719009.18647 -14831754.91161
  17572640.0374  -32363582.85147 -24884954.62363
 91  3 23  1 54 59.9900000  0  4G15G 2G13G 6
  20661034.850    -8945265.229 6  -6866904.80121
  18087632.881   -31400652.705 8 -15923674.50923
  18257672.459   -19770881.271 7 -14872174.63521
  17567702.2724  -32389540.40047 -24905181.25163
 91  3 23  1 55 14.9900000  0  4G15G 2G13G 6
  20660139.639    -8949936.616 5  -6870544.78821
  18086308.514   -31407619.820 8 -15929103.42123
  18247827.092   -19822625.677 7 -14912494.86521
  17562782.9594  -32415390.57947 -24925324.21462
 91  3 23  1 55 29.9900000  0  4G15G 2G13G 6
  20659281.725    -8954465.154 5  -6874073.47921
  18084991.701   -31414539.456 8 -15934495.32923
  18238003.506   -19874241.075 7 -14952714.57121
  17557883.670   -32441131.833 7 -24945382.30822
 91  3 23  1 55 44.9900000  0  4G15G 2G13G 6
  20658447.568    -8958851.896 5  -6877491.66521
  18083683.178   -31421412.273 8 -15939850.75323
  18228203.897   -19925728.278 7 -14992834.38621
  17553005.3184  -32466764.82847 -24965356.04162
 91  3 23  1 55 59.9900000  0  4G15G 2G13G 6
  20657633.795    -8963101.469 5  -6880802.97421
  18082384.6154  -31428242.92248 -15945173.32663
  18218430.139   -19977091.554 7 -15032857.64221
  17548147.3894  -32492293.75847 -24985248.67863
 91  3 23  1 56 14.9900000  0  4G15G 2G13G 6
  20656857.6784   -8967212.51545  -6884006.33861
  18081091.967   -31435030.080 8 -15950462.00523
  18208680.6394  -20028329.35147 -15072783.10861
  17543310.5764  -32517717.21447 -25005059.13563
 91  3 23  1 56 29.9900000  0  4G15G 2G13G 6
  20656105.725    -8971182.112 5  -6887099.47921
  18079809.107   -31441770.542 8 -15955714.29523
  18198956.9594  -20079438.18747 -15112608.08961
  17538492.6544  -32543031.67347 -25024784.64663
 91  3 23  1 56 44.9900000  0  4G15G 2G13G 6
  20655371.779    -8975010.102 5  -6890082.27521
  18078536.107   -31448464.209 8 -15960930.12423
  18189257.1394  -20130418.06847 -15152332.58361
  17533696.4364  -32568236.82847 -25044424.99263
 91  3 23  1 56 59.9900000  0  4G15G 2G13G 6
  20654670.217    -8978699.647 5  -6892957.18721
  18077270.201   -31455114.291 8 -15966111.98923
  18179577.1474  -20181271.70747 -15191958.71261
  17528919.5454  -32593335.61447 -25063982.44863
 91  3 23  1 57 14.9900000  0  4G15G 2G13G 6
  20653992.490    -8982247.502 6  -6895721.71421
  18076013.561   -31461717.449 8 -15971257.28923
  18169923.482   -20231995.851 7 -15231483.93021
  17524165.2564  -32618324.52247 -25083454.28663
 91  3 23  1 57 29.9900000  0  4G15G 2G13G 6
  20653346.4984   -8985649.16245  -6898372.29461
  18074767.420   -31468269.246 8 -15976362.57123
  18160298.7094  -20282585.60147 -15270904.43161
  17519431.7564  -32643198.65947 -25102836.69863
 91  3 23  1 57 44.9900000  0  4G15G 2G13G 6
  20652731.0614   -8988909.01845  -6900912.41261
  18073529.318   -31474773.779 8 -15981431.02123
  18150696.217   -20333044.911 7 -15310223.28921
  17514718.9674  -32667962.01047 -25122132.77763
 91  3 23  1 57 59.9900000  0  4G15G 2G13G 6
  20652136.217    -8992026.801 5  -6903341.79821
  18072301.420   -31481230.510 8 -15986462.22223
  18141118.9124  -20383373.12147 -15349439.98661
  17510027.1864  -32692613.87747 -25141341.99763
 91  3 23  1 58 14.9900000  0  4G15G 2G13G 6
  20651566.482    -8995007.241 5  -6905664.17621
  18071081.178   -31487644.179 8 -15991459.87223
  18131565.5684  -20433574.81347 -15388558.09661
  17505358.0924  -32717158.83547 -25160467.90063
 91  3 23  1 58 29.9900000  0  4G15G 2G13G 6
  20651024.9904   -8997842.71745  -6907873.60561
  18069869.443   -31494007.504 8 -15996418.29023
  18122036.725   -20483642.732 7 -15427571.98521
  17500708.9204  -32741589.28047 -25179504.58063
 91  3 23  1 58 44.9900000  0  4G15G 2G13G 6
  20650515.295    -9000538.386 5  -6909974.08221
  18068666.397   -31500325.387 8 -16001341.29923
  18112533.4044  -20533581.53447 -15466485.24861
  17496079.1004  -32765909.71047 -25198455.52562
 91  3 23  1 58 59.9900000  0  4G15G 2G13G 6
  20650028.100    -9003099.189 5  -6911969.48321
  18067472.7014  -31506602.60748 -16006232.62863
  18103054.1544  -20583395.80547 -15505301.47361
  17491470.8424  -32790124.86247 -25217324.44163
 91  3 23  1 59 14.9900000  0  4G15G 2G13G 6
  20649566.897    -9005520.624 5  -6913856.26521
  18066285.6934  -31512834.76848 -16011088.84263
  18093600.170   -20633080.895 7 -15544017.04021
  17486886.2564  -32814230.06547 -25236107.68463
 91  3 23  1 59 29.9900000  0  4G15G 2G13G 6
  20649131.4984   -9007800.03245  -6915632.39861
  18065110.279   -31519018.931 8 -16015907.64823
  18084170.5144  -20682633.60347 -15582629.45761
  17482319.1624  -32838222.05247 -25254802.70663
 91  3 23  1 59 44.9900000  0  4G15G 2G13G 6
  20648726.537    -9009938.906 5  -6917298.99821
  18063939.459   -31525156.444 8 -16020690.11023
  18074765.1934  -20732055.28147 -15621139.76761
  17477776.6394  -32862102.01647 -25273410.43263
 91  3 23  1 59 59.9900000  0  4G15G 2G13G 6
  20648345.0144   -9011940.14646  -6918858.38561
  18062782.264   -31531250.306 8 -16025438.55323
  18065384.225   -20781348.799 7 -15659550.21921
  17473250.4674  -32885872.69447 -25291933.00663
 91  3 23  2  0 14.9900000  0  4G15G 2G13G 6
  20647988.451    -9013805.938 6  -6920312.19521
  18061629.404   -31537302.429 8 -16030154.47623
  18056028.7564  -20830515.76947 -15697862.05661
  17468749.0144  -32909535.86347 -25310371.80763
 91  3 23  2  0 29.9900000  0  4G15G 2G13G 6
  20647663.740    -9015526.509 6  -6921652.86321
  18060487.686   -31543303.116 8 -16034830.31723
  18046701.0764  -20879546.25647 -15736067.54461
  17464266.8814  -32933081.51447 -25328719.03363
 91  3 23  2  0 44.9900000  0  4G15G 2G13G 6
  20647364.5924   -9017107.44846  -6922884.72461
  18059355.232   -31549258.125 8 -16039470.56323
  18037394.4824  -20928445.94847 -15774171.10961
  17459807.2174  -32956515.22547 -25346979.03563
 91  3 23  2  0 59.9900000  0  4G15G 2G13G 6
  20647087.498    -9018551.095 6  -6924009.59921
  18058229.693   -31555169.753 8 -16044077.00923
  18028111.514   -20977216.989 7 -15812174.43221
  17455370.6784  -32979838.91847 -25365153.30663
 91  3 23  2  1 14.9900000  0  4G15G 2G13G 6
  20646839.3034   -9019856.09546  -6925026.43761
  18057113.889   -31561036.057 8 -16048648.14123
  18018855.107   -21025857.194 7 -15850075.80621
  17450953.2644  -33003050.57047 -25383240.27563
 91  3 23  2  1 29.9900000  0  4G15G 2G13G 6
  20646618.9204   -9021017.20146  -6925931.14361
  18056006.889   -31566851.842 8 -16053179.90023
  18009626.842   -21074361.475 7 -15887871.26922
  17446556.7404  -33026144.80347 -25401235.74663
 91  3 23  2  1 44.9900000  0  4G15G 2G13G 6
  20646422.053    -9022041.791 6  -6926729.49621
  18054907.928   -31572624.243 8 -16057677.85523
  18000420.4514  -21122736.96547 -15925566.36961
  17442183.4984  -33049128.52047 -25419145.10863
 91  3 23  2  1 59.9900000  0  4G15G 2G13G 6
  20646251.818    -9022927.330 6  -6927419.46021
  18053817.850   -31578350.773 8 -16062140.07623
  17991240.3034  -21170980.77847 -15963158.86262
  17437831.6234  -33071999.09047 -25436966.29962
 91  3 23  2  2 14.9900000  0  4G15G 2G13G 6
  20646111.6934   -9023675.56146  -6928002.47361
  18052738.420   -31584033.157 8 -16066567.88423
  17982084.5454  -21219094.36347 -16000649.88162
  17433500.514   -33094757.846 7 -25454700.36822
 91  3 23  2  2 29.9900000  0  4G15G 2G13G 6
  20645994.6704   -9024284.25146  -6928476.73961
  18051666.428   -31589669.094 8 -16070959.51023
  17972954.2174  -21267075.42347 -16038037.63161
  17429193.0844  -33117402.24147 -25472345.31562
 91  3 23  2  2 44.9900000  0  4G15G 2G13G 6
  20645908.1474   -9024750.51045  -6928840.00661
  18050601.240   -31595255.660 8 -16075312.65523
  17963848.6234  -21314920.75147 -16075319.62361
  17424905.8424  -33139929.02647 -25489898.62562
 91  3 23  2  2 59.9900000  0  4G15G 2G13G 6
  20645844.7874   -9025079.68546  -6929096.48361
  18049546.803   -31600798.105 8 -16079631.42523
  17954769.053   -21362635.354 7 -16112499.75022
  17420639.9984  -33162343.35647 -25507364.30563
 91  3 23  2  3 14.9900000  0  4G15G 2G13G 6
  20645805.568    -9025267.011 5
  18048501.209   -31606291.519 8 -16083911.99323
  17945714.7254  -21410214.25347 -16149574.13162
  17416398.0374  -33184640.08547 -25524738.35363
 91  3 23  2  3 29.9900000  0  4G15G 2G13G 6
  20645798.389    -9025315.579 6
  18047465.123   -31611738.778 8 -16088156.58923
  17936687.975   -21457660.467 7 -16186545.12322
  17412176.3424  -33206822.13147 -25542023.02863
 91  3 23  2  3 44.9900000  0  4G15G 2G13G 6
  20645818.381    -9025222.909 6
  18046437.920   -31617137.133 8 -16092363.08723
  17927683.217   -21504971.062 7 -16223410.43021
  17407978.2794  -33228886.32347 -25559215.87863
 91  3 23  2  3 59.9900000  0  4G15G 2G13G 6
  20645860.8654   -9024996.05546
  18045419.162   -31622493.648 8 -16096536.98223
  17918704.522   -21552152.886 7 -16260175.41322
  17403799.7954  -33250839.52647 -25576322.23563
 91  3 23  2  4 14.9900000  0  4G15G 2G13G 6
  20645933.4364   -9024627.63346
  18044408.076   -31627800.968 8 -16100672.53523
  17909752.818   -21599198.329 7 -16296834.11422
  17399645.5224  -33272674.15447 -25593336.20463
 91  3 23  2  4 29.9900000  0  4G15G 2G13G 6
  20646026.2174   -9024124.17445  -6928351.71061
  18043406.076   -31633065.594 8 -16104774.83123
  17900823.654   -21646113.711 7 -16333391.47321
  17395511.0294  -33294396.44047 -25610262.63263
 91  3 23  2  4 44.9900000  0  4G15G 2G13G 6
  20646146.225    -9023483.193 5  -6927852.19921
  18042413.904   -31638284.875 8 -16108841.78423
  17891921.889   -21692896.482 7 -16369845.49721
  17391400.4124  -33316003.65947 -25627099.39663
 91  3 23  2  4 59.9900000  0  4G15G 2G13G 6
  20646293.6544   -9022698.50445  -6927240.72361
  18041430.412   -31643452.577 8 -16112868.54124
  17883045.8504  -21739540.17047 -16406191.13961
  17387311.5534  -33337489.12347 -25643841.28863
 91  3 23  2  5 14.9900000  0  4G15G 2G13G 6
  20646467.162    -9021774.259 5  -6926520.48421
  18040455.740   -31648572.507 7 -16116858.07023
  17874195.6474  -21786048.57747 -16442431.37161
  17383245.0534  -33358856.77547 -25660491.37263
 91  3 23  2  5 29.9890000  0  4G15G 2G13G 6
  20646674.0014   -9020715.75545  -6925695.65861
  18039488.665   -31653649.484 7 -16120814.14523
  17865370.626   -21832423.678 7 -16478567.73221
  17379202.1964  -33380110.03347 -25677052.32363
 91  3 23  2  5 44.9890000  0  4G15G 2G13G 6
  20646900.8924   -9019520.38245  -6924764.16061
  18038533.024   -31658681.538 8 -16124735.20823
  17856572.110   -21878668.864 7 -16514602.85721
  17375177.7674  -33401248.84547 -25693524.09163
 91  3 23  2  5 59.9890000  0  4G15G 2G13G 6
  20647153.595    -9018184.146 5  -6923722.91321
  18037582.595   -31663663.985 8 -16128617.61023
  17847795.6104  -21924776.60747 -16550530.88561
  17371178.4314  -33422267.22647 -25709902.01863
 91  3 23  2  6 14.9890000  0  4G15G 2G13G 6
  20647435.899    -9016707.958 5  -6922572.60121
  18036644.4154  -31668598.11148 -16132462.36863
  17839048.5874  -21970747.59847 -16586352.35261
  17367201.1494  -33443166.05647 -25726186.79163
 91  3 23  2  6 29.9890000  0  4G15G 2G13G 6
  20647744.9704   -9015094.19845  -6921315.09461
  18035714.884   -31673485.808 8 -16136270.95123
  17830325.7284  -22016583.81247 -16622068.79861
  17363246.2434  -33463947.27247 -25742379.91363
 91  3 23  2  6 44.9890000  0  4G15G 2G13G 6
  20648077.5874   -9013344.15745  -6919951.40261
  18034792.970   -31678328.353 8 -16140044.34323
  17821629.0094  -22062286.54247 -16657681.22961
  17359314.5794  -33484611.82947 -25758482.13763
 91  3 23  2  6 59.9890000  0  4G15G 2G13G 6
  20648433.4464   -9011458.95745  -6918482.37561
  18033880.095   -31683126.579 8 -16143783.20723
  17812957.056   -22107856.537 7 -16693190.23621
  17355404.5874  -33505160.35347 -25774493.93863
 91  3 23  2  7 14.9890000  0  4G15G 2G13G 6
  20648824.0244   -9009432.81645  -6916903.53461
  18032975.915   -31687874.524 8 -16147482.88823
  17804312.032   -22153287.895 7 -16728591.20721
  17351517.5714  -33525586.99347 -25790410.77063
 91  3 23  2  7 29.9890000  0  4G15G 2G13G 6
  20649230.0564   -9007271.23045  -6915219.14561
  18032082.954   -31692577.851 8 -16151147.80423
  17795691.8374  -22198585.90847 -16763888.27861
  17347651.3534  -33545896.99747 -25806236.71563
 91  3 23  2  7 44.9890000  0  4G15G 2G13G 6
  20649668.5324   -9004972.04745  -6913427.54861
  18031195.868   -31697234.252 8 -16154776.15123
  17787095.728   -22243748.437 7 -16799079.77921
  17343809.3454  -33566087.88747 -25821969.84463
 91  3 23  2  7 59.9890000  0  4G15G 2G13G 6
  20650134.462    -9002537.013 5  -6911530.08821
  18030318.915   -31701845.352 8 -16158369.19123
  17778528.392   -22288776.795 7 -16834166.73221
  17339990.3064  -33586160.89347 -25837611.11263
 91  3 23  2  8 14.9890000  0  4G15G 2G13G 6
  20650622.6894   -8999965.16045  -6909526.00861
  18029450.212   -31706409.894 8 -16161925.96023
  17769985.470   -22333669.484 7 -16869147.96821
  17336192.3684  -33606114.70147 -25853159.50963
 91  3 23  2  8 29.9890000  0  4G15G 2G13G 6
  20651138.673    -8997246.692 5  -6907407.69421
  18028592.759   -31710917.942 8 -16165438.70723
  17761469.853   -22378416.823 7 -16904015.94822
  17332420.6104  -33625939.26547 -25868607.19363
 91  3 23  2  8 44.9890000  0  4G15G 2G13G 6
  20651680.0794   -8994397.48045  -6905187.49961
  18027742.368   -31715385.199 8 -16168919.67223
  17752980.493   -22423034.233 7 -16938782.68821
  17328670.3924  -33645650.16047 -25883966.29863
 91  3 23  2  8 59.9890000  0  4G15G 2G13G 6
  20652248.3764   -8991420.10545  -6902867.43661
  18026899.071   -31719814.316 8 -16172370.91423
  17744514.524   -22467524.199 7 -16973450.11422
  17324940.7594  -33665249.60647 -25899238.56363
 91  3 23  2  9 14.9890000  0  4G15G 2G13G 6
  20652839.173    -8988307.321 5  -6900441.86521
  18026064.235   -31724197.781 8 -16175786.57823
  17736074.165   -22511879.049 7 -17008012.25922
  17321232.8454  -33684729.88247 -25914417.96563
 91  3 23  2  9 29.9890000  0  4G15G 2G13G 6
  20653457.931    -8985061.171 5  -6897912.35221
  18025239.712   -31728537.713 8 -16179168.32423
  17727657.228   -22556100.829 7 -17042470.71222
  17317548.6964  -33704093.04847 -25929506.11063
 91  3 23  2  9 44.9890000  0  4G15G 2G13G 6
  20654101.353    -8981680.167 5  -6895277.78721
  18024421.860   -31732832.419 8 -16182514.83123
  17719268.509   -22600187.731 7 -17076824.07122
  17313886.5094  -33723337.00947 -25944501.37663
 91  3 23  2  9 59.9890000  0  4G15G 2G13G 6
  20654774.681    -8978160.992 5  -6892535.54721
  18023612.431   -31737078.269 8 -16185823.26323
  17710905.603   -22644135.980 7 -17111069.37722
  17310247.9074  -33742458.09847 -25959400.89063
 91  3 23  2 10 14.9890000  0  4G15G 2G13G 6
  20655466.478    -8974506.342 5  -6889687.71921
  18022814.048   -31741277.682 8 -16189095.51523
  17702567.915   -22687948.269 7 -17145208.74922
  17306632.1574  -33761458.70947 -25974206.53263
 91  3 23  2 10 29.9890000  0  4G15G 2G13G 6
  20656187.1104   -8970712.58545  -6886731.52561
  18022024.345   -31745426.759 8 -16192328.54123
  17694256.306   -22731620.428 7 -17179238.92722
  17303040.0954  -33780334.71547 -25988915.07763
 91  3 23  2 10 44.9890000  0  4G15G 2G13G 6
  20656933.9154   -8966784.41145  -6883670.57561
  18021244.3924  -31749529.97848 -16195525.82563
  17685973.470   -22775156.784 7 -17213163.28922
  17299470.6344  -33799090.39747 -26003529.86263
 91  3 23  2 10 59.9890000  0  4G15G 2G13G 6
  20657710.1104   -8962718.97145  -6880502.66061
  18020472.681   -31753584.780 8 -16198685.38623
  17677714.782   -22818554.537 7 -17246979.64022
  17295925.2824  -33817722.71247 -26018048.51563
 91  3 23  2 11 14.9890000  0  4G15G 2G13G 6
  20658506.2284   -8958517.93045  -6877229.09761
  18019710.056   -31757592.524 8 -16201808.28223
  17669483.228   -22861814.854 7 -17280688.90521
  17292402.0014  -33836233.12347 -26032472.18263
 91  3 23  2 11 29.9890000  0  4G15G 2G13G 6
  20659332.4934   -8954179.36745  -6873848.37161
  18018957.103   -31761551.059 8 -16204892.83523
  17661277.032   -22904935.720 7 -17314289.50522
  17288904.5014  -33854619.30347 -26046799.03863
 91  3 23  2 11 44.9890000  0  4G15G 2G13G 6
  20660186.962    -8949708.559 5  -6870364.59621
  18018211.306   -31765465.559 8 -16207943.07223
  17653096.548   -22947922.334 7 -17347785.49321
  17285427.3534  -33872886.18047 -26061032.93963
 91  3 23  2 11 59.9890000  0  4G15G 2G13G 6
  20661063.3214   -8945103.31045  -6866776.03861
  18017475.524   -31769333.617 8 -16210957.12823
  17644942.462   -22990772.235 7 -17381174.95321
  17281974.5094  -33891031.18647 -26075171.86263
 91  3 23  2 12 14.9890000  0  4G15G 2G13G 6
  20661965.2284   -8940359.15445  -6863079.26461
  18016749.376   -31773150.731 8 -16213931.47923
  17636814.884   -23033480.710 7 -17414454.21521
  17278546.4464  -33909049.55647 -26089212.11563
 91  3 23  2 12 29.9890000  0  4G15G 2G13G 6
  20662891.993    -8935486.605 5  -6859282.45221
  18016029.892   -31776927.236 8 -16216874.18623
  17628713.157   -23076058.048 7 -17447631.29021
  17275140.4854  -33926951.49947 -26103161.64763
 91  3 23  2 12 44.9890000  0  4G15G 2G13G 6
  20663842.235    -8930478.949 5  -6855380.37021
  18015321.157   -31780655.956 8 -16219779.65923
  17620636.157   -23118497.107 7 -17480700.60821
  17271755.4704  -33944729.81547 -26117014.85163
 91  3 23  2 12 59.9890000  0  4G15G 2G13G 6
  20664826.1734   -8925333.40745  -6851370.81261
  18014620.181   -31784334.178 8 -16222645.78423
  17612587.071   -23160795.084 7 -17513660.00321
  17268397.8144  -33962381.56247 -26130769.43063
 91  3 23  2 13 14.9890000  0  4G15G 2G13G 6
  20665828.5244   -8920052.88245  -6847256.09761
  18013929.329   -31787964.749 8 -16225474.78123
  17604564.915   -23202954.558 7 -17546511.46621
  17265062.1574  -33979909.13447 -26144427.24563
 91  3 23  2 13 29.9890000  0  4G15G 2G13G 6
  20666860.642    -8914632.529 5  -6843032.42821
  18013249.884   -31791542.533 8 -16228262.64323
  17596570.571   -23244970.520 7 -17579251.10821
  17261750.9934  -33997307.56247 -26157984.42863
 91  3 23  2 13 44.9890000  0  4G15G 2G13G 6
  20667916.657    -8909077.173 5  -6838703.53221
  18012577.728   -31795072.116 8 -16231012.94423
  17588601.884   -23286847.355 7 -17611882.32821
  17258464.2744  -34014581.13547 -26171444.32163
 91  3 23  2 13 59.9890000  0  4G15G 2G13G 6
  20668999.431    -8903386.337 5  -6834269.09521
  18011915.024   -31798553.053 8 -16233725.34223
  17580657.009   -23328584.592 7 -17644404.78421
  17255200.9854  -34031729.19847 -26184806.41863
 91  3 23  2 14 14.9890000  0  4G15G 2G13G 6
  20670107.634    -8897556.025 5  -6829725.97521
  18011262.712   -31801980.807 8 -16236396.29623
  17572742.720   -23370177.488 7 -17676814.75921
  17251962.4624  -34048747.08447 -26198067.07963
 91  3 23  2 14 29.9890000  0  4G15G 2G13G 6
  20671242.5794   -8891592.32945  -6825078.90661
  18010619.048   -31805361.450 8 -16239030.54323
  17564855.595   -23411632.007 7 -17709116.90621
  17248747.2284  -34065640.73647 -26211230.93263
 91  3 23  2 14 44.9890000  0  4G15G 2G13G 6
  20672406.9544   -8885488.02845  -6820322.28961
  18009986.376   -31808687.931 8 -16241622.59023
  17556994.157   -23452941.327 7 -17741305.91521
  17245557.3994  -34082402.82447 -26224292.27163
 91  3 23  2 14 59.9890000  0  4G15G 2G13G 6
  20673591.3764   -8879253.09445  -6815463.86361
  18009362.845   -31811969.705 8 -16244179.78823
  17549158.5174  -23494114.62647 -17773388.93962
  17242391.0714  -34099042.57447 -26237258.28063
 91  3 23  2 15 14.9890000  0  4G15G 2G13G 6
  20674805.501    -8872883.419 5  -6810500.45821
  18008746.587   -31815202.372 8 -16246698.73023
  17541350.0484  -23535147.83147 -17805362.79361
  17239248.3994  -34115555.61547 -26250125.55063
 91  3 23  2 15 29.9890000  0  4G15G 2G13G 6
  20676037.009    -8866383.185 5  -6805435.29521
  18008139.993   -31818390.073 8 -16249182.62523
  17533569.1494  -23576044.86747 -17837230.54762
  17236129.7434  -34131945.96047 -26262897.21963
 91  3 23  2 15 44.9890000  0  4G15G 2G13G 6
  20677302.501    -8859745.418 5  -6800263.00121
  18007543.056   -31821525.611 8 -16251625.88423
  17525814.0174  -23616798.36847 -17868986.45362
  17233035.9544  -34148206.17347 -26275567.48663
 91  3 23  2 15 59.9890000  0  4G15G 2G13G 6
  20678592.3924   -8852970.53845  -6794983.84661
  18006955.001   -31824609.159 8 -16254028.62823
  17518084.2044  -23657408.43747 -17900630.60062
  17229964.9624  -34164336.21947 -26288136.32363
 91  3 23  2 16 14.9890000  0  4G15G 2G13G 6
  20679906.798    -8846067.445 5  -6789604.79121
  18006377.376   -31827649.599 8 -16256397.78523
  17510382.0874  -23697883.90547 -17932169.86162
  17226918.8214  -34180344.82047 -26300610.52763
 91  3 23  2 16 29.9890000  0  4G15G 2G13G 6
  20681244.634    -8839026.614 5  -6784118.41121
  18005809.564   -31830636.997 8 -16258725.60723
  17502707.8844  -23738214.76147 -17963596.43662
  17223897.8064  -34196221.96247 -26312982.30063
 91  3 23  2 16 44.9890000  0  4G15G 2G13G 6
  20682610.3604   -8831853.81245  -6778529.18961
  18005249.860   -31833577.136 8 -16261016.60623
  17495060.5644  -23778406.78747 -17994914.83962
  17220901.2674  -34211973.24447 -26325255.99763
 91  3 23  2 16 59.9890000  0  4G15G 2G13G 6
  20684002.2204   -8824548.23145  -6772836.49561
  18004700.478   -31836468.820 8 -16263269.84623
  17487438.5644  -23818458.73647 -18026124.09362
  17217928.2594  -34227597.26247 -26337430.52563
 91  3 23  2 17 14.9890000  0  4G15G 2G13G 6
  20685417.673    -8817112.328 5  -6767042.25621
  18004159.142   -31839314.533 8 -16265487.26423
  17479842.5324  -23858372.88347 -18057225.96362
  17214977.8144  -34243096.30647 -26349507.67563
 91  3 23  2 17 29.9890000  0  4G15G 2G13G 6
  20686856.5874   -8809544.86645  -6761145.50761
  18003626.040   -31842112.709 8 -16267667.64423
  17472274.3684  -23898147.85747 -18088219.38862
  17212052.9314  -34258468.76647 -26361486.18863
 91  3 23  2 17 44.9890000  0  4G15G 2G13G 6
  20688323.415    -8801845.510 5  -6755145.98221
  18003102.720   -31844863.044 8 -16269810.74623
  17464731.5954  -23937783.32347 -18119104.09962
  17209152.1344  -34273714.19247 -26373365.70963
 91  3 23  2 17 59.9890000  0  4G15G 2G13G 6
  20689809.462    -8794015.747 5  -6749044.85521
  18002587.649   -31847566.673 8 -16271917.45423
  17457214.5404  -23977280.30247 -18149880.89962
  17206274.7354  -34288833.50047 -26385146.95863
 91  3 23  2 18 14.9890000  0  4G15G 2G13G 6
  20691328.548    -8786052.758 5  -6742839.90921
  18002083.532   -31850220.528 8 -16273985.37723
  17449726.1734  -24016635.73547 -18180547.40962
  17203422.2514  -34303823.52547 -26396827.46563
 91  3 23  2 18 29.9890000  0  4G15G 2G13G 6
  20692866.0324   -8777958.76645  -6736532.88861
  18001586.517   -31852826.448 8 -16276015.94923
  17442263.5644  -24055851.49247 -18211105.07662
  17200594.1964  -34318685.90447 -26408408.50563
 91  3 23  2 18 44.9890000  0  4G15G 2G13G 6
  20694434.8604   -8769726.49545  -6730118.09061
  18001100.712   -31855376.947 7 -16278003.32923
  17434829.3374  -24094920.01147 -18241548.00862
  17197792.3604  -34333413.02947 -26419884.15663
 91  3 23  2 18 59.9890000  0  4G15G 2G13G 6
  20696023.7594   -8761367.60145  -6723604.64861
  18000623.548   -31857883.526 7 -16279956.49123
  17427418.9854  -24133852.79847 -18271885.17861
  17195011.4394  -34348016.43647 -26431263.40663
 91  3 23  2 19 14.9890000  0  4G15G 2G13G 6
  20697637.6964   -8752880.49545  -6716991.29661
  18000155.149   -31860344.498 8 -16281874.11523
  17420037.2674  -24172647.97647 -18302115.12461
  17192257.9784  -34362494.08347 -26442544.66163
 91  3 23  2 19 29.9890000  0  4G15G 2G13G 6
  20699279.7824   -8744265.50745  -6710278.28161
  17999697.024   -31862760.084 8 -16283756.37423
  17412679.9784  -24211305.68747 -18332237.94661
  17189526.5174  -34376846.04347 -26453727.97763
 91  3 23  2 19 44.9890000  0  4G15G 2G13G 6
  20700943.501    -8735516.570 5  -6703460.91421
  17999246.946   -31865124.056 8 -16285598.41623
  17405352.7744  -24249819.62347 -18362248.73861
  17186819.0564  -34391065.80147 -26464808.28063
 91  3 23  2 19 59.9890000  0  4G15G 2G13G 6
  20702634.290    -8726639.229 5  -6696543.48121
  17998807.204   -31867441.502 8 -16287404.20323
  17398049.6964  -24288195.13847 -18392151.67661
  17184139.4704  -34405158.68647 -26475789.72563
 91  3 23  2 20 14.9890000  0  4G15G 2G13G 6
  20704346.7354   -8717626.19645  -6689520.32561
  17998375.782   -31869705.014 8 -16289167.96223
  17390774.704   -24326424.733 7 -18421940.90321
  17181483.0564  -34419116.94247 -26486666.25663
 91  3 23  2 20 29.9890000  0  4G15G 2G13G 6
  20706090.892    -8708480.541 5  -6682393.81321
  17997954.103   -31871917.475 8 -16290891.93823
  17383527.8064  -24364511.01747 -18451618.45862
  17178851.0174  -34432943.21647 -26497439.94963
 91  3 23  2 20 44.9890000  0  4G15G 2G13G 6
  20707851.009    -8699213.583 5  -6675172.78821
  17997540.204   -31874089.763 8 -16292584.61723
  17376304.6574  -24402465.08647 -18481192.99661
  17176243.3534  -34446648.45747 -26508119.33063
 91  3 23  2 20 59.9890000  0  4G15G 2G13G 6
  20709636.673    -8689816.480 5  -6667850.35721
  17997137.595   -31876212.963 8 -16294239.04523
  17369108.6574  -24440278.07047 -18510657.59961
  17173659.2744  -34460223.59747 -26518697.32963
 91  3 23  2 21 14.9890000  0  4G15G 2G13G 6
  20711454.1574   -8680291.99745  -6660428.65761
  17996740.517   -31878289.721 8 -16295857.27623
  17361939.8374  -24477952.37447 -18540014.13662
  17171101.1264  -34473671.03447 -26529175.82463
 91  3 23  2 21 29.9890000  0  4G15G 2G13G 6
  20713291.821    -8670629.500 5  -6652899.40821
  17996356.454   -31880309.144 8 -16297430.83623
  17354799.4624  -24515477.31047 -18569254.28462
  17168568.9074  -34486979.83047 -26539546.28363
 91  3 23  2 21 44.9890000  0  4G15G 2G13G 6
  20715154.2514   -8660836.65545  -6645268.59061
  17995982.064   -31882278.810 8 -16298965.62523
  17347685.2904  -24552860.40147 -18598383.90162
  17166061.282   -34500157.412 7 -26549814.50723
 91  3 23  2 21 59.9890000  0  4G15G 2G13G 6
  20717041.868    -8650915.989 5  -6637538.17621
  17995616.814   -31884201.067 8 -16300463.46823
  17340597.7984  -24590103.98047 -18627404.81062
  17163577.0484  -34513205.90847 -26559982.13563
 91  3 23  2 22 14.9890000  0  4G15G 2G13G 6
  20718953.220    -8640869.713 5  -6629709.88021
  17995260.142   -31886077.699 8 -16301925.76223
  17333537.3374  -24627209.84247 -18656318.41062
  17161118.759   -34526127.128 7 -26570050.59323
 91  3 23  2 22 29.9890000  0  4G15G 2G13G 6
  20720889.579    -8630692.750 5  -6621779.75321
  17994910.853   -31887903.313 8 -16303348.30023
  17326502.7904  -24664172.50747 -18685120.42262
  17158685.907   -34538915.508 7 -26580015.54323
